<?xml version="1.0" encoding="UTF-8" standalone="no" ?>
<gpx xmlns="http://www.topografix.com/GPX/1/1" xmlns:xsi="http://www.w3.org/2001/XMLSchema-instance" xsi:schemaLocation="http://www.topografix.com/GPX/1/1 http://www.topografix.com/GPX/1/1/gpx.xsd" version="1.1" creator="VisuGPX - https://www.visugpx.com">
  <metadata>
    <name>HLR2015 - Petit Ballon v1</name>
    <desc><![CDATA[HLR2015 - Petit Ballon v1]]></desc>
  </metadata>
  <trk>
    <name><![CDATA[Petit Ballon v1.1]]></name>
    <trkseg>
      <trkpt lat="48.02145" lon="6.95166">
        <ele>799</ele>
        <time>2011-08-17T14:10:10Z</time>
      </trkpt>
      <trkpt lat="48.02274" lon="6.95405">
        <ele>812</ele>
        <time>2011-08-17T14:10:17Z</time>
      </trkpt>
      <trkpt lat="48.02426" lon="6.95833">
        <ele>838</ele>
        <time>2011-08-17T14:10:31Z</time>
      </trkpt>
      <trkpt lat="48.0247" lon="6.95928">
        <ele>845</ele>
        <time>2011-08-17T14:10:43Z</time>
      </trkpt>
      <trkpt lat="48.02478" lon="6.95935">
        <ele>845</ele>
        <time>2011-08-17T14:10:49Z</time>
      </trkpt>
      <trkpt lat="48.02481" lon="6.95947">
        <ele>846</ele>
        <time>2011-08-17T14:11:01Z</time>
      </trkpt>
      <trkpt lat="48.02481" lon="6.95946">
        <ele>845</ele>
        <time>2011-08-17T14:11:17Z</time>
      </trkpt>
      <trkpt lat="48.02514" lon="6.95959">
        <ele>844</ele>
        <time>2011-08-17T14:11:31Z</time>
      </trkpt>
      <trkpt lat="48.0257" lon="6.95977">
        <ele>847</ele>
        <time>2011-08-17T14:11:49Z</time>
      </trkpt>
      <trkpt lat="48.02624" lon="6.96004">
        <ele>857</ele>
        <time>2011-08-17T14:12:05Z</time>
      </trkpt>
      <trkpt lat="48.02666" lon="6.96032">
        <ele>858</ele>
        <time>2011-08-17T14:12:18Z</time>
      </trkpt>
      <trkpt lat="48.02714" lon="6.96063">
        <ele>859</ele>
        <time>2011-08-17T14:12:35Z</time>
      </trkpt>
      <trkpt lat="48.02765" lon="6.96099">
        <ele>869</ele>
        <time>2011-08-17T14:12:51Z</time>
      </trkpt>
      <trkpt lat="48.02822" lon="6.96141">
        <ele>875</ele>
        <time>2011-08-17T14:13:10Z</time>
      </trkpt>
      <trkpt lat="48.02866" lon="6.96159">
        <ele>871</ele>
        <time>2011-08-17T14:13:23Z</time>
      </trkpt>
      <trkpt lat="48.02907" lon="6.96174">
        <ele>881</ele>
        <time>2011-08-17T14:13:39Z</time>
      </trkpt>
      <trkpt lat="48.02944" lon="6.96185">
        <ele>884</ele>
        <time>2011-08-17T14:13:54Z</time>
      </trkpt>
      <trkpt lat="48.02979" lon="6.96192">
        <ele>884</ele>
        <time>2011-08-17T14:14:10Z</time>
      </trkpt>
      <trkpt lat="48.0303" lon="6.96206">
        <ele>886</ele>
        <time>2011-08-17T14:14:30Z</time>
      </trkpt>
      <trkpt lat="48.03072" lon="6.96228">
        <ele>889</ele>
        <time>2011-08-17T14:14:45Z</time>
      </trkpt>
      <trkpt lat="48.03118" lon="6.96252">
        <ele>897</ele>
        <time>2011-08-17T14:15:02Z</time>
      </trkpt>
      <trkpt lat="48.03166" lon="6.96276">
        <ele>896</ele>
        <time>2011-08-17T14:15:19Z</time>
      </trkpt>
      <trkpt lat="48.03183" lon="6.96281">
        <ele>889</ele>
        <time>2011-08-17T14:15:27Z</time>
      </trkpt>
      <trkpt lat="48.03218" lon="6.96311">
        <ele>890</ele>
        <time>2011-08-17T14:15:44Z</time>
      </trkpt>
      <trkpt lat="48.03254" lon="6.96336">
        <ele>891</ele>
        <time>2011-08-17T14:15:56Z</time>
      </trkpt>
      <trkpt lat="48.03313" lon="6.96376">
        <ele>892</ele>
        <time>2011-08-17T14:16:11Z</time>
      </trkpt>
      <trkpt lat="48.03358" lon="6.96418">
        <ele>892</ele>
        <time>2011-08-17T14:16:24Z</time>
      </trkpt>
      <trkpt lat="48.03448" lon="6.96502">
        <ele>893</ele>
        <time>2011-08-17T14:16:51Z</time>
      </trkpt>
      <trkpt lat="48.03504" lon="6.96579">
        <ele>891</ele>
        <time>2011-08-17T14:17:11Z</time>
      </trkpt>
      <trkpt lat="48.03564" lon="6.96691">
        <ele>897</ele>
        <time>2011-08-17T14:17:36Z</time>
      </trkpt>
      <trkpt lat="48.0362" lon="6.96811">
        <ele>896</ele>
        <time>2011-08-17T14:18:02Z</time>
      </trkpt>
      <trkpt lat="48.03648" lon="6.96878">
        <ele>900</ele>
        <time>2011-08-17T14:18:16Z</time>
      </trkpt>
      <trkpt lat="48.03666" lon="6.96918">
        <ele>896</ele>
        <time>2011-08-17T14:18:26Z</time>
      </trkpt>
      <trkpt lat="48.0368" lon="6.96919">
        <ele>899</ele>
        <time>2011-08-17T14:18:30Z</time>
      </trkpt>
      <trkpt lat="48.03683" lon="6.96929">
        <ele>900</ele>
        <time>2011-08-17T14:18:34Z</time>
      </trkpt>
      <trkpt lat="48.03708" lon="6.96974">
        <ele>903</ele>
        <time>2011-08-17T14:18:52Z</time>
      </trkpt>
      <trkpt lat="48.03746" lon="6.97031">
        <ele>905</ele>
        <time>2011-08-17T14:19:15Z</time>
      </trkpt>
      <trkpt lat="48.0378" lon="6.9709">
        <ele>911</ele>
        <time>2011-08-17T14:19:36Z</time>
      </trkpt>
      <trkpt lat="48.03805" lon="6.97129">
        <ele>913</ele>
        <time>2011-08-17T14:19:51Z</time>
      </trkpt>
      <trkpt lat="48.03831" lon="6.97157">
        <ele>914</ele>
        <time>2011-08-17T14:20:05Z</time>
      </trkpt>
      <trkpt lat="48.03882" lon="6.97212">
        <ele>920</ele>
        <time>2011-08-17T14:20:32Z</time>
      </trkpt>
      <trkpt lat="48.03903" lon="6.97269">
        <ele>918</ele>
        <time>2011-08-17T14:20:50Z</time>
      </trkpt>
      <trkpt lat="48.03911" lon="6.9732">
        <ele>919</ele>
        <time>2011-08-17T14:21:06Z</time>
      </trkpt>
      <trkpt lat="48.03929" lon="6.97346">
        <ele>923</ele>
        <time>2011-08-17T14:21:17Z</time>
      </trkpt>
      <trkpt lat="48.03942" lon="6.97361">
        <ele>924</ele>
        <time>2011-08-17T14:21:24Z</time>
      </trkpt>
      <trkpt lat="48.03971" lon="6.97422">
        <ele>931</ele>
        <time>2011-08-17T14:21:43Z</time>
      </trkpt>
      <trkpt lat="48.0398" lon="6.97467">
        <ele>935</ele>
        <time>2011-08-17T14:21:59Z</time>
      </trkpt>
      <trkpt lat="48.0398" lon="6.97467">
        <ele>935</ele>
        <time>2011-08-17T14:23:44Z</time>
      </trkpt>
      <trkpt lat="48.0398" lon="6.97467">
        <ele>935</ele>
        <time>2011-08-17T14:23:55Z</time>
      </trkpt>
      <trkpt lat="48.04005" lon="6.9752">
        <ele>948</ele>
        <time>2011-08-17T07:28:11Z</time>
      </trkpt>
      <trkpt lat="48.04022" lon="6.9753">
        <ele>951</ele>
        <time>2011-08-17T07:28:24Z</time>
      </trkpt>
      <trkpt lat="48.04039" lon="6.97539">
        <ele>953</ele>
        <time>2011-08-17T07:28:35Z</time>
      </trkpt>
      <trkpt lat="48.04054" lon="6.97548">
        <ele>954</ele>
        <time>2011-08-17T07:28:48Z</time>
      </trkpt>
      <trkpt lat="48.04069" lon="6.97563">
        <ele>958</ele>
        <time>2011-08-17T07:29:01Z</time>
      </trkpt>
      <trkpt lat="48.04083" lon="6.97579">
        <ele>966</ele>
        <time>2011-08-17T07:29:13Z</time>
      </trkpt>
      <trkpt lat="48.04101" lon="6.97594">
        <ele>974</ele>
        <time>2011-08-17T07:29:28Z</time>
      </trkpt>
      <trkpt lat="48.04117" lon="6.97603">
        <ele>975</ele>
        <time>2011-08-17T07:29:40Z</time>
      </trkpt>
      <trkpt lat="48.04144" lon="6.97618">
        <ele>976</ele>
        <time>2011-08-17T07:29:57Z</time>
      </trkpt>
      <trkpt lat="48.0416" lon="6.97626">
        <ele>977</ele>
        <time>2011-08-17T07:30:08Z</time>
      </trkpt>
      <trkpt lat="48.04182" lon="6.97635">
        <ele>974</ele>
        <time>2011-08-17T07:30:21Z</time>
      </trkpt>
      <trkpt lat="48.04208" lon="6.9765">
        <ele>975</ele>
        <time>2011-08-17T07:30:35Z</time>
      </trkpt>
      <trkpt lat="48.04219" lon="6.97651">
        <ele>975</ele>
        <time>2011-08-17T07:30:47Z</time>
      </trkpt>
      <trkpt lat="48.04235" lon="6.97655">
        <ele>978</ele>
        <time>2011-08-17T07:30:55Z</time>
      </trkpt>
      <trkpt lat="48.04258" lon="6.97666">
        <ele>981</ele>
        <time>2011-08-17T07:31:07Z</time>
      </trkpt>
      <trkpt lat="48.0428" lon="6.97675">
        <ele>997</ele>
        <time>2011-08-17T07:31:23Z</time>
      </trkpt>
      <trkpt lat="48.04304" lon="6.97688">
        <ele>998</ele>
        <time>2011-08-17T07:31:39Z</time>
      </trkpt>
      <trkpt lat="48.04307" lon="6.97689">
        <ele>997</ele>
        <time>2011-08-17T07:31:41Z</time>
      </trkpt>
      <trkpt lat="48.04327" lon="6.97693">
        <ele>997</ele>
        <time>2011-08-17T07:31:54Z</time>
      </trkpt>
      <trkpt lat="48.04336" lon="6.97696">
        <ele>994</ele>
        <time>2011-08-17T07:32:00Z</time>
      </trkpt>
      <trkpt lat="48.04358" lon="6.97702">
        <ele>996</ele>
        <time>2011-08-17T07:32:13Z</time>
      </trkpt>
      <trkpt lat="48.04383" lon="6.97706">
        <ele>996</ele>
        <time>2011-08-17T07:32:30Z</time>
      </trkpt>
      <trkpt lat="48.04407" lon="6.97713">
        <ele>997</ele>
        <time>2011-08-17T07:32:43Z</time>
      </trkpt>
      <trkpt lat="48.04436" lon="6.97725">
        <ele>997</ele>
        <time>2011-08-17T07:32:59Z</time>
      </trkpt>
      <trkpt lat="48.04447" lon="6.97727">
        <ele>996</ele>
        <time>2011-08-17T07:33:05Z</time>
      </trkpt>
      <trkpt lat="48.04461" lon="6.97726">
        <ele>995</ele>
        <time>2011-08-17T07:33:14Z</time>
      </trkpt>
      <trkpt lat="48.0448" lon="6.97734">
        <ele>996</ele>
        <time>2011-08-17T07:33:23Z</time>
      </trkpt>
      <trkpt lat="48.04503" lon="6.97748">
        <ele>1002</ele>
        <time>2011-08-17T07:33:39Z</time>
      </trkpt>
      <trkpt lat="48.04506" lon="6.97749">
        <ele>1000</ele>
        <time>2011-08-17T07:33:42Z</time>
      </trkpt>
      <trkpt lat="48.04516" lon="6.97749">
        <ele>997</ele>
        <time>2011-08-17T07:33:49Z</time>
      </trkpt>
      <trkpt lat="48.04542" lon="6.97757">
        <ele>1009</ele>
        <time>2011-08-17T07:34:04Z</time>
      </trkpt>
      <trkpt lat="48.0456" lon="6.97775">
        <ele>1010</ele>
        <time>2011-08-17T07:34:17Z</time>
      </trkpt>
      <trkpt lat="48.04588" lon="6.97793">
        <ele>1009</ele>
        <time>2011-08-17T07:34:33Z</time>
      </trkpt>
      <trkpt lat="48.04604" lon="6.97803">
        <ele>1011</ele>
        <time>2011-08-17T07:34:42Z</time>
      </trkpt>
      <trkpt lat="48.04625" lon="6.97812">
        <ele>1011</ele>
        <time>2011-08-17T07:34:55Z</time>
      </trkpt>
      <trkpt lat="48.04637" lon="6.97826">
        <ele>1012</ele>
        <time>2011-08-17T07:35:05Z</time>
      </trkpt>
      <trkpt lat="48.04632" lon="6.97832">
        <ele>1012</ele>
        <time>2011-08-17T07:35:09Z</time>
      </trkpt>
      <trkpt lat="48.04607" lon="6.97829">
        <ele>1014</ele>
        <time>2011-08-17T07:35:25Z</time>
      </trkpt>
      <trkpt lat="48.04595" lon="6.97828">
        <ele>1017</ele>
        <time>2011-08-17T07:35:32Z</time>
      </trkpt>
      <trkpt lat="48.04594" lon="6.97831">
        <ele>1017</ele>
        <time>2011-08-17T07:35:35Z</time>
      </trkpt>
      <trkpt lat="48.04583" lon="6.97832">
        <ele>1021</ele>
        <time>2011-08-17T07:35:42Z</time>
      </trkpt>
      <trkpt lat="48.04573" lon="6.97828">
        <ele>1019</ele>
        <time>2011-08-17T07:35:50Z</time>
      </trkpt>
      <trkpt lat="48.04566" lon="6.9783">
        <ele>1018</ele>
        <time>2011-08-17T07:35:54Z</time>
      </trkpt>
      <trkpt lat="48.04561" lon="6.97832">
        <ele>1018</ele>
        <time>2011-08-17T07:35:57Z</time>
      </trkpt>
      <trkpt lat="48.04557" lon="6.9783">
        <ele>1018</ele>
        <time>2011-08-17T07:35:59Z</time>
      </trkpt>
      <trkpt lat="48.04549" lon="6.97831">
        <ele>1017</ele>
        <time>2011-08-17T07:36:03Z</time>
      </trkpt>
      <trkpt lat="48.04543" lon="6.97833">
        <ele>1018</ele>
        <time>2011-08-17T07:36:07Z</time>
      </trkpt>
      <trkpt lat="48.04529" lon="6.97839">
        <ele>1032</ele>
        <time>2011-08-17T07:36:16Z</time>
      </trkpt>
      <trkpt lat="48.0451" lon="6.97841">
        <ele>1031</ele>
        <time>2011-08-17T07:36:26Z</time>
      </trkpt>
      <trkpt lat="48.04486" lon="6.97845">
        <ele>1036</ele>
        <time>2011-08-17T07:36:40Z</time>
      </trkpt>
      <trkpt lat="48.04467" lon="6.97843">
        <ele>1039</ele>
        <time>2011-08-17T07:36:51Z</time>
      </trkpt>
      <trkpt lat="48.04452" lon="6.97841">
        <ele>1040</ele>
        <time>2011-08-17T07:36:59Z</time>
      </trkpt>
      <trkpt lat="48.04427" lon="6.97842">
        <ele>1039</ele>
        <time>2011-08-17T07:37:13Z</time>
      </trkpt>
      <trkpt lat="48.04427" lon="6.97848">
        <ele>1040</ele>
        <time>2011-08-17T07:37:27Z</time>
      </trkpt>
      <trkpt lat="48.04425" lon="6.97848">
        <ele>1040</ele>
        <time>2011-08-17T07:37:33Z</time>
      </trkpt>
      <trkpt lat="48.0442" lon="6.97847">
        <ele>1039</ele>
        <time>2011-08-17T07:37:36Z</time>
      </trkpt>
      <trkpt lat="48.04412" lon="6.97848">
        <ele>1044</ele>
        <time>2011-08-17T07:37:41Z</time>
      </trkpt>
      <trkpt lat="48.04407" lon="6.9785">
        <ele>1046</ele>
        <time>2011-08-17T07:37:44Z</time>
      </trkpt>
      <trkpt lat="48.04398" lon="6.97854">
        <ele>1048</ele>
        <time>2011-08-17T07:37:50Z</time>
      </trkpt>
      <trkpt lat="48.04396" lon="6.97855">
        <ele>1048</ele>
        <time>2011-08-17T07:37:52Z</time>
      </trkpt>
      <trkpt lat="48.04386" lon="6.97854">
        <ele>1050</ele>
        <time>2011-08-17T07:37:57Z</time>
      </trkpt>
      <trkpt lat="48.04377" lon="6.97856">
        <ele>1051</ele>
        <time>2011-08-17T07:38:02Z</time>
      </trkpt>
      <trkpt lat="48.04368" lon="6.97861">
        <ele>1052</ele>
        <time>2011-08-17T07:38:09Z</time>
      </trkpt>
      <trkpt lat="48.04338" lon="6.97859">
        <ele>1052</ele>
        <time>2011-08-17T07:38:25Z</time>
      </trkpt>
      <trkpt lat="48.04333" lon="6.97862">
        <ele>1060</ele>
        <time>2011-08-17T07:38:29Z</time>
      </trkpt>
      <trkpt lat="48.04325" lon="6.97863">
        <ele>1060</ele>
        <time>2011-08-17T07:38:34Z</time>
      </trkpt>
      <trkpt lat="48.04302" lon="6.97861">
        <ele>1062</ele>
        <time>2011-08-17T07:38:47Z</time>
      </trkpt>
      <trkpt lat="48.04265" lon="6.97855">
        <ele>1062</ele>
        <time>2011-08-17T07:39:03Z</time>
      </trkpt>
      <trkpt lat="48.04246" lon="6.9785">
        <ele>1065</ele>
        <time>2011-08-17T07:39:13Z</time>
      </trkpt>
      <trkpt lat="48.04244" lon="6.97849">
        <ele>1065</ele>
        <time>2011-08-17T07:39:15Z</time>
      </trkpt>
      <trkpt lat="48.04223" lon="6.97844">
        <ele>1068</ele>
        <time>2011-08-17T07:39:27Z</time>
      </trkpt>
      <trkpt lat="48.04201" lon="6.97835">
        <ele>1070</ele>
        <time>2011-08-17T07:39:38Z</time>
      </trkpt>
      <trkpt lat="48.04178" lon="6.97832">
        <ele>1058</ele>
        <time>2011-08-17T07:39:49Z</time>
      </trkpt>
      <trkpt lat="48.04176" lon="6.97833">
        <ele>1060</ele>
        <time>2011-08-17T07:39:51Z</time>
      </trkpt>
      <trkpt lat="48.04158" lon="6.97825">
        <ele>1059</ele>
        <time>2011-08-17T07:39:57Z</time>
      </trkpt>
      <trkpt lat="48.0415" lon="6.97824">
        <ele>1057</ele>
        <time>2011-08-17T07:40:02Z</time>
      </trkpt>
      <trkpt lat="48.04126" lon="6.97824">
        <ele>1055</ele>
        <time>2011-08-17T07:40:14Z</time>
      </trkpt>
      <trkpt lat="48.04099" lon="6.97826">
        <ele>1058</ele>
        <time>2011-08-17T07:40:27Z</time>
      </trkpt>
      <trkpt lat="48.04075" lon="6.97836">
        <ele>1065</ele>
        <time>2011-08-17T07:40:40Z</time>
      </trkpt>
      <trkpt lat="48.0407" lon="6.9784">
        <ele>1065</ele>
        <time>2011-08-17T07:40:43Z</time>
      </trkpt>
      <trkpt lat="48.04064" lon="6.97845">
        <ele>1065</ele>
        <time>2011-08-17T07:40:47Z</time>
      </trkpt>
      <trkpt lat="48.04037" lon="6.97883">
        <ele>1065</ele>
        <time>2011-08-17T07:41:07Z</time>
      </trkpt>
      <trkpt lat="48.04035" lon="6.97889">
        <ele>1065</ele>
        <time>2011-08-17T07:41:10Z</time>
      </trkpt>
      <trkpt lat="48.04031" lon="6.97912">
        <ele>1065</ele>
        <time>2011-08-17T07:41:20Z</time>
      </trkpt>
      <trkpt lat="48.04028" lon="6.97946">
        <ele>1074</ele>
        <time>2011-08-17T07:41:34Z</time>
      </trkpt>
      <trkpt lat="48.04027" lon="6.97948">
        <ele>1074</ele>
        <time>2011-08-17T07:41:35Z</time>
      </trkpt>
      <trkpt lat="48.04021" lon="6.9798">
        <ele>1075</ele>
        <time>2011-08-17T07:41:48Z</time>
      </trkpt>
      <trkpt lat="48.04018" lon="6.98021">
        <ele>1080</ele>
        <time>2011-08-17T07:42:02Z</time>
      </trkpt>
      <trkpt lat="48.04019" lon="6.98024">
        <ele>1081</ele>
        <time>2011-08-17T07:42:03Z</time>
      </trkpt>
      <trkpt lat="48.04021" lon="6.98049">
        <ele>1084</ele>
        <time>2011-08-17T07:42:10Z</time>
      </trkpt>
      <trkpt lat="48.0402" lon="6.98057">
        <ele>1084</ele>
        <time>2011-08-17T07:42:13Z</time>
      </trkpt>
      <trkpt lat="48.04018" lon="6.9807">
        <ele>1083</ele>
        <time>2011-08-17T07:42:18Z</time>
      </trkpt>
      <trkpt lat="48.04016" lon="6.98102">
        <ele>1087</ele>
        <time>2011-08-17T07:42:32Z</time>
      </trkpt>
      <trkpt lat="48.04015" lon="6.9811">
        <ele>1088</ele>
        <time>2011-08-17T07:42:37Z</time>
      </trkpt>
      <trkpt lat="48.04015" lon="6.9812">
        <ele>1089</ele>
        <time>2011-08-17T07:42:40Z</time>
      </trkpt>
      <trkpt lat="48.04015" lon="6.98162">
        <ele>1089</ele>
        <time>2011-08-17T07:42:55Z</time>
      </trkpt>
      <trkpt lat="48.04015" lon="6.9817">
        <ele>1091</ele>
        <time>2011-08-17T07:42:58Z</time>
      </trkpt>
      <trkpt lat="48.04012" lon="6.98229">
        <ele>1095</ele>
        <time>2011-08-17T07:43:20Z</time>
      </trkpt>
      <trkpt lat="48.0399" lon="6.98264">
        <ele>1088</ele>
        <time>2011-08-17T07:43:37Z</time>
      </trkpt>
      <trkpt lat="48.03986" lon="6.98272">
        <ele>1088</ele>
        <time>2011-08-17T07:43:40Z</time>
      </trkpt>
      <trkpt lat="48.03967" lon="6.98293">
        <ele>1086</ele>
        <time>2011-08-17T07:43:46Z</time>
      </trkpt>
      <trkpt lat="48.03958" lon="6.98323">
        <ele>1086</ele>
        <time>2011-08-17T07:43:51Z</time>
      </trkpt>
      <trkpt lat="48.03944" lon="6.98377">
        <ele>1091</ele>
        <time>2011-08-17T07:44:05Z</time>
      </trkpt>
      <trkpt lat="48.03941" lon="6.98419">
        <ele>1095</ele>
        <time>2011-08-17T07:44:20Z</time>
      </trkpt>
      <trkpt lat="48.03941" lon="6.98423">
        <ele>1095</ele>
        <time>2011-08-17T07:44:21Z</time>
      </trkpt>
      <trkpt lat="48.03946" lon="6.98469">
        <ele>1098</ele>
        <time>2011-08-17T07:44:38Z</time>
      </trkpt>
      <trkpt lat="48.03949" lon="6.98494">
        <ele>1098</ele>
        <time>2011-08-17T07:44:49Z</time>
      </trkpt>
      <trkpt lat="48.03949" lon="6.98503">
        <ele>1101</ele>
        <time>2011-08-17T07:44:53Z</time>
      </trkpt>
      <trkpt lat="48.03957" lon="6.9854">
        <ele>1103</ele>
        <time>2011-08-17T07:45:07Z</time>
      </trkpt>
      <trkpt lat="48.03965" lon="6.98584">
        <ele>1106</ele>
        <time>2011-08-17T07:45:21Z</time>
      </trkpt>
      <trkpt lat="48.03967" lon="6.98625">
        <ele>1106</ele>
        <time>2011-08-17T07:45:36Z</time>
      </trkpt>
      <trkpt lat="48.03968" lon="6.98642">
        <ele>1107</ele>
        <time>2011-08-17T07:45:42Z</time>
      </trkpt>
      <trkpt lat="48.03971" lon="6.98669">
        <ele>1109</ele>
        <time>2011-08-17T07:45:52Z</time>
      </trkpt>
      <trkpt lat="48.03973" lon="6.98718">
        <ele>1108</ele>
        <time>2011-08-17T07:46:08Z</time>
      </trkpt>
      <trkpt lat="48.03975" lon="6.98766">
        <ele>1108</ele>
        <time>2011-08-17T07:46:18Z</time>
      </trkpt>
      <trkpt lat="48.03977" lon="6.9883">
        <ele>1109</ele>
        <time>2011-08-17T07:46:29Z</time>
      </trkpt>
      <trkpt lat="48.03989" lon="6.98894">
        <ele>1109</ele>
        <time>2011-08-17T07:46:40Z</time>
      </trkpt>
      <trkpt lat="48.04016" lon="6.9894">
        <ele>1116</ele>
        <time>2011-08-17T07:46:52Z</time>
      </trkpt>
      <trkpt lat="48.04024" lon="6.98967">
        <ele>1115</ele>
        <time>2011-08-17T07:46:57Z</time>
      </trkpt>
      <trkpt lat="48.04053" lon="6.99">
        <ele>1113</ele>
        <time>2011-08-17T07:47:09Z</time>
      </trkpt>
      <trkpt lat="48.0407" lon="6.9901">
        <ele>1116</ele>
        <time>2011-08-17T07:47:18Z</time>
      </trkpt>
      <trkpt lat="48.04094" lon="6.99038">
        <ele>1126</ele>
        <time>2011-08-17T07:47:29Z</time>
      </trkpt>
      <trkpt lat="48.04097" lon="6.99077">
        <ele>1123</ele>
        <time>2011-08-17T07:47:40Z</time>
      </trkpt>
      <trkpt lat="48.041" lon="6.99101">
        <ele>1124</ele>
        <time>2011-08-17T07:47:51Z</time>
      </trkpt>
      <trkpt lat="48.04103" lon="6.99148">
        <ele>1125</ele>
        <time>2011-08-17T07:48:05Z</time>
      </trkpt>
      <trkpt lat="48.04103" lon="6.9915">
        <ele>1125</ele>
        <time>2011-08-17T07:48:06Z</time>
      </trkpt>
      <trkpt lat="48.04099" lon="6.99172">
        <ele>1126</ele>
        <time>2011-08-17T07:48:13Z</time>
      </trkpt>
      <trkpt lat="48.04098" lon="6.99216">
        <ele>1129</ele>
        <time>2011-08-17T07:48:25Z</time>
      </trkpt>
      <trkpt lat="48.04098" lon="6.99259">
        <ele>1130</ele>
        <time>2011-08-17T07:48:39Z</time>
      </trkpt>
      <trkpt lat="48.04099" lon="6.99317">
        <ele>1131</ele>
        <time>2011-08-17T07:48:54Z</time>
      </trkpt>
      <trkpt lat="48.04093" lon="6.99377">
        <ele>1133</ele>
        <time>2011-08-17T07:49:08Z</time>
      </trkpt>
      <trkpt lat="48.04092" lon="6.99436">
        <ele>1132</ele>
        <time>2011-08-17T07:49:19Z</time>
      </trkpt>
      <trkpt lat="48.04088" lon="6.99517">
        <ele>1130</ele>
        <time>2011-08-17T07:49:30Z</time>
      </trkpt>
      <trkpt lat="48.04086" lon="6.99535">
        <ele>1132</ele>
        <time>2011-08-17T07:49:33Z</time>
      </trkpt>
      <trkpt lat="48.04086" lon="6.99566">
        <ele>1129</ele>
        <time>2011-08-17T07:49:37Z</time>
      </trkpt>
      <trkpt lat="48.0409" lon="6.99595">
        <ele>1126</ele>
        <time>2011-08-17T07:49:41Z</time>
      </trkpt>
      <trkpt lat="48.04095" lon="6.9961">
        <ele>1128</ele>
        <time>2011-08-17T07:49:43Z</time>
      </trkpt>
      <trkpt lat="48.04101" lon="6.99622">
        <ele>1128</ele>
        <time>2011-08-17T07:49:45Z</time>
      </trkpt>
      <trkpt lat="48.04119" lon="6.99647">
        <ele>1130</ele>
        <time>2011-08-17T07:49:50Z</time>
      </trkpt>
      <trkpt lat="48.04126" lon="6.99675">
        <ele>1126</ele>
        <time>2011-08-17T07:49:54Z</time>
      </trkpt>
      <trkpt lat="48.04105" lon="6.99714">
        <ele>1122</ele>
        <time>2011-08-17T07:50:04Z</time>
      </trkpt>
      <trkpt lat="48.04098" lon="6.99726">
        <ele>1120</ele>
        <time>2011-08-17T07:50:07Z</time>
      </trkpt>
      <trkpt lat="48.04105" lon="6.99751">
        <ele>1116</ele>
        <time>2011-08-17T07:50:13Z</time>
      </trkpt>
      <trkpt lat="48.04118" lon="6.99789">
        <ele>1117</ele>
        <time>2011-08-17T07:50:22Z</time>
      </trkpt>
      <trkpt lat="48.04113" lon="6.9985">
        <ele>1114</ele>
        <time>2011-08-17T07:50:34Z</time>
      </trkpt>
      <trkpt lat="48.04124" lon="6.99864">
        <ele>1116</ele>
        <time>2011-08-17T07:50:38Z</time>
      </trkpt>
      <trkpt lat="48.04129" lon="6.99884">
        <ele>1116</ele>
        <time>2011-08-17T07:50:42Z</time>
      </trkpt>
      <trkpt lat="48.04127" lon="6.99901">
        <ele>1117</ele>
        <time>2011-08-17T07:50:46Z</time>
      </trkpt>
      <trkpt lat="48.0413" lon="6.99911">
        <ele>1117</ele>
        <time>2011-08-17T07:50:51Z</time>
      </trkpt>
      <trkpt lat="48.04136" lon="6.99913">
        <ele>1117</ele>
        <time>2011-08-17T07:50:55Z</time>
      </trkpt>
      <trkpt lat="48.0415" lon="6.99907">
        <ele>1118</ele>
        <time>2011-08-17T07:51:05Z</time>
      </trkpt>
      <trkpt lat="48.04182" lon="6.99888">
        <ele>1120</ele>
        <time>2011-08-17T07:51:16Z</time>
      </trkpt>
      <trkpt lat="48.04192" lon="6.99876">
        <ele>1120</ele>
        <time>2011-08-17T07:51:20Z</time>
      </trkpt>
      <trkpt lat="48.04211" lon="6.9986">
        <ele>1119</ele>
        <time>2011-08-17T07:51:24Z</time>
      </trkpt>
      <trkpt lat="48.04243" lon="6.99846">
        <ele>1117</ele>
        <time>2011-08-17T07:51:28Z</time>
      </trkpt>
      <trkpt lat="48.04266" lon="6.99845">
        <ele>1114</ele>
        <time>2011-08-17T07:51:31Z</time>
      </trkpt>
      <trkpt lat="48.04289" lon="6.99852">
        <ele>1112</ele>
        <time>2011-08-17T07:51:35Z</time>
      </trkpt>
      <trkpt lat="48.04309" lon="6.99875">
        <ele>1112</ele>
        <time>2011-08-17T07:51:40Z</time>
      </trkpt>
      <trkpt lat="48.04334" lon="6.99912">
        <ele>1109</ele>
        <time>2011-08-17T07:51:49Z</time>
      </trkpt>
      <trkpt lat="48.04354" lon="6.99942">
        <ele>1110</ele>
        <time>2011-08-17T07:51:58Z</time>
      </trkpt>
      <trkpt lat="48.04368" lon="6.99965">
        <ele>1110</ele>
        <time>2011-08-17T07:52:05Z</time>
      </trkpt>
      <trkpt lat="48.04383" lon="6.99986">
        <ele>1110</ele>
        <time>2011-08-17T07:52:14Z</time>
      </trkpt>
      <trkpt lat="48.04407" lon="7.00014">
        <ele>1116</ele>
        <time>2011-08-17T07:52:23Z</time>
      </trkpt>
      <trkpt lat="48.04418" lon="7.00037">
        <ele>1094</ele>
        <time>2011-08-17T07:52:31Z</time>
      </trkpt>
      <trkpt lat="48.04419" lon="7.00044">
        <ele>1095</ele>
        <time>2011-08-17T07:52:47Z</time>
      </trkpt>
      <trkpt lat="48.04419" lon="7.00045">
        <ele>1095</ele>
        <time>2011-08-17T07:52:50Z</time>
      </trkpt>
      <trkpt lat="48.04422" lon="7.00053">
        <ele>1097</ele>
        <time>2011-08-17T07:52:54Z</time>
      </trkpt>
      <trkpt lat="48.04427" lon="7.00062">
        <ele>1100</ele>
        <time>2011-08-17T07:53:05Z</time>
      </trkpt>
      <trkpt lat="48.04421" lon="7.0006">
        <ele>1101</ele>
        <time>2011-08-17T07:53:20Z</time>
      </trkpt>
      <trkpt lat="48.04424" lon="7.00065">
        <ele>1103</ele>
        <time>2011-08-17T07:53:32Z</time>
      </trkpt>
      <trkpt lat="48.04426" lon="7.00074">
        <ele>1108</ele>
        <time>2011-08-17T07:53:44Z</time>
      </trkpt>
      <trkpt lat="48.04428" lon="7.00087">
        <ele>1115</ele>
        <time>2011-08-17T07:53:50Z</time>
      </trkpt>
      <trkpt lat="48.0443" lon="7.00092">
        <ele>1113</ele>
        <time>2011-08-17T07:53:53Z</time>
      </trkpt>
      <trkpt lat="48.0443" lon="7.00105">
        <ele>1111</ele>
        <time>2011-08-17T07:54:01Z</time>
      </trkpt>
      <trkpt lat="48.04444" lon="7.0013">
        <ele>1108</ele>
        <time>2011-08-17T07:54:14Z</time>
      </trkpt>
      <trkpt lat="48.04446" lon="7.00139">
        <ele>1108</ele>
        <time>2011-08-17T07:54:18Z</time>
      </trkpt>
      <trkpt lat="48.04454" lon="7.00154">
        <ele>1107</ele>
        <time>2011-08-17T07:54:21Z</time>
      </trkpt>
      <trkpt lat="48.04458" lon="7.00192">
        <ele>1116</ele>
        <time>2011-08-17T07:54:34Z</time>
      </trkpt>
      <trkpt lat="48.04458" lon="7.00193">
        <ele>1116</ele>
        <time>2011-08-17T07:54:35Z</time>
      </trkpt>
      <trkpt lat="48.04459" lon="7.002">
        <ele>1116</ele>
        <time>2011-08-17T07:54:37Z</time>
      </trkpt>
      <trkpt lat="48.04458" lon="7.00222">
        <ele>1119</ele>
        <time>2011-08-17T07:54:44Z</time>
      </trkpt>
      <trkpt lat="48.0446" lon="7.00229">
        <ele>1118</ele>
        <time>2011-08-17T07:54:47Z</time>
      </trkpt>
      <trkpt lat="48.04467" lon="7.00249">
        <ele>1117</ele>
        <time>2011-08-17T07:54:54Z</time>
      </trkpt>
      <trkpt lat="48.04475" lon="7.00264">
        <ele>1126</ele>
        <time>2011-08-17T07:55:02Z</time>
      </trkpt>
      <trkpt lat="48.04481" lon="7.00278">
        <ele>1127</ele>
        <time>2011-08-17T07:55:17Z</time>
      </trkpt>
      <trkpt lat="48.04484" lon="7.00282">
        <ele>1128</ele>
        <time>2011-08-17T07:55:22Z</time>
      </trkpt>
      <trkpt lat="48.04494" lon="7.00301">
        <ele>1130</ele>
        <time>2011-08-17T07:55:36Z</time>
      </trkpt>
      <trkpt lat="48.04495" lon="7.00314">
        <ele>1130</ele>
        <time>2011-08-17T07:55:51Z</time>
      </trkpt>
      <trkpt lat="48.04502" lon="7.0032">
        <ele>1113</ele>
        <time>2011-08-17T07:55:58Z</time>
      </trkpt>
      <trkpt lat="48.04508" lon="7.00322">
        <ele>1113</ele>
        <time>2011-08-17T07:56:10Z</time>
      </trkpt>
      <trkpt lat="48.04513" lon="7.00326">
        <ele>1112</ele>
        <time>2011-08-17T07:56:16Z</time>
      </trkpt>
      <trkpt lat="48.04536" lon="7.00341">
        <ele>1123</ele>
        <time>2011-08-17T07:56:32Z</time>
      </trkpt>
      <trkpt lat="48.04548" lon="7.00352">
        <ele>1121</ele>
        <time>2011-08-17T07:56:44Z</time>
      </trkpt>
      <trkpt lat="48.04557" lon="7.00361">
        <ele>1120</ele>
        <time>2011-08-17T07:57:02Z</time>
      </trkpt>
      <trkpt lat="48.04564" lon="7.00365">
        <ele>1120</ele>
        <time>2011-08-17T07:57:13Z</time>
      </trkpt>
      <trkpt lat="48.0457" lon="7.0037">
        <ele>1121</ele>
        <time>2011-08-17T07:57:23Z</time>
      </trkpt>
      <trkpt lat="48.0458" lon="7.00379">
        <ele>1122</ele>
        <time>2011-08-17T07:57:36Z</time>
      </trkpt>
      <trkpt lat="48.04584" lon="7.00383">
        <ele>1106</ele>
        <time>2011-08-17T07:57:41Z</time>
      </trkpt>
      <trkpt lat="48.04599" lon="7.00386">
        <ele>1105</ele>
        <time>2011-08-17T07:57:52Z</time>
      </trkpt>
      <trkpt lat="48.04615" lon="7.00398">
        <ele>1105</ele>
        <time>2011-08-17T07:58:06Z</time>
      </trkpt>
      <trkpt lat="48.04628" lon="7.00421">
        <ele>1130</ele>
        <time>2011-08-17T07:58:16Z</time>
      </trkpt>
      <trkpt lat="48.04632" lon="7.00427">
        <ele>1130</ele>
        <time>2011-08-17T07:58:25Z</time>
      </trkpt>
      <trkpt lat="48.04639" lon="7.00431">
        <ele>1129</ele>
        <time>2011-08-17T07:58:34Z</time>
      </trkpt>
      <trkpt lat="48.04646" lon="7.00434">
        <ele>1128</ele>
        <time>2011-08-17T07:58:43Z</time>
      </trkpt>
      <trkpt lat="48.0467" lon="7.00438">
        <ele>1119</ele>
        <time>2011-08-17T07:58:56Z</time>
      </trkpt>
      <trkpt lat="48.04686" lon="7.00438">
        <ele>1120</ele>
        <time>2011-08-17T07:59:05Z</time>
      </trkpt>
      <trkpt lat="48.04696" lon="7.00442">
        <ele>1122</ele>
        <time>2011-08-17T07:59:10Z</time>
      </trkpt>
      <trkpt lat="48.04699" lon="7.00442">
        <ele>1122</ele>
        <time>2011-08-17T07:59:16Z</time>
      </trkpt>
      <trkpt lat="48.0472" lon="7.00445">
        <ele>1122</ele>
        <time>2011-08-17T07:59:25Z</time>
      </trkpt>
      <trkpt lat="48.04733" lon="7.00452">
        <ele>1123</ele>
        <time>2011-08-17T07:59:35Z</time>
      </trkpt>
      <trkpt lat="48.04741" lon="7.00454">
        <ele>1123</ele>
        <time>2011-08-17T07:59:51Z</time>
      </trkpt>
      <trkpt lat="48.04757" lon="7.00456">
        <ele>1122</ele>
        <time>2011-08-17T08:00:06Z</time>
      </trkpt>
      <trkpt lat="48.04788" lon="7.00452">
        <ele>1121</ele>
        <time>2011-08-17T08:00:15Z</time>
      </trkpt>
      <trkpt lat="48.04824" lon="7.00443">
        <ele>1118</ele>
        <time>2011-08-17T08:00:24Z</time>
      </trkpt>
      <trkpt lat="48.04856" lon="7.00436">
        <ele>1116</ele>
        <time>2011-08-17T08:00:34Z</time>
      </trkpt>
      <trkpt lat="48.04906" lon="7.00437">
        <ele>1114</ele>
        <time>2011-08-17T08:00:45Z</time>
      </trkpt>
      <trkpt lat="48.04957" lon="7.00426">
        <ele>1111</ele>
        <time>2011-08-17T08:00:59Z</time>
      </trkpt>
      <trkpt lat="48.04982" lon="7.00423">
        <ele>1109</ele>
        <time>2011-08-17T08:01:08Z</time>
      </trkpt>
      <trkpt lat="48.0502" lon="7.00438">
        <ele>1110</ele>
        <time>2011-08-17T08:01:24Z</time>
      </trkpt>
      <trkpt lat="48.05038" lon="7.00449">
        <ele>1112</ele>
        <time>2011-08-17T08:01:34Z</time>
      </trkpt>
      <trkpt lat="48.05064" lon="7.00464">
        <ele>1113</ele>
        <time>2011-08-17T08:01:46Z</time>
      </trkpt>
      <trkpt lat="48.05069" lon="7.00465">
        <ele>1113</ele>
        <time>2011-08-17T08:01:49Z</time>
      </trkpt>
      <trkpt lat="48.05089" lon="7.00471">
        <ele>1114</ele>
        <time>2011-08-17T08:01:59Z</time>
      </trkpt>
      <trkpt lat="48.051" lon="7.00471">
        <ele>1114</ele>
        <time>2011-08-17T08:02:06Z</time>
      </trkpt>
      <trkpt lat="48.05103" lon="7.00473">
        <ele>1114</ele>
        <time>2011-08-17T08:02:09Z</time>
      </trkpt>
      <trkpt lat="48.05134" lon="7.00476">
        <ele>1114</ele>
        <time>2011-08-17T08:02:21Z</time>
      </trkpt>
      <trkpt lat="48.05139" lon="7.00476">
        <ele>1114</ele>
        <time>2011-08-17T08:02:23Z</time>
      </trkpt>
      <trkpt lat="48.05171" lon="7.0048">
        <ele>1114</ele>
        <time>2011-08-17T08:02:33Z</time>
      </trkpt>
      <trkpt lat="48.05187" lon="7.00484">
        <ele>1114</ele>
        <time>2011-08-17T08:02:39Z</time>
      </trkpt>
      <trkpt lat="48.05218" lon="7.00498">
        <ele>1113</ele>
        <time>2011-08-17T08:02:50Z</time>
      </trkpt>
      <trkpt lat="48.05232" lon="7.00501">
        <ele>1121</ele>
        <time>2011-08-17T08:02:55Z</time>
      </trkpt>
      <trkpt lat="48.05263" lon="7.00513">
        <ele>1118</ele>
        <time>2011-08-17T08:03:06Z</time>
      </trkpt>
      <trkpt lat="48.05274" lon="7.00521">
        <ele>1118</ele>
        <time>2011-08-17T08:03:10Z</time>
      </trkpt>
      <trkpt lat="48.05286" lon="7.00527">
        <ele>1118</ele>
        <time>2011-08-17T08:03:15Z</time>
      </trkpt>
      <trkpt lat="48.05309" lon="7.00557">
        <ele>1120</ele>
        <time>2011-08-17T08:03:23Z</time>
      </trkpt>
      <trkpt lat="48.05317" lon="7.00563">
        <ele>1120</ele>
        <time>2011-08-17T08:03:39Z</time>
      </trkpt>
      <trkpt lat="48.0532" lon="7.00568">
        <ele>1120</ele>
        <time>2011-08-17T08:03:56Z</time>
      </trkpt>
      <trkpt lat="48.05336" lon="7.00548">
        <ele>1116</ele>
        <time>2011-08-17T08:04:04Z</time>
      </trkpt>
      <trkpt lat="48.05341" lon="7.0054">
        <ele>1115</ele>
        <time>2011-08-17T08:04:07Z</time>
      </trkpt>
      <trkpt lat="48.05379" lon="7.00521">
        <ele>1114</ele>
        <time>2011-08-17T08:04:24Z</time>
      </trkpt>
      <trkpt lat="48.05381" lon="7.00544">
        <ele>1116</ele>
        <time>2011-08-17T08:04:36Z</time>
      </trkpt>
      <trkpt lat="48.05379" lon="7.00549">
        <ele>1116</ele>
        <time>2011-08-17T08:04:39Z</time>
      </trkpt>
      <trkpt lat="48.0537" lon="7.00578">
        <ele>1118</ele>
        <time>2011-08-17T08:04:53Z</time>
      </trkpt>
      <trkpt lat="48.05358" lon="7.00614">
        <ele>1129</ele>
        <time>2011-08-17T08:05:11Z</time>
      </trkpt>
      <trkpt lat="48.05337" lon="7.00642">
        <ele>1133</ele>
        <time>2011-08-17T08:05:30Z</time>
      </trkpt>
      <trkpt lat="48.05306" lon="7.0065">
        <ele>1137</ele>
        <time>2011-08-17T08:05:50Z</time>
      </trkpt>
      <trkpt lat="48.05292" lon="7.00651">
        <ele>1138</ele>
        <time>2011-08-17T08:06:00Z</time>
      </trkpt>
      <trkpt lat="48.05284" lon="7.0065">
        <ele>1139</ele>
        <time>2011-08-17T08:06:07Z</time>
      </trkpt>
      <trkpt lat="48.05278" lon="7.00654">
        <ele>1140</ele>
        <time>2011-08-17T08:06:12Z</time>
      </trkpt>
      <trkpt lat="48.0526" lon="7.00657">
        <ele>1144</ele>
        <time>2011-08-17T08:06:24Z</time>
      </trkpt>
      <trkpt lat="48.05239" lon="7.00648">
        <ele>1147</ele>
        <time>2011-08-17T08:06:34Z</time>
      </trkpt>
      <trkpt lat="48.05223" lon="7.00649">
        <ele>1146</ele>
        <time>2011-08-17T08:06:45Z</time>
      </trkpt>
      <trkpt lat="48.0521" lon="7.0065">
        <ele>1147</ele>
        <time>2011-08-17T08:06:54Z</time>
      </trkpt>
      <trkpt lat="48.05204" lon="7.00652">
        <ele>1147</ele>
        <time>2011-08-17T08:06:59Z</time>
      </trkpt>
      <trkpt lat="48.052" lon="7.00655">
        <ele>1147</ele>
        <time>2011-08-17T08:07:03Z</time>
      </trkpt>
      <trkpt lat="48.0519" lon="7.00656">
        <ele>1148</ele>
        <time>2011-08-17T08:07:09Z</time>
      </trkpt>
      <trkpt lat="48.05186" lon="7.00659">
        <ele>1149</ele>
        <time>2011-08-17T08:07:12Z</time>
      </trkpt>
      <trkpt lat="48.05174" lon="7.00662">
        <ele>1152</ele>
        <time>2011-08-17T08:07:20Z</time>
      </trkpt>
      <trkpt lat="48.05155" lon="7.0067">
        <ele>1159</ele>
        <time>2011-08-17T08:07:34Z</time>
      </trkpt>
      <trkpt lat="48.05133" lon="7.0068">
        <ele>1162</ele>
        <time>2011-08-17T08:07:51Z</time>
      </trkpt>
      <trkpt lat="48.05116" lon="7.00688">
        <ele>1163</ele>
        <time>2011-08-17T08:08:05Z</time>
      </trkpt>
      <trkpt lat="48.05092" lon="7.00699">
        <ele>1164</ele>
        <time>2011-08-17T08:08:21Z</time>
      </trkpt>
      <trkpt lat="48.05073" lon="7.0071">
        <ele>1168</ele>
        <time>2011-08-17T08:08:29Z</time>
      </trkpt>
      <trkpt lat="48.05052" lon="7.00703">
        <ele>1168</ele>
        <time>2011-08-17T08:08:36Z</time>
      </trkpt>
      <trkpt lat="48.05035" lon="7.00702">
        <ele>1169</ele>
        <time>2011-08-17T08:08:49Z</time>
      </trkpt>
      <trkpt lat="48.05026" lon="7.00702">
        <ele>1169</ele>
        <time>2011-08-17T08:08:56Z</time>
      </trkpt>
      <trkpt lat="48.04997" lon="7.007">
        <ele>1173</ele>
        <time>2011-08-17T08:09:08Z</time>
      </trkpt>
      <trkpt lat="48.04961" lon="7.00693">
        <ele>1174</ele>
        <time>2011-08-17T08:09:26Z</time>
      </trkpt>
      <trkpt lat="48.0493" lon="7.0069">
        <ele>1175</ele>
        <time>2011-08-17T08:09:45Z</time>
      </trkpt>
      <trkpt lat="48.04922" lon="7.00689">
        <ele>1175</ele>
        <time>2011-08-17T08:09:52Z</time>
      </trkpt>
      <trkpt lat="48.04886" lon="7.00693">
        <ele>1186</ele>
        <time>2011-08-17T08:10:12Z</time>
      </trkpt>
      <trkpt lat="48.04885" lon="7.00693">
        <ele>1186</ele>
        <time>2011-08-17T08:10:13Z</time>
      </trkpt>
      <trkpt lat="48.04884" lon="7.00693">
        <ele>1186</ele>
        <time>2011-08-17T08:10:29Z</time>
      </trkpt>
      <trkpt lat="48.04874" lon="7.00691">
        <ele>1187</ele>
        <time>2011-08-17T08:11:00Z</time>
      </trkpt>
      <trkpt lat="48.04872" lon="7.00692">
        <ele>1187</ele>
        <time>2011-08-17T08:11:02Z</time>
      </trkpt>
      <trkpt lat="48.04859" lon="7.00691">
        <ele>1188</ele>
        <time>2011-08-17T08:11:09Z</time>
      </trkpt>
      <trkpt lat="48.04841" lon="7.00688">
        <ele>1189</ele>
        <time>2011-08-17T08:11:20Z</time>
      </trkpt>
      <trkpt lat="48.04821" lon="7.0068">
        <ele>1195</ele>
        <time>2011-08-17T08:11:31Z</time>
      </trkpt>
      <trkpt lat="48.048" lon="7.00678">
        <ele>1199</ele>
        <time>2011-08-17T08:11:43Z</time>
      </trkpt>
      <trkpt lat="48.04782" lon="7.00685">
        <ele>1201</ele>
        <time>2011-08-17T08:11:56Z</time>
      </trkpt>
      <trkpt lat="48.04778" lon="7.00684">
        <ele>1201</ele>
        <time>2011-08-17T08:11:58Z</time>
      </trkpt>
      <trkpt lat="48.04759" lon="7.00684">
        <ele>1202</ele>
        <time>2011-08-17T08:12:10Z</time>
      </trkpt>
      <trkpt lat="48.04745" lon="7.00685">
        <ele>1206</ele>
        <time>2011-08-17T08:12:20Z</time>
      </trkpt>
      <trkpt lat="48.04728" lon="7.00686">
        <ele>1208</ele>
        <time>2011-08-17T08:12:32Z</time>
      </trkpt>
      <trkpt lat="48.04722" lon="7.00686">
        <ele>1209</ele>
        <time>2011-08-17T08:12:36Z</time>
      </trkpt>
      <trkpt lat="48.04702" lon="7.00692">
        <ele>1210</ele>
        <time>2011-08-17T08:12:50Z</time>
      </trkpt>
      <trkpt lat="48.04701" lon="7.00693">
        <ele>1211</ele>
        <time>2011-08-17T08:12:51Z</time>
      </trkpt>
      <trkpt lat="48.04681" lon="7.00694">
        <ele>1211</ele>
        <time>2011-08-17T08:13:05Z</time>
      </trkpt>
      <trkpt lat="48.04678" lon="7.00694">
        <ele>1211</ele>
        <time>2011-08-17T08:13:07Z</time>
      </trkpt>
      <trkpt lat="48.0466" lon="7.00696">
        <ele>1216</ele>
        <time>2011-08-17T08:13:19Z</time>
      </trkpt>
      <trkpt lat="48.04656" lon="7.00696">
        <ele>1216</ele>
        <time>2011-08-17T08:13:23Z</time>
      </trkpt>
      <trkpt lat="48.04654" lon="7.00695">
        <ele>1217</ele>
        <time>2011-08-17T08:13:25Z</time>
      </trkpt>
      <trkpt lat="48.0465" lon="7.00696">
        <ele>1217</ele>
        <time>2011-08-17T08:13:28Z</time>
      </trkpt>
      <trkpt lat="48.04627" lon="7.00685">
        <ele>1218</ele>
        <time>2011-08-17T08:13:43Z</time>
      </trkpt>
      <trkpt lat="48.046" lon="7.00675">
        <ele>1218</ele>
        <time>2011-08-17T08:13:59Z</time>
      </trkpt>
      <trkpt lat="48.04583" lon="7.00667">
        <ele>1217</ele>
        <time>2011-08-17T08:14:08Z</time>
      </trkpt>
      <trkpt lat="48.04568" lon="7.00661">
        <ele>1217</ele>
        <time>2011-08-17T08:14:20Z</time>
      </trkpt>
      <trkpt lat="48.04558" lon="7.00657">
        <ele>1217</ele>
        <time>2011-08-17T08:14:24Z</time>
      </trkpt>
      <trkpt lat="48.04555" lon="7.00658">
        <ele>1218</ele>
        <time>2011-08-17T08:14:26Z</time>
      </trkpt>
      <trkpt lat="48.04538" lon="7.00654">
        <ele>1220</ele>
        <time>2011-08-17T08:14:36Z</time>
      </trkpt>
      <trkpt lat="48.04518" lon="7.00649">
        <ele>1223</ele>
        <time>2011-08-17T08:14:47Z</time>
      </trkpt>
      <trkpt lat="48.04494" lon="7.00641">
        <ele>1233</ele>
        <time>2011-08-17T08:15:01Z</time>
      </trkpt>
      <trkpt lat="48.04482" lon="7.0063">
        <ele>1233</ele>
        <time>2011-08-17T08:15:11Z</time>
      </trkpt>
      <trkpt lat="48.04456" lon="7.00611">
        <ele>1233</ele>
        <time>2011-08-17T08:15:27Z</time>
      </trkpt>
      <trkpt lat="48.04447" lon="7.00604">
        <ele>1233</ele>
        <time>2011-08-17T08:15:32Z</time>
      </trkpt>
      <trkpt lat="48.04431" lon="7.00604">
        <ele>1234</ele>
        <time>2011-08-17T08:15:40Z</time>
      </trkpt>
      <trkpt lat="48.04407" lon="7.00586">
        <ele>1239</ele>
        <time>2011-08-17T08:15:56Z</time>
      </trkpt>
      <trkpt lat="48.04383" lon="7.00568">
        <ele>1236</ele>
        <time>2011-08-17T08:16:14Z</time>
      </trkpt>
      <trkpt lat="48.04381" lon="7.00568">
        <ele>1237</ele>
        <time>2011-08-17T08:16:15Z</time>
      </trkpt>
      <trkpt lat="48.04379" lon="7.00567">
        <ele>1237</ele>
        <time>2011-08-17T08:16:17Z</time>
      </trkpt>
      <trkpt lat="48.04352" lon="7.00543">
        <ele>1238</ele>
        <time>2011-08-17T08:16:35Z</time>
      </trkpt>
      <trkpt lat="48.04329" lon="7.00533">
        <ele>1246</ele>
        <time>2011-08-17T08:16:48Z</time>
      </trkpt>
      <trkpt lat="48.04321" lon="7.00528">
        <ele>1246</ele>
        <time>2011-08-17T08:16:54Z</time>
      </trkpt>
      <trkpt lat="48.04307" lon="7.00522">
        <ele>1246</ele>
        <time>2011-08-17T08:17:06Z</time>
      </trkpt>
      <trkpt lat="48.04297" lon="7.0052">
        <ele>1247</ele>
        <time>2011-08-17T08:17:13Z</time>
      </trkpt>
      <trkpt lat="48.04293" lon="7.0052">
        <ele>1247</ele>
        <time>2011-08-17T08:17:15Z</time>
      </trkpt>
      <trkpt lat="48.04286" lon="7.0052">
        <ele>1247</ele>
        <time>2011-08-17T08:17:18Z</time>
      </trkpt>
      <trkpt lat="48.04267" lon="7.00525">
        <ele>1248</ele>
        <time>2011-08-17T08:17:30Z</time>
      </trkpt>
      <trkpt lat="48.04242" lon="7.00538">
        <ele>1250</ele>
        <time>2011-08-17T08:17:43Z</time>
      </trkpt>
      <trkpt lat="48.04233" lon="7.00548">
        <ele>1251</ele>
        <time>2011-08-17T08:17:50Z</time>
      </trkpt>
      <trkpt lat="48.04229" lon="7.00551">
        <ele>1251</ele>
        <time>2011-08-17T08:17:53Z</time>
      </trkpt>
      <trkpt lat="48.04211" lon="7.00573">
        <ele>1252</ele>
        <time>2011-08-17T08:18:07Z</time>
      </trkpt>
      <trkpt lat="48.04192" lon="7.00597">
        <ele>1259</ele>
        <time>2011-08-17T08:18:22Z</time>
      </trkpt>
      <trkpt lat="48.04174" lon="7.00619">
        <ele>1260</ele>
        <time>2011-08-17T08:18:36Z</time>
      </trkpt>
      <trkpt lat="48.04156" lon="7.00652">
        <ele>1258</ele>
        <time>2011-08-17T08:18:55Z</time>
      </trkpt>
      <trkpt lat="48.04138" lon="7.007">
        <ele>1263</ele>
        <time>2011-08-17T08:19:19Z</time>
      </trkpt>
      <trkpt lat="48.0413" lon="7.00737">
        <ele>1264</ele>
        <time>2011-08-17T08:19:36Z</time>
      </trkpt>
      <trkpt lat="48.04118" lon="7.00786">
        <ele>1271</ele>
        <time>2011-08-17T08:19:57Z</time>
      </trkpt>
      <trkpt lat="48.04113" lon="7.00846">
        <ele>1277</ele>
        <time>2011-08-17T08:20:19Z</time>
      </trkpt>
      <trkpt lat="48.0411" lon="7.00894">
        <ele>1278</ele>
        <time>2011-08-17T08:20:37Z</time>
      </trkpt>
      <trkpt lat="48.04113" lon="7.00942">
        <ele>1283</ele>
        <time>2011-08-17T08:20:56Z</time>
      </trkpt>
      <trkpt lat="48.04118" lon="7.00984">
        <ele>1284</ele>
        <time>2011-08-17T08:21:13Z</time>
      </trkpt>
      <trkpt lat="48.04119" lon="7.00987">
        <ele>1284</ele>
        <time>2011-08-17T08:21:26Z</time>
      </trkpt>
      <trkpt lat="48.04119" lon="7.00988">
        <ele>1284</ele>
        <time>2011-08-17T08:21:35Z</time>
      </trkpt>
      <trkpt lat="48.0413" lon="7.01031">
        <ele>1289</ele>
        <time>2011-08-17T08:21:54Z</time>
      </trkpt>
      <trkpt lat="48.04137" lon="7.01078">
        <ele>1291</ele>
        <time>2011-08-17T08:22:14Z</time>
      </trkpt>
      <trkpt lat="48.04154" lon="7.01094">
        <ele>1293</ele>
        <time>2011-08-17T08:22:27Z</time>
      </trkpt>
      <trkpt lat="48.0418" lon="7.01108">
        <ele>1291</ele>
        <time>2011-08-17T08:22:36Z</time>
      </trkpt>
      <trkpt lat="48.04184" lon="7.01112">
        <ele>1291</ele>
        <time>2011-08-17T08:22:49Z</time>
      </trkpt>
      <trkpt lat="48.04183" lon="7.01116">
        <ele>1290</ele>
        <time>2011-08-17T08:24:24Z</time>
      </trkpt>
      <trkpt lat="48.04183" lon="7.01114">
        <ele>1290</ele>
        <time>2011-08-17T08:24:55Z</time>
      </trkpt>
      <trkpt lat="48.04184" lon="7.01114">
        <ele>1291</ele>
        <time>2011-08-17T08:26:05Z</time>
      </trkpt>
      <trkpt lat="48.04183" lon="7.01113">
        <ele>1291</ele>
        <time>2011-08-17T08:26:30Z</time>
      </trkpt>
      <trkpt lat="48.04183" lon="7.01112">
        <ele>1291</ele>
        <time>2011-08-17T08:28:26Z</time>
      </trkpt>
      <trkpt lat="48.04172" lon="7.01109">
        <ele>1291</ele>
        <time>2011-08-17T08:28:37Z</time>
      </trkpt>
      <trkpt lat="48.04162" lon="7.01099">
        <ele>1293</ele>
        <time>2011-08-17T08:28:44Z</time>
      </trkpt>
      <trkpt lat="48.04136" lon="7.01086">
        <ele>1293</ele>
        <time>2011-08-17T08:29:02Z</time>
      </trkpt>
      <trkpt lat="48.04133" lon="7.0108">
        <ele>1291</ele>
        <time>2011-08-17T08:29:16Z</time>
      </trkpt>
      <trkpt lat="48.0413" lon="7.01078">
        <ele>1291</ele>
        <time>2011-08-17T08:29:27Z</time>
      </trkpt>
      <trkpt lat="48.04124" lon="7.01078">
        <ele>1291</ele>
        <time>2011-08-17T08:29:46Z</time>
      </trkpt>
      <trkpt lat="48.04104" lon="7.01076">
        <ele>1291</ele>
        <time>2011-08-17T08:29:56Z</time>
      </trkpt>
      <trkpt lat="48.04077" lon="7.01082">
        <ele>1290</ele>
        <time>2011-08-17T08:30:09Z</time>
      </trkpt>
      <trkpt lat="48.04072" lon="7.01081">
        <ele>1289</ele>
        <time>2011-08-17T08:30:11Z</time>
      </trkpt>
      <trkpt lat="48.0404" lon="7.01095">
        <ele>1295</ele>
        <time>2011-08-17T08:30:29Z</time>
      </trkpt>
      <trkpt lat="48.04014" lon="7.01108">
        <ele>1295</ele>
        <time>2011-08-17T08:30:45Z</time>
      </trkpt>
      <trkpt lat="48.03978" lon="7.01126">
        <ele>1296</ele>
        <time>2011-08-17T08:31:05Z</time>
      </trkpt>
      <trkpt lat="48.03958" lon="7.01132">
        <ele>1297</ele>
        <time>2011-08-17T08:31:16Z</time>
      </trkpt>
      <trkpt lat="48.03956" lon="7.01127">
        <ele>1296</ele>
        <time>2011-08-17T08:31:21Z</time>
      </trkpt>
      <trkpt lat="48.03965" lon="7.01096">
        <ele>1294</ele>
        <time>2011-08-17T08:31:27Z</time>
      </trkpt>
      <trkpt lat="48.03959" lon="7.0109">
        <ele>1293</ele>
        <time>2011-08-17T08:31:33Z</time>
      </trkpt>
      <trkpt lat="48.03921" lon="7.01089">
        <ele>1290</ele>
        <time>2011-08-17T08:31:51Z</time>
      </trkpt>
      <trkpt lat="48.03907" lon="7.01091">
        <ele>1291</ele>
        <time>2011-08-17T08:31:58Z</time>
      </trkpt>
      <trkpt lat="48.03885" lon="7.0109">
        <ele>1293</ele>
        <time>2011-08-17T08:32:10Z</time>
      </trkpt>
      <trkpt lat="48.03867" lon="7.01086">
        <ele>1293</ele>
        <time>2011-08-17T08:32:18Z</time>
      </trkpt>
      <trkpt lat="48.0386" lon="7.01086">
        <ele>1292</ele>
        <time>2011-08-17T08:32:27Z</time>
      </trkpt>
      <trkpt lat="48.03838" lon="7.01084">
        <ele>1289</ele>
        <time>2011-08-17T08:32:38Z</time>
      </trkpt>
      <trkpt lat="48.03792" lon="7.01086">
        <ele>1292</ele>
        <time>2011-08-17T08:32:53Z</time>
      </trkpt>
      <trkpt lat="48.03768" lon="7.01086">
        <ele>1290</ele>
        <time>2011-08-17T08:33:04Z</time>
      </trkpt>
      <trkpt lat="48.03741" lon="7.01084">
        <ele>1287</ele>
        <time>2011-08-17T08:33:19Z</time>
      </trkpt>
      <trkpt lat="48.03723" lon="7.01082">
        <ele>1281</ele>
        <time>2011-08-17T08:33:27Z</time>
      </trkpt>
      <trkpt lat="48.03673" lon="7.01072">
        <ele>1281</ele>
        <time>2011-08-17T08:33:44Z</time>
      </trkpt>
      <trkpt lat="48.03656" lon="7.01072">
        <ele>1280</ele>
        <time>2011-08-17T08:33:54Z</time>
      </trkpt>
      <trkpt lat="48.03653" lon="7.01074">
        <ele>1280</ele>
        <time>2011-08-17T08:34:17Z</time>
      </trkpt>
      <trkpt lat="48.0365" lon="7.01074">
        <ele>1280</ele>
        <time>2011-08-17T08:34:36Z</time>
      </trkpt>
      <trkpt lat="48.03649" lon="7.01074">
        <ele>1280</ele>
        <time>2011-08-17T08:34:37Z</time>
      </trkpt>
      <trkpt lat="48.03643" lon="7.01074">
        <ele>1279</ele>
        <time>2011-08-17T08:34:41Z</time>
      </trkpt>
      <trkpt lat="48.03603" lon="7.01101">
        <ele>1284</ele>
        <time>2011-08-17T08:35:02Z</time>
      </trkpt>
      <trkpt lat="48.03602" lon="7.01103">
        <ele>1284</ele>
        <time>2011-08-17T08:35:03Z</time>
      </trkpt>
      <trkpt lat="48.03597" lon="7.01104">
        <ele>1283</ele>
        <time>2011-08-17T08:35:16Z</time>
      </trkpt>
      <trkpt lat="48.03595" lon="7.01101">
        <ele>1283</ele>
        <time>2011-08-17T08:35:36Z</time>
      </trkpt>
      <trkpt lat="48.03578" lon="7.01094">
        <ele>1278</ele>
        <time>2011-08-17T08:35:41Z</time>
      </trkpt>
      <trkpt lat="48.03523" lon="7.01085">
        <ele>1275</ele>
        <time>2011-08-17T08:35:49Z</time>
      </trkpt>
      <trkpt lat="48.03493" lon="7.01061">
        <ele>1273</ele>
        <time>2011-08-17T08:35:55Z</time>
      </trkpt>
      <trkpt lat="48.03487" lon="7.01064">
        <ele>1273</ele>
        <time>2011-08-17T08:36:08Z</time>
      </trkpt>
      <trkpt lat="48.03482" lon="7.01072">
        <ele>1272</ele>
        <time>2011-08-17T08:36:18Z</time>
      </trkpt>
      <trkpt lat="48.03475" lon="7.01102">
        <ele>1266</ele>
        <time>2011-08-17T08:36:37Z</time>
      </trkpt>
      <trkpt lat="48.03473" lon="7.01102">
        <ele>1266</ele>
        <time>2011-08-17T08:38:08Z</time>
      </trkpt>
      <trkpt lat="48.03444" lon="7.01071">
        <ele>1272</ele>
        <time>2011-08-17T08:38:28Z</time>
      </trkpt>
      <trkpt lat="48.03423" lon="7.01057">
        <ele>1273</ele>
        <time>2011-08-17T08:38:44Z</time>
      </trkpt>
      <trkpt lat="48.03394" lon="7.01039">
        <ele>1282</ele>
        <time>2011-08-17T08:39:07Z</time>
      </trkpt>
      <trkpt lat="48.03376" lon="7.01032">
        <ele>1284</ele>
        <time>2011-08-17T08:39:25Z</time>
      </trkpt>
      <trkpt lat="48.03374" lon="7.01033">
        <ele>1284</ele>
        <time>2011-08-17T08:39:32Z</time>
      </trkpt>
      <trkpt lat="48.03348" lon="7.01033">
        <ele>1286</ele>
        <time>2011-08-17T08:39:50Z</time>
      </trkpt>
      <trkpt lat="48.03315" lon="7.01054">
        <ele>1291</ele>
        <time>2011-08-17T08:40:08Z</time>
      </trkpt>
      <trkpt lat="48.03284" lon="7.01095">
        <ele>1284</ele>
        <time>2011-08-17T08:40:24Z</time>
      </trkpt>
      <trkpt lat="48.03282" lon="7.01098">
        <ele>1284</ele>
        <time>2011-08-17T08:40:34Z</time>
      </trkpt>
      <trkpt lat="48.03274" lon="7.01113">
        <ele>1283</ele>
        <time>2011-08-17T08:40:40Z</time>
      </trkpt>
      <trkpt lat="48.03265" lon="7.01138">
        <ele>1283</ele>
        <time>2011-08-17T08:40:44Z</time>
      </trkpt>
      <trkpt lat="48.03253" lon="7.01174">
        <ele>1282</ele>
        <time>2011-08-17T08:40:50Z</time>
      </trkpt>
      <trkpt lat="48.0324" lon="7.01198">
        <ele>1289</ele>
        <time>2011-08-17T08:40:56Z</time>
      </trkpt>
      <trkpt lat="48.03234" lon="7.01203">
        <ele>1289</ele>
        <time>2011-08-17T08:41:10Z</time>
      </trkpt>
      <trkpt lat="48.03235" lon="7.01202">
        <ele>1289</ele>
        <time>2011-08-17T08:41:46Z</time>
      </trkpt>
      <trkpt lat="48.03236" lon="7.01204">
        <ele>1289</ele>
        <time>2011-08-17T08:41:53Z</time>
      </trkpt>
      <trkpt lat="48.03214" lon="7.01238">
        <ele>1288</ele>
        <time>2011-08-17T08:42:05Z</time>
      </trkpt>
      <trkpt lat="48.032" lon="7.01244">
        <ele>1291</ele>
        <time>2011-08-17T08:42:11Z</time>
      </trkpt>
      <trkpt lat="48.03169" lon="7.01282">
        <ele>1282</ele>
        <time>2011-08-17T08:42:21Z</time>
      </trkpt>
      <trkpt lat="48.03147" lon="7.01335">
        <ele>1276</ele>
        <time>2011-08-17T08:42:32Z</time>
      </trkpt>
      <trkpt lat="48.0314" lon="7.01351">
        <ele>1273</ele>
        <time>2011-08-17T08:42:36Z</time>
      </trkpt>
      <trkpt lat="48.03135" lon="7.01355">
        <ele>1272</ele>
        <time>2011-08-17T08:42:40Z</time>
      </trkpt>
      <trkpt lat="48.03111" lon="7.01333">
        <ele>1278</ele>
        <time>2011-08-17T08:42:53Z</time>
      </trkpt>
      <trkpt lat="48.03079" lon="7.01277">
        <ele>1267</ele>
        <time>2011-08-17T08:43:05Z</time>
      </trkpt>
      <trkpt lat="48.03073" lon="7.01262">
        <ele>1272</ele>
        <time>2011-08-17T08:43:08Z</time>
      </trkpt>
      <trkpt lat="48.03047" lon="7.01205">
        <ele>1281</ele>
        <time>2011-08-17T08:43:21Z</time>
      </trkpt>
      <trkpt lat="48.03007" lon="7.01159">
        <ele>1288</ele>
        <time>2011-08-17T08:43:34Z</time>
      </trkpt>
      <trkpt lat="48.02975" lon="7.01135">
        <ele>1282</ele>
        <time>2011-08-17T08:43:42Z</time>
      </trkpt>
      <trkpt lat="48.02963" lon="7.01121">
        <ele>1281</ele>
        <time>2011-08-17T08:43:45Z</time>
      </trkpt>
      <trkpt lat="48.02949" lon="7.01111">
        <ele>1281</ele>
        <time>2011-08-17T08:43:48Z</time>
      </trkpt>
      <trkpt lat="48.02924" lon="7.01072">
        <ele>1284</ele>
        <time>2011-08-17T08:43:57Z</time>
      </trkpt>
      <trkpt lat="48.02922" lon="7.01067">
        <ele>1285</ele>
        <time>2011-08-17T08:43:58Z</time>
      </trkpt>
      <trkpt lat="48.02914" lon="7.01048">
        <ele>1269</ele>
        <time>2011-08-17T08:44:01Z</time>
      </trkpt>
      <trkpt lat="48.02907" lon="7.01024">
        <ele>1270</ele>
        <time>2011-08-17T08:44:04Z</time>
      </trkpt>
      <trkpt lat="48.02899" lon="7.0098">
        <ele>1274</ele>
        <time>2011-08-17T08:44:10Z</time>
      </trkpt>
      <trkpt lat="48.02894" lon="7.00949">
        <ele>1273</ele>
        <time>2011-08-17T08:44:15Z</time>
      </trkpt>
      <trkpt lat="48.02888" lon="7.00934">
        <ele>1274</ele>
        <time>2011-08-17T08:44:19Z</time>
      </trkpt>
      <trkpt lat="48.02885" lon="7.00932">
        <ele>1273</ele>
        <time>2011-08-17T08:44:21Z</time>
      </trkpt>
      <trkpt lat="48.02882" lon="7.00923">
        <ele>1273</ele>
        <time>2011-08-17T08:44:24Z</time>
      </trkpt>
      <trkpt lat="48.02867" lon="7.00899">
        <ele>1277</ele>
        <time>2011-08-17T08:44:36Z</time>
      </trkpt>
      <trkpt lat="48.02864" lon="7.00898">
        <ele>1276</ele>
        <time>2011-08-17T08:44:49Z</time>
      </trkpt>
      <trkpt lat="48.02866" lon="7.00894">
        <ele>1277</ele>
        <time>2011-08-17T08:44:55Z</time>
      </trkpt>
      <trkpt lat="48.02867" lon="7.00886">
        <ele>1277</ele>
        <time>2011-08-17T08:45:06Z</time>
      </trkpt>
      <trkpt lat="48.02872" lon="7.00843">
        <ele>1279</ele>
        <time>2011-08-17T08:45:22Z</time>
      </trkpt>
      <trkpt lat="48.02876" lon="7.00802">
        <ele>1281</ele>
        <time>2011-08-17T08:45:39Z</time>
      </trkpt>
      <trkpt lat="48.02879" lon="7.00761">
        <ele>1281</ele>
        <time>2011-08-17T08:45:56Z</time>
      </trkpt>
      <trkpt lat="48.02879" lon="7.00758">
        <ele>1281</ele>
        <time>2011-08-17T08:45:58Z</time>
      </trkpt>
      <trkpt lat="48.02874" lon="7.00752">
        <ele>1282</ele>
        <time>2011-08-17T08:46:05Z</time>
      </trkpt>
      <trkpt lat="48.02851" lon="7.00762">
        <ele>1283</ele>
        <time>2011-08-17T08:46:22Z</time>
      </trkpt>
      <trkpt lat="48.02837" lon="7.00766">
        <ele>1283</ele>
        <time>2011-08-17T08:46:31Z</time>
      </trkpt>
      <trkpt lat="48.02813" lon="7.00771">
        <ele>1285</ele>
        <time>2011-08-17T08:46:50Z</time>
      </trkpt>
      <trkpt lat="48.02812" lon="7.00771">
        <ele>1285</ele>
        <time>2011-08-17T08:46:52Z</time>
      </trkpt>
      <trkpt lat="48.02795" lon="7.00756">
        <ele>1285</ele>
        <time>2011-08-17T08:47:06Z</time>
      </trkpt>
      <trkpt lat="48.02791" lon="7.00753">
        <ele>1285</ele>
        <time>2011-08-17T08:47:09Z</time>
      </trkpt>
      <trkpt lat="48.02783" lon="7.0075">
        <ele>1286</ele>
        <time>2011-08-17T08:47:15Z</time>
      </trkpt>
      <trkpt lat="48.0278" lon="7.00747">
        <ele>1288</ele>
        <time>2011-08-17T08:47:18Z</time>
      </trkpt>
      <trkpt lat="48.02741" lon="7.0071">
        <ele>1293</ele>
        <time>2011-08-17T08:47:46Z</time>
      </trkpt>
      <trkpt lat="48.02717" lon="7.00685">
        <ele>1294</ele>
        <time>2011-08-17T08:48:04Z</time>
      </trkpt>
      <trkpt lat="48.02688" lon="7.00654">
        <ele>1297</ele>
        <time>2011-08-17T08:48:28Z</time>
      </trkpt>
      <trkpt lat="48.02662" lon="7.0063">
        <ele>1302</ele>
        <time>2011-08-17T08:48:47Z</time>
      </trkpt>
      <trkpt lat="48.02637" lon="7.00608">
        <ele>1303</ele>
        <time>2011-08-17T08:49:08Z</time>
      </trkpt>
      <trkpt lat="48.02626" lon="7.00596">
        <ele>1304</ele>
        <time>2011-08-17T08:49:24Z</time>
      </trkpt>
      <trkpt lat="48.02623" lon="7.00594">
        <ele>1304</ele>
        <time>2011-08-17T08:49:28Z</time>
      </trkpt>
      <trkpt lat="48.0262" lon="7.00594">
        <ele>1304</ele>
        <time>2011-08-17T08:49:32Z</time>
      </trkpt>
      <trkpt lat="48.02616" lon="7.0059">
        <ele>1305</ele>
        <time>2011-08-17T08:49:50Z</time>
      </trkpt>
      <trkpt lat="48.02599" lon="7.00565">
        <ele>1307</ele>
        <time>2011-08-17T08:50:05Z</time>
      </trkpt>
      <trkpt lat="48.02565" lon="7.00526">
        <ele>1311</ele>
        <time>2011-08-17T08:50:30Z</time>
      </trkpt>
      <trkpt lat="48.02537" lon="7.00495">
        <ele>1314</ele>
        <time>2011-08-17T08:50:50Z</time>
      </trkpt>
      <trkpt lat="48.02504" lon="7.00459">
        <ele>1315</ele>
        <time>2011-08-17T08:51:14Z</time>
      </trkpt>
      <trkpt lat="48.02479" lon="7.00434">
        <ele>1318</ele>
        <time>2011-08-17T08:51:33Z</time>
      </trkpt>
      <trkpt lat="48.02448" lon="7.00401">
        <ele>1321</ele>
        <time>2011-08-17T08:51:56Z</time>
      </trkpt>
      <trkpt lat="48.02406" lon="7.00354">
        <ele>1326</ele>
        <time>2011-08-17T08:52:23Z</time>
      </trkpt>
      <trkpt lat="48.02368" lon="7.00312">
        <ele>1330</ele>
        <time>2011-08-17T08:52:49Z</time>
      </trkpt>
      <trkpt lat="48.02333" lon="7.00273">
        <ele>1335</ele>
        <time>2011-08-17T08:53:16Z</time>
      </trkpt>
      <trkpt lat="48.02307" lon="7.00244">
        <ele>1336</ele>
        <time>2011-08-17T08:53:36Z</time>
      </trkpt>
      <trkpt lat="48.02275" lon="7.00209">
        <ele>1337</ele>
        <time>2011-08-17T08:53:59Z</time>
      </trkpt>
      <trkpt lat="48.02266" lon="7.002">
        <ele>1337</ele>
        <time>2011-08-17T08:54:05Z</time>
      </trkpt>
      <trkpt lat="48.02237" lon="7.00185">
        <ele>1342</ele>
        <time>2011-08-17T08:54:23Z</time>
      </trkpt>
      <trkpt lat="48.02197" lon="7.00174">
        <ele>1344</ele>
        <time>2011-08-17T08:54:43Z</time>
      </trkpt>
      <trkpt lat="48.0218" lon="7.0014">
        <ele>1345</ele>
        <time>2011-08-17T08:54:57Z</time>
      </trkpt>
      <trkpt lat="48.02153" lon="7.00077">
        <ele>1345</ele>
        <time>2011-08-17T08:55:15Z</time>
      </trkpt>
      <trkpt lat="48.02122" lon="7.00007">
        <ele>1344</ele>
        <time>2011-08-17T08:55:35Z</time>
      </trkpt>
      <trkpt lat="48.02115" lon="6.99993">
        <ele>1343</ele>
        <time>2011-08-17T08:55:40Z</time>
      </trkpt>
      <trkpt lat="48.02115" lon="6.99984">
        <ele>1343</ele>
        <time>2011-08-17T08:55:43Z</time>
      </trkpt>
      <trkpt lat="48.02114" lon="6.99982">
        <ele>1343</ele>
        <time>2011-08-17T08:56:02Z</time>
      </trkpt>
      <trkpt lat="48.02114" lon="6.99982">
        <ele>1343</ele>
        <time>2011-08-17T08:56:46Z</time>
      </trkpt>
      <trkpt lat="48.02115" lon="6.9998">
        <ele>1343</ele>
        <time>2011-08-17T08:57:51Z</time>
      </trkpt>
      <trkpt lat="48.02115" lon="6.9998">
        <ele>1343</ele>
        <time>2011-08-17T08:58:14Z</time>
      </trkpt>
      <trkpt lat="48.0212" lon="6.99931">
        <ele>1342</ele>
        <time>2011-08-17T08:58:26Z</time>
      </trkpt>
      <trkpt lat="48.02127" lon="6.99852">
        <ele>1338</ele>
        <time>2011-08-17T08:58:38Z</time>
      </trkpt>
      <trkpt lat="48.02136" lon="6.99765">
        <ele>1330</ele>
        <time>2011-08-17T08:58:49Z</time>
      </trkpt>
      <trkpt lat="48.02139" lon="6.99733">
        <ele>1323</ele>
        <time>2011-08-17T08:58:53Z</time>
      </trkpt>
      <trkpt lat="48.02125" lon="6.99643">
        <ele>1310</ele>
        <time>2011-08-17T08:59:05Z</time>
      </trkpt>
      <trkpt lat="48.02114" lon="6.99588">
        <ele>1306</ele>
        <time>2011-08-17T08:59:15Z</time>
      </trkpt>
      <trkpt lat="48.02113" lon="6.99581">
        <ele>1300</ele>
        <time>2011-08-17T08:59:16Z</time>
      </trkpt>
      <trkpt lat="48.02109" lon="6.99564">
        <ele>1299</ele>
        <time>2011-08-17T08:59:19Z</time>
      </trkpt>
      <trkpt lat="48.02095" lon="6.99489">
        <ele>1293</ele>
        <time>2011-08-17T08:59:31Z</time>
      </trkpt>
      <trkpt lat="48.02093" lon="6.99465">
        <ele>1291</ele>
        <time>2011-08-17T08:59:40Z</time>
      </trkpt>
      <trkpt lat="48.02086" lon="6.9943">
        <ele>1288</ele>
        <time>2011-08-17T08:59:50Z</time>
      </trkpt>
      <trkpt lat="48.02075" lon="6.99367">
        <ele>1278</ele>
        <time>2011-08-17T09:00:02Z</time>
      </trkpt>
      <trkpt lat="48.02064" lon="6.99314">
        <ele>1275</ele>
        <time>2011-08-17T09:00:13Z</time>
      </trkpt>
      <trkpt lat="48.02051" lon="6.9928">
        <ele>1274</ele>
        <time>2011-08-17T09:00:23Z</time>
      </trkpt>
      <trkpt lat="48.02046" lon="6.99267">
        <ele>1273</ele>
        <time>2011-08-17T09:00:30Z</time>
      </trkpt>
      <trkpt lat="48.02024" lon="6.99223">
        <ele>1274</ele>
        <time>2011-08-17T09:00:42Z</time>
      </trkpt>
      <trkpt lat="48.01992" lon="6.99175">
        <ele>1269</ele>
        <time>2011-08-17T09:00:56Z</time>
      </trkpt>
      <trkpt lat="48.0198" lon="6.99129">
        <ele>1269</ele>
        <time>2011-08-17T09:01:07Z</time>
      </trkpt>
      <trkpt lat="48.01969" lon="6.9909">
        <ele>1268</ele>
        <time>2011-08-17T09:01:19Z</time>
      </trkpt>
      <trkpt lat="48.01963" lon="6.99066">
        <ele>1265</ele>
        <time>2011-08-17T09:01:28Z</time>
      </trkpt>
      <trkpt lat="48.01961" lon="6.99054">
        <ele>1265</ele>
        <time>2011-08-17T09:01:40Z</time>
      </trkpt>
      <trkpt lat="48.01956" lon="6.99042">
        <ele>1264</ele>
        <time>2011-08-17T09:01:54Z</time>
      </trkpt>
      <trkpt lat="48.0195" lon="6.99038">
        <ele>1263</ele>
        <time>2011-08-17T09:02:05Z</time>
      </trkpt>
      <trkpt lat="48.01936" lon="6.99022">
        <ele>1261</ele>
        <time>2011-08-17T09:02:13Z</time>
      </trkpt>
      <trkpt lat="48.01934" lon="6.99019">
        <ele>1261</ele>
        <time>2011-08-17T09:02:15Z</time>
      </trkpt>
      <trkpt lat="48.01928" lon="6.99014">
        <ele>1260</ele>
        <time>2011-08-17T09:02:19Z</time>
      </trkpt>
      <trkpt lat="48.01923" lon="6.99002">
        <ele>1257</ele>
        <time>2011-08-17T09:02:30Z</time>
      </trkpt>
      <trkpt lat="48.0192" lon="6.98996">
        <ele>1255</ele>
        <time>2011-08-17T09:02:32Z</time>
      </trkpt>
      <trkpt lat="48.01898" lon="6.98979">
        <ele>1247</ele>
        <time>2011-08-17T09:02:38Z</time>
      </trkpt>
      <trkpt lat="48.01881" lon="6.98973">
        <ele>1245</ele>
        <time>2011-08-17T09:02:43Z</time>
      </trkpt>
      <trkpt lat="48.01876" lon="6.98975">
        <ele>1244</ele>
        <time>2011-08-17T09:02:50Z</time>
      </trkpt>
      <trkpt lat="48.0187" lon="6.98974">
        <ele>1244</ele>
        <time>2011-08-17T09:02:54Z</time>
      </trkpt>
      <trkpt lat="48.01852" lon="6.98959">
        <ele>1242</ele>
        <time>2011-08-17T09:03:01Z</time>
      </trkpt>
      <trkpt lat="48.01847" lon="6.98947">
        <ele>1241</ele>
        <time>2011-08-17T09:03:03Z</time>
      </trkpt>
      <trkpt lat="48.01818" lon="6.9892">
        <ele>1232</ele>
        <time>2011-08-17T09:03:13Z</time>
      </trkpt>
      <trkpt lat="48.01795" lon="6.98895">
        <ele>1224</ele>
        <time>2011-08-17T09:03:23Z</time>
      </trkpt>
      <trkpt lat="48.01773" lon="6.98876">
        <ele>1222</ele>
        <time>2011-08-17T09:03:35Z</time>
      </trkpt>
      <trkpt lat="48.01771" lon="6.98876">
        <ele>1221</ele>
        <time>2011-08-17T09:03:37Z</time>
      </trkpt>
      <trkpt lat="48.01764" lon="6.98868">
        <ele>1220</ele>
        <time>2011-08-17T09:03:50Z</time>
      </trkpt>
      <trkpt lat="48.01761" lon="6.98864">
        <ele>1220</ele>
        <time>2011-08-17T09:03:52Z</time>
      </trkpt>
      <trkpt lat="48.01755" lon="6.9886">
        <ele>1219</ele>
        <time>2011-08-17T09:03:56Z</time>
      </trkpt>
      <trkpt lat="48.01733" lon="6.98844">
        <ele>1210</ele>
        <time>2011-08-17T09:04:09Z</time>
      </trkpt>
      <trkpt lat="48.01721" lon="6.98824">
        <ele>1209</ele>
        <time>2011-08-17T09:04:13Z</time>
      </trkpt>
      <trkpt lat="48.01713" lon="6.98812">
        <ele>1209</ele>
        <time>2011-08-17T09:04:15Z</time>
      </trkpt>
      <trkpt lat="48.017" lon="6.98794">
        <ele>1208</ele>
        <time>2011-08-17T09:04:18Z</time>
      </trkpt>
      <trkpt lat="48.01664" lon="6.98747">
        <ele>1208</ele>
        <time>2011-08-17T09:04:28Z</time>
      </trkpt>
      <trkpt lat="48.01654" lon="6.98725">
        <ele>1203</ele>
        <time>2011-08-17T09:04:33Z</time>
      </trkpt>
      <trkpt lat="48.01643" lon="6.98707">
        <ele>1201</ele>
        <time>2011-08-17T09:04:36Z</time>
      </trkpt>
      <trkpt lat="48.01615" lon="6.98655">
        <ele>1195</ele>
        <time>2011-08-17T09:04:44Z</time>
      </trkpt>
      <trkpt lat="48.01612" lon="6.98643">
        <ele>1194</ele>
        <time>2011-08-17T09:04:47Z</time>
      </trkpt>
      <trkpt lat="48.01609" lon="6.98633">
        <ele>1194</ele>
        <time>2011-08-17T09:04:50Z</time>
      </trkpt>
      <trkpt lat="48.01602" lon="6.98627">
        <ele>1193</ele>
        <time>2011-08-17T09:05:00Z</time>
      </trkpt>
      <trkpt lat="48.01598" lon="6.98624">
        <ele>1193</ele>
        <time>2011-08-17T09:05:05Z</time>
      </trkpt>
      <trkpt lat="48.01595" lon="6.98625">
        <ele>1193</ele>
        <time>2011-08-17T09:05:08Z</time>
      </trkpt>
      <trkpt lat="48.0159" lon="6.98624">
        <ele>1193</ele>
        <time>2011-08-17T09:05:11Z</time>
      </trkpt>
      <trkpt lat="48.01581" lon="6.98616">
        <ele>1190</ele>
        <time>2011-08-17T09:05:19Z</time>
      </trkpt>
      <trkpt lat="48.01579" lon="6.98611">
        <ele>1190</ele>
        <time>2011-08-17T09:05:22Z</time>
      </trkpt>
      <trkpt lat="48.01568" lon="6.98603">
        <ele>1190</ele>
        <time>2011-08-17T09:05:27Z</time>
      </trkpt>
      <trkpt lat="48.01554" lon="6.98601">
        <ele>1190</ele>
        <time>2011-08-17T09:05:36Z</time>
      </trkpt>
      <trkpt lat="48.01536" lon="6.98591">
        <ele>1189</ele>
        <time>2011-08-17T09:05:43Z</time>
      </trkpt>
      <trkpt lat="48.01526" lon="6.98586">
        <ele>1189</ele>
        <time>2011-08-17T09:05:45Z</time>
      </trkpt>
      <trkpt lat="48.01515" lon="6.98581">
        <ele>1186</ele>
        <time>2011-08-17T09:05:48Z</time>
      </trkpt>
      <trkpt lat="48.01478" lon="6.98551">
        <ele>1189</ele>
        <time>2011-08-17T09:05:59Z</time>
      </trkpt>
      <trkpt lat="48.01455" lon="6.98533">
        <ele>1190</ele>
        <time>2011-08-17T09:06:15Z</time>
      </trkpt>
      <trkpt lat="48.01447" lon="6.98526">
        <ele>1190</ele>
        <time>2011-08-17T09:06:21Z</time>
      </trkpt>
      <trkpt lat="48.01446" lon="6.98523">
        <ele>1191</ele>
        <time>2011-08-17T09:06:28Z</time>
      </trkpt>
      <trkpt lat="48.01443" lon="6.98518">
        <ele>1191</ele>
        <time>2011-08-17T09:06:35Z</time>
      </trkpt>
      <trkpt lat="48.01435" lon="6.98512">
        <ele>1192</ele>
        <time>2011-08-17T09:06:42Z</time>
      </trkpt>
      <trkpt lat="48.01429" lon="6.98505">
        <ele>1194</ele>
        <time>2011-08-17T09:06:48Z</time>
      </trkpt>
      <trkpt lat="48.01418" lon="6.98502">
        <ele>1196</ele>
        <time>2011-08-17T09:07:02Z</time>
      </trkpt>
      <trkpt lat="48.01408" lon="6.9849">
        <ele>1198</ele>
        <time>2011-08-17T09:07:17Z</time>
      </trkpt>
      <trkpt lat="48.01396" lon="6.98482">
        <ele>1199</ele>
        <time>2011-08-17T09:07:28Z</time>
      </trkpt>
      <trkpt lat="48.01382" lon="6.98473">
        <ele>1200</ele>
        <time>2011-08-17T09:07:37Z</time>
      </trkpt>
      <trkpt lat="48.01372" lon="6.98458">
        <ele>1201</ele>
        <time>2011-08-17T09:07:47Z</time>
      </trkpt>
      <trkpt lat="48.01368" lon="6.98451">
        <ele>1201</ele>
        <time>2011-08-17T09:07:51Z</time>
      </trkpt>
      <trkpt lat="48.01355" lon="6.98433">
        <ele>1202</ele>
        <time>2011-08-17T09:08:01Z</time>
      </trkpt>
      <trkpt lat="48.0135" lon="6.98429">
        <ele>1203</ele>
        <time>2011-08-17T09:08:06Z</time>
      </trkpt>
      <trkpt lat="48.01342" lon="6.9842">
        <ele>1205</ele>
        <time>2011-08-17T09:08:13Z</time>
      </trkpt>
      <trkpt lat="48.01332" lon="6.98412">
        <ele>1207</ele>
        <time>2011-08-17T09:08:23Z</time>
      </trkpt>
      <trkpt lat="48.0132" lon="6.984">
        <ele>1208</ele>
        <time>2011-08-17T09:08:36Z</time>
      </trkpt>
      <trkpt lat="48.01306" lon="6.98389">
        <ele>1209</ele>
        <time>2011-08-17T09:08:46Z</time>
      </trkpt>
      <trkpt lat="48.01301" lon="6.98388">
        <ele>1210</ele>
        <time>2011-08-17T09:08:49Z</time>
      </trkpt>
      <trkpt lat="48.01295" lon="6.98383">
        <ele>1210</ele>
        <time>2011-08-17T09:08:52Z</time>
      </trkpt>
      <trkpt lat="48.01277" lon="6.98359">
        <ele>1212</ele>
        <time>2011-08-17T09:09:05Z</time>
      </trkpt>
      <trkpt lat="48.0127" lon="6.98347">
        <ele>1213</ele>
        <time>2011-08-17T09:09:14Z</time>
      </trkpt>
      <trkpt lat="48.01264" lon="6.9834">
        <ele>1215</ele>
        <time>2011-08-17T09:09:17Z</time>
      </trkpt>
      <trkpt lat="48.01254" lon="6.98332">
        <ele>1216</ele>
        <time>2011-08-17T09:09:25Z</time>
      </trkpt>
      <trkpt lat="48.01251" lon="6.98324">
        <ele>1213</ele>
        <time>2011-08-17T09:09:30Z</time>
      </trkpt>
      <trkpt lat="48.01231" lon="6.98296">
        <ele>1222</ele>
        <time>2011-08-17T09:09:40Z</time>
      </trkpt>
      <trkpt lat="48.01221" lon="6.98277">
        <ele>1221</ele>
        <time>2011-08-17T09:09:55Z</time>
      </trkpt>
      <trkpt lat="48.01215" lon="6.98259">
        <ele>1221</ele>
        <time>2011-08-17T09:10:32Z</time>
      </trkpt>
      <trkpt lat="48.01213" lon="6.98253">
        <ele>1222</ele>
        <time>2011-08-17T09:10:34Z</time>
      </trkpt>
      <trkpt lat="48.01211" lon="6.98249">
        <ele>1215</ele>
        <time>2011-08-17T09:10:36Z</time>
      </trkpt>
      <trkpt lat="48.01209" lon="6.98246">
        <ele>1216</ele>
        <time>2011-08-17T09:10:38Z</time>
      </trkpt>
      <trkpt lat="48.01205" lon="6.98241">
        <ele>1217</ele>
        <time>2011-08-17T09:10:41Z</time>
      </trkpt>
      <trkpt lat="48.01201" lon="6.98214">
        <ele>1215</ele>
        <time>2011-08-17T09:10:54Z</time>
      </trkpt>
      <trkpt lat="48.01199" lon="6.98207">
        <ele>1215</ele>
        <time>2011-08-17T09:10:58Z</time>
      </trkpt>
      <trkpt lat="48.01178" lon="6.98175">
        <ele>1221</ele>
        <time>2011-08-17T09:11:11Z</time>
      </trkpt>
      <trkpt lat="48.01177" lon="6.98174">
        <ele>1221</ele>
        <time>2011-08-17T09:11:12Z</time>
      </trkpt>
      <trkpt lat="48.01167" lon="6.98155">
        <ele>1216</ele>
        <time>2011-08-17T09:11:30Z</time>
      </trkpt>
      <trkpt lat="48.01155" lon="6.98131">
        <ele>1233</ele>
        <time>2011-08-17T09:11:42Z</time>
      </trkpt>
      <trkpt lat="48.01135" lon="6.98091">
        <ele>1232</ele>
        <time>2011-08-17T09:12:01Z</time>
      </trkpt>
      <trkpt lat="48.0112" lon="6.98062">
        <ele>1226</ele>
        <time>2011-08-17T09:12:15Z</time>
      </trkpt>
      <trkpt lat="48.01106" lon="6.98031">
        <ele>1227</ele>
        <time>2011-08-17T09:12:29Z</time>
      </trkpt>
      <trkpt lat="48.01106" lon="6.98027">
        <ele>1227</ele>
        <time>2011-08-17T09:12:30Z</time>
      </trkpt>
      <trkpt lat="48.01101" lon="6.98011">
        <ele>1229</ele>
        <time>2011-08-17T09:12:35Z</time>
      </trkpt>
      <trkpt lat="48.01086" lon="6.97981">
        <ele>1222</ele>
        <time>2011-08-17T09:12:47Z</time>
      </trkpt>
      <trkpt lat="48.01083" lon="6.97978">
        <ele>1241</ele>
        <time>2011-08-17T09:12:49Z</time>
      </trkpt>
      <trkpt lat="48.01081" lon="6.97974">
        <ele>1241</ele>
        <time>2011-08-17T09:12:52Z</time>
      </trkpt>
      <trkpt lat="48.01075" lon="6.97968">
        <ele>1241</ele>
        <time>2011-08-17T09:12:56Z</time>
      </trkpt>
      <trkpt lat="48.01057" lon="6.97961">
        <ele>1243</ele>
        <time>2011-08-17T09:13:04Z</time>
      </trkpt>
      <trkpt lat="48.01049" lon="6.97951">
        <ele>1243</ele>
        <time>2011-08-17T09:13:07Z</time>
      </trkpt>
      <trkpt lat="48.01043" lon="6.97926">
        <ele>1242</ele>
        <time>2011-08-17T09:13:17Z</time>
      </trkpt>
      <trkpt lat="48.01038" lon="6.97919">
        <ele>1244</ele>
        <time>2011-08-17T09:13:30Z</time>
      </trkpt>
      <trkpt lat="48.01037" lon="6.97909">
        <ele>1232</ele>
        <time>2011-08-17T09:13:45Z</time>
      </trkpt>
      <trkpt lat="48.01035" lon="6.97894">
        <ele>1231</ele>
        <time>2011-08-17T09:13:50Z</time>
      </trkpt>
      <trkpt lat="48.01029" lon="6.97879">
        <ele>1231</ele>
        <time>2011-08-17T09:13:53Z</time>
      </trkpt>
      <trkpt lat="48.01022" lon="6.97862">
        <ele>1231</ele>
        <time>2011-08-17T09:13:56Z</time>
      </trkpt>
      <trkpt lat="48.01001" lon="6.97811">
        <ele>1223</ele>
        <time>2011-08-17T09:14:07Z</time>
      </trkpt>
      <trkpt lat="48.00976" lon="6.97737">
        <ele>1230</ele>
        <time>2011-08-17T09:14:21Z</time>
      </trkpt>
      <trkpt lat="48.00962" lon="6.97692">
        <ele>1229</ele>
        <time>2011-08-17T09:14:33Z</time>
      </trkpt>
      <trkpt lat="48.00953" lon="6.97656">
        <ele>1222</ele>
        <time>2011-08-17T09:14:41Z</time>
      </trkpt>
      <trkpt lat="48.00935" lon="6.97628">
        <ele>1223</ele>
        <time>2011-08-17T09:14:49Z</time>
      </trkpt>
      <trkpt lat="48.00931" lon="6.9762">
        <ele>1223</ele>
        <time>2011-08-17T09:15:04Z</time>
      </trkpt>
      <trkpt lat="48.00929" lon="6.97618">
        <ele>1223</ele>
        <time>2011-08-17T09:15:13Z</time>
      </trkpt>
      <trkpt lat="48.00918" lon="6.9761">
        <ele>1224</ele>
        <time>2011-08-17T09:15:18Z</time>
      </trkpt>
      <trkpt lat="48.00901" lon="6.97599">
        <ele>1230</ele>
        <time>2011-08-17T09:15:22Z</time>
      </trkpt>
      <trkpt lat="48.00868" lon="6.97601">
        <ele>1229</ele>
        <time>2011-08-17T09:15:31Z</time>
      </trkpt>
      <trkpt lat="48.00845" lon="6.97618">
        <ele>1230</ele>
        <time>2011-08-17T09:15:39Z</time>
      </trkpt>
      <trkpt lat="48.00814" lon="6.97661">
        <ele>1225</ele>
        <time>2011-08-17T09:15:51Z</time>
      </trkpt>
      <trkpt lat="48.00774" lon="6.9771">
        <ele>1225</ele>
        <time>2011-08-17T09:16:00Z</time>
      </trkpt>
      <trkpt lat="48.00771" lon="6.97714">
        <ele>1225</ele>
        <time>2011-08-17T09:16:01Z</time>
      </trkpt>
      <trkpt lat="48.00742" lon="6.97778">
        <ele>1214</ele>
        <time>2011-08-17T09:16:11Z</time>
      </trkpt>
      <trkpt lat="48.00716" lon="6.97832">
        <ele>1215</ele>
        <time>2011-08-17T09:16:20Z</time>
      </trkpt>
      <trkpt lat="48.00709" lon="6.97851">
        <ele>1220</ele>
        <time>2011-08-17T09:16:23Z</time>
      </trkpt>
      <trkpt lat="48.00672" lon="6.97908">
        <ele>1216</ele>
        <time>2011-08-17T09:16:34Z</time>
      </trkpt>
      <trkpt lat="48.00646" lon="6.97939">
        <ele>1211</ele>
        <time>2011-08-17T09:16:40Z</time>
      </trkpt>
      <trkpt lat="48.00598" lon="6.97986">
        <ele>1208</ele>
        <time>2011-08-17T09:16:50Z</time>
      </trkpt>
      <trkpt lat="48.00562" lon="6.97996">
        <ele>1204</ele>
        <time>2011-08-17T09:17:03Z</time>
      </trkpt>
      <trkpt lat="48.00553" lon="6.97997">
        <ele>1204</ele>
        <time>2011-08-17T09:17:14Z</time>
      </trkpt>
      <trkpt lat="48.00548" lon="6.97999">
        <ele>1204</ele>
        <time>2011-08-17T09:17:26Z</time>
      </trkpt>
      <trkpt lat="48.00548" lon="6.98002">
        <ele>1203</ele>
        <time>2011-08-17T09:17:41Z</time>
      </trkpt>
      <trkpt lat="48.00548" lon="6.98002">
        <ele>1203</ele>
        <time>2011-08-17T09:18:01Z</time>
      </trkpt>
      <trkpt lat="48.00547" lon="6.98001">
        <ele>1203</ele>
        <time>2011-08-17T09:18:21Z</time>
      </trkpt>
      <trkpt lat="48.00547" lon="6.98">
        <ele>1204</ele>
        <time>2011-08-17T09:18:42Z</time>
      </trkpt>
      <trkpt lat="48.0054" lon="6.98">
        <ele>1203</ele>
        <time>2011-08-17T09:18:47Z</time>
      </trkpt>
      <trkpt lat="48.00499" lon="6.98002">
        <ele>1206</ele>
        <time>2011-08-17T09:19:07Z</time>
      </trkpt>
      <trkpt lat="48.00474" lon="6.98006">
        <ele>1204</ele>
        <time>2011-08-17T09:19:25Z</time>
      </trkpt>
      <trkpt lat="48.00445" lon="6.98002">
        <ele>1207</ele>
        <time>2011-08-17T09:19:45Z</time>
      </trkpt>
      <trkpt lat="48.00429" lon="6.98001">
        <ele>1210</ele>
        <time>2011-08-17T09:19:56Z</time>
      </trkpt>
      <trkpt lat="48.00416" lon="6.97998">
        <ele>1216</ele>
        <time>2011-08-17T09:20:06Z</time>
      </trkpt>
      <trkpt lat="48.00397" lon="6.97967">
        <ele>1221</ele>
        <time>2011-08-17T09:20:24Z</time>
      </trkpt>
      <trkpt lat="48.00372" lon="6.97914">
        <ele>1220</ele>
        <time>2011-08-17T09:20:47Z</time>
      </trkpt>
      <trkpt lat="48.00347" lon="6.97863">
        <ele>1220</ele>
        <time>2011-08-17T09:21:06Z</time>
      </trkpt>
      <trkpt lat="48.00314" lon="6.97802">
        <ele>1227</ele>
        <time>2011-08-17T09:21:28Z</time>
      </trkpt>
      <trkpt lat="48.00288" lon="6.97766">
        <ele>1228</ele>
        <time>2011-08-17T09:21:44Z</time>
      </trkpt>
      <trkpt lat="48.00252" lon="6.97753">
        <ele>1233</ele>
        <time>2011-08-17T09:22:02Z</time>
      </trkpt>
      <trkpt lat="48.0025" lon="6.97753">
        <ele>1233</ele>
        <time>2011-08-17T09:22:03Z</time>
      </trkpt>
      <trkpt lat="48.00231" lon="6.97751">
        <ele>1240</ele>
        <time>2011-08-17T09:22:19Z</time>
      </trkpt>
      <trkpt lat="48.00196" lon="6.97745">
        <ele>1235</ele>
        <time>2011-08-17T09:22:40Z</time>
      </trkpt>
      <trkpt lat="48.00178" lon="6.97743">
        <ele>1239</ele>
        <time>2011-08-17T09:22:55Z</time>
      </trkpt>
      <trkpt lat="48.00174" lon="6.97742">
        <ele>1240</ele>
        <time>2011-08-17T09:23:05Z</time>
      </trkpt>
      <trkpt lat="48.00142" lon="6.97737">
        <ele>1243</ele>
        <time>2011-08-17T09:23:24Z</time>
      </trkpt>
      <trkpt lat="48.00114" lon="6.97731">
        <ele>1245</ele>
        <time>2011-08-17T09:23:41Z</time>
      </trkpt>
      <trkpt lat="48.00087" lon="6.97726">
        <ele>1247</ele>
        <time>2011-08-17T09:23:56Z</time>
      </trkpt>
      <trkpt lat="48.00041" lon="6.97716">
        <ele>1253</ele>
        <time>2011-08-17T09:24:18Z</time>
      </trkpt>
      <trkpt lat="48.00034" lon="6.97712">
        <ele>1253</ele>
        <time>2011-08-17T09:24:22Z</time>
      </trkpt>
      <trkpt lat="48.00026" lon="6.97707">
        <ele>1253</ele>
        <time>2011-08-17T09:24:27Z</time>
      </trkpt>
      <trkpt lat="47.99988" lon="6.9769">
        <ele>1256</ele>
        <time>2011-08-17T09:24:48Z</time>
      </trkpt>
      <trkpt lat="47.99957" lon="6.97676">
        <ele>1257</ele>
        <time>2011-08-17T09:25:06Z</time>
      </trkpt>
      <trkpt lat="47.99936" lon="6.97673">
        <ele>1256</ele>
        <time>2011-08-17T09:26:07Z</time>
      </trkpt>
      <trkpt lat="47.99908" lon="6.97681">
        <ele>1252</ele>
        <time>2011-08-17T09:26:24Z</time>
      </trkpt>
      <trkpt lat="47.99896" lon="6.97693">
        <ele>1253</ele>
        <time>2011-08-17T09:27:33Z</time>
      </trkpt>
      <trkpt lat="47.99896" lon="6.97693">
        <ele>1253</ele>
        <time>2011-08-17T09:27:45Z</time>
      </trkpt>
      <trkpt lat="47.99871" lon="6.97721">
        <ele>1253</ele>
        <time>2011-08-17T09:27:58Z</time>
      </trkpt>
      <trkpt lat="47.99836" lon="6.97768">
        <ele>1262</ele>
        <time>2011-08-17T09:28:13Z</time>
      </trkpt>
      <trkpt lat="47.99807" lon="6.97806">
        <ele>1253</ele>
        <time>2011-08-17T09:28:23Z</time>
      </trkpt>
      <trkpt lat="47.9976" lon="6.97845">
        <ele>1260</ele>
        <time>2011-08-17T09:28:33Z</time>
      </trkpt>
      <trkpt lat="47.99724" lon="6.97853">
        <ele>1257</ele>
        <time>2011-08-17T09:28:40Z</time>
      </trkpt>
      <trkpt lat="47.99661" lon="6.97854">
        <ele>1252</ele>
        <time>2011-08-17T09:28:53Z</time>
      </trkpt>
      <trkpt lat="47.99598" lon="6.97861">
        <ele>1254</ele>
        <time>2011-08-17T09:29:07Z</time>
      </trkpt>
      <trkpt lat="47.99521" lon="6.97853">
        <ele>1254</ele>
        <time>2011-08-17T09:29:26Z</time>
      </trkpt>
      <trkpt lat="47.99479" lon="6.97846">
        <ele>1254</ele>
        <time>2011-08-17T09:29:35Z</time>
      </trkpt>
      <trkpt lat="47.99447" lon="6.97847">
        <ele>1255</ele>
        <time>2011-08-17T09:29:42Z</time>
      </trkpt>
      <trkpt lat="47.99381" lon="6.97852">
        <ele>1252</ele>
        <time>2011-08-17T09:29:59Z</time>
      </trkpt>
      <trkpt lat="47.99365" lon="6.97859">
        <ele>1252</ele>
        <time>2011-08-17T09:30:03Z</time>
      </trkpt>
      <trkpt lat="47.99341" lon="6.97868">
        <ele>1252</ele>
        <time>2011-08-17T09:30:09Z</time>
      </trkpt>
      <trkpt lat="47.99305" lon="6.97884">
        <ele>1247</ele>
        <time>2011-08-17T09:30:18Z</time>
      </trkpt>
      <trkpt lat="47.99289" lon="6.9789">
        <ele>1246</ele>
        <time>2011-08-17T09:30:22Z</time>
      </trkpt>
      <trkpt lat="47.99213" lon="6.97925">
        <ele>1249</ele>
        <time>2011-08-17T09:30:38Z</time>
      </trkpt>
      <trkpt lat="47.99149" lon="6.97969">
        <ele>1241</ele>
        <time>2011-08-17T09:30:52Z</time>
      </trkpt>
      <trkpt lat="47.99127" lon="6.97987">
        <ele>1240</ele>
        <time>2011-08-17T09:30:57Z</time>
      </trkpt>
      <trkpt lat="47.99071" lon="6.9802">
        <ele>1242</ele>
        <time>2011-08-17T09:31:09Z</time>
      </trkpt>
      <trkpt lat="47.99055" lon="6.98026">
        <ele>1242</ele>
        <time>2011-08-17T09:31:12Z</time>
      </trkpt>
      <trkpt lat="47.99002" lon="6.9802">
        <ele>1241</ele>
        <time>2011-08-17T09:31:22Z</time>
      </trkpt>
      <trkpt lat="47.98956" lon="6.98022">
        <ele>1240</ele>
        <time>2011-08-17T09:31:30Z</time>
      </trkpt>
      <trkpt lat="47.98921" lon="6.98008">
        <ele>1239</ele>
        <time>2011-08-17T09:31:38Z</time>
      </trkpt>
      <trkpt lat="47.98907" lon="6.98007">
        <ele>1240</ele>
        <time>2011-08-17T09:31:41Z</time>
      </trkpt>
      <trkpt lat="47.98887" lon="6.98009">
        <ele>1240</ele>
        <time>2011-08-17T09:31:45Z</time>
      </trkpt>
      <trkpt lat="47.98876" lon="6.9801">
        <ele>1240</ele>
        <time>2011-08-17T09:31:47Z</time>
      </trkpt>
      <trkpt lat="47.98848" lon="6.97998">
        <ele>1236</ele>
        <time>2011-08-17T09:31:53Z</time>
      </trkpt>
      <trkpt lat="47.98836" lon="6.97987">
        <ele>1236</ele>
        <time>2011-08-17T09:31:56Z</time>
      </trkpt>
      <trkpt lat="47.98817" lon="6.97978">
        <ele>1234</ele>
        <time>2011-08-17T09:32:00Z</time>
      </trkpt>
      <trkpt lat="47.98796" lon="6.97976">
        <ele>1233</ele>
        <time>2011-08-17T09:32:04Z</time>
      </trkpt>
      <trkpt lat="47.98783" lon="6.97976">
        <ele>1233</ele>
        <time>2011-08-17T09:32:07Z</time>
      </trkpt>
      <trkpt lat="47.98737" lon="6.97978">
        <ele>1231</ele>
        <time>2011-08-17T09:32:16Z</time>
      </trkpt>
      <trkpt lat="47.98717" lon="6.98003">
        <ele>1234</ele>
        <time>2011-08-17T09:32:23Z</time>
      </trkpt>
      <trkpt lat="47.98703" lon="6.98005">
        <ele>1233</ele>
        <time>2011-08-17T09:32:28Z</time>
      </trkpt>
      <trkpt lat="47.98689" lon="6.98002">
        <ele>1233</ele>
        <time>2011-08-17T09:32:33Z</time>
      </trkpt>
      <trkpt lat="47.98684" lon="6.98003">
        <ele>1233</ele>
        <time>2011-08-17T09:32:35Z</time>
      </trkpt>
      <trkpt lat="47.9868" lon="6.98001">
        <ele>1233</ele>
        <time>2011-08-17T09:32:38Z</time>
      </trkpt>
      <trkpt lat="47.98654" lon="6.98011">
        <ele>1229</ele>
        <time>2011-08-17T09:32:49Z</time>
      </trkpt>
      <trkpt lat="47.98619" lon="6.98018">
        <ele>1227</ele>
        <time>2011-08-17T09:33:01Z</time>
      </trkpt>
      <trkpt lat="47.98603" lon="6.98022">
        <ele>1226</ele>
        <time>2011-08-17T09:33:05Z</time>
      </trkpt>
      <trkpt lat="47.98546" lon="6.98034">
        <ele>1221</ele>
        <time>2011-08-17T09:33:20Z</time>
      </trkpt>
      <trkpt lat="47.98518" lon="6.98067">
        <ele>1220</ele>
        <time>2011-08-17T09:33:27Z</time>
      </trkpt>
      <trkpt lat="47.98455" lon="6.98165">
        <ele>1213</ele>
        <time>2011-08-17T09:33:42Z</time>
      </trkpt>
      <trkpt lat="47.9842" lon="6.98198">
        <ele>1213</ele>
        <time>2011-08-17T09:33:55Z</time>
      </trkpt>
      <trkpt lat="47.98416" lon="6.98203">
        <ele>1215</ele>
        <time>2011-08-17T09:33:58Z</time>
      </trkpt>
      <trkpt lat="47.98424" lon="6.98233">
        <ele>1213</ele>
        <time>2011-08-17T09:34:11Z</time>
      </trkpt>
      <trkpt lat="47.98448" lon="6.98258">
        <ele>1210</ele>
        <time>2011-08-17T09:34:25Z</time>
      </trkpt>
      <trkpt lat="47.98453" lon="6.98261">
        <ele>1209</ele>
        <time>2011-08-17T09:36:28Z</time>
      </trkpt>
      <trkpt lat="47.9847" lon="6.98273">
        <ele>1208</ele>
        <time>2011-08-17T09:36:32Z</time>
      </trkpt>
      <trkpt lat="47.98558" lon="6.9829">
        <ele>1201</ele>
        <time>2011-08-17T09:36:44Z</time>
      </trkpt>
      <trkpt lat="47.98631" lon="6.98301">
        <ele>1195</ele>
        <time>2011-08-17T09:36:54Z</time>
      </trkpt>
      <trkpt lat="47.98671" lon="6.98313">
        <ele>1193</ele>
        <time>2011-08-17T09:36:59Z</time>
      </trkpt>
      <trkpt lat="47.98693" lon="6.98323">
        <ele>1194</ele>
        <time>2011-08-17T09:37:02Z</time>
      </trkpt>
      <trkpt lat="47.98718" lon="6.98331">
        <ele>1196</ele>
        <time>2011-08-17T09:37:05Z</time>
      </trkpt>
      <trkpt lat="47.98797" lon="6.98369">
        <ele>1183</ele>
        <time>2011-08-17T09:37:15Z</time>
      </trkpt>
      <trkpt lat="47.98881" lon="6.98427">
        <ele>1169</ele>
        <time>2011-08-17T09:37:26Z</time>
      </trkpt>
      <trkpt lat="47.98895" lon="6.98444">
        <ele>1168</ele>
        <time>2011-08-17T09:37:28Z</time>
      </trkpt>
      <trkpt lat="47.98932" lon="6.98487">
        <ele>1162</ele>
        <time>2011-08-17T09:37:34Z</time>
      </trkpt>
      <trkpt lat="47.99001" lon="6.98529">
        <ele>1140</ele>
        <time>2011-08-17T09:37:44Z</time>
      </trkpt>
      <trkpt lat="47.99012" lon="6.98529">
        <ele>1139</ele>
        <time>2011-08-17T09:37:46Z</time>
      </trkpt>
      <trkpt lat="47.99029" lon="6.98518">
        <ele>1138</ele>
        <time>2011-08-17T09:37:50Z</time>
      </trkpt>
      <trkpt lat="47.99074" lon="6.98478">
        <ele>1149</ele>
        <time>2011-08-17T09:37:58Z</time>
      </trkpt>
      <trkpt lat="47.99105" lon="6.98474">
        <ele>1137</ele>
        <time>2011-08-17T09:38:02Z</time>
      </trkpt>
      <trkpt lat="47.99179" lon="6.98471">
        <ele>1126</ele>
        <time>2011-08-17T09:38:08Z</time>
      </trkpt>
      <trkpt lat="47.99213" lon="6.98491">
        <ele>1125</ele>
        <time>2011-08-17T09:38:12Z</time>
      </trkpt>
      <trkpt lat="47.99237" lon="6.985">
        <ele>1123</ele>
        <time>2011-08-17T09:38:15Z</time>
      </trkpt>
      <trkpt lat="47.99271" lon="6.98524">
        <ele>1120</ele>
        <time>2011-08-17T09:38:21Z</time>
      </trkpt>
      <trkpt lat="47.99292" lon="6.98556">
        <ele>1119</ele>
        <time>2011-08-17T09:38:31Z</time>
      </trkpt>
      <trkpt lat="47.99314" lon="6.9859">
        <ele>1112</ele>
        <time>2011-08-17T09:38:47Z</time>
      </trkpt>
      <trkpt lat="47.99337" lon="6.98581">
        <ele>1122</ele>
        <time>2011-08-17T09:38:59Z</time>
      </trkpt>
      <trkpt lat="47.99366" lon="6.98576">
        <ele>1130</ele>
        <time>2011-08-17T09:39:13Z</time>
      </trkpt>
      <trkpt lat="47.99412" lon="6.98585">
        <ele>1127</ele>
        <time>2011-08-17T09:39:29Z</time>
      </trkpt>
      <trkpt lat="47.99421" lon="6.98586">
        <ele>1129</ele>
        <time>2011-08-17T09:39:40Z</time>
      </trkpt>
      <trkpt lat="47.99426" lon="6.98584">
        <ele>1128</ele>
        <time>2011-08-17T09:39:58Z</time>
      </trkpt>
      <trkpt lat="47.99426" lon="6.98584">
        <ele>1128</ele>
        <time>2011-08-17T09:40:05Z</time>
      </trkpt>
      <trkpt lat="47.99437" lon="6.98595">
        <ele>1126</ele>
        <time>2011-08-17T09:40:09Z</time>
      </trkpt>
      <trkpt lat="47.99467" lon="6.98614">
        <ele>1126</ele>
        <time>2011-08-17T09:40:14Z</time>
      </trkpt>
      <trkpt lat="47.99497" lon="6.9864">
        <ele>1123</ele>
        <time>2011-08-17T09:40:19Z</time>
      </trkpt>
      <trkpt lat="47.99521" lon="6.98679">
        <ele>1116</ele>
        <time>2011-08-17T09:40:28Z</time>
      </trkpt>
      <trkpt lat="47.99529" lon="6.98701">
        <ele>1113</ele>
        <time>2011-08-17T09:40:32Z</time>
      </trkpt>
      <trkpt lat="47.99535" lon="6.98713">
        <ele>1112</ele>
        <time>2011-08-17T09:40:34Z</time>
      </trkpt>
      <trkpt lat="47.99544" lon="6.98729">
        <ele>1111</ele>
        <time>2011-08-17T09:40:37Z</time>
      </trkpt>
      <trkpt lat="47.9955" lon="6.98768">
        <ele>1094</ele>
        <time>2011-08-17T09:40:43Z</time>
      </trkpt>
      <trkpt lat="47.99564" lon="6.9879">
        <ele>1092</ele>
        <time>2011-08-17T09:40:47Z</time>
      </trkpt>
      <trkpt lat="47.99583" lon="6.98835">
        <ele>1082</ele>
        <time>2011-08-17T09:40:52Z</time>
      </trkpt>
      <trkpt lat="47.996" lon="6.98862">
        <ele>1079</ele>
        <time>2011-08-17T09:40:56Z</time>
      </trkpt>
      <trkpt lat="47.99622" lon="6.9888">
        <ele>1078</ele>
        <time>2011-08-17T09:41:00Z</time>
      </trkpt>
      <trkpt lat="47.9964" lon="6.98897">
        <ele>1077</ele>
        <time>2011-08-17T09:41:03Z</time>
      </trkpt>
      <trkpt lat="47.99656" lon="6.98927">
        <ele>1065</ele>
        <time>2011-08-17T09:41:11Z</time>
      </trkpt>
      <trkpt lat="47.99655" lon="6.9893">
        <ele>1064</ele>
        <time>2011-08-17T09:41:40Z</time>
      </trkpt>
      <trkpt lat="47.99642" lon="6.9893">
        <ele>1062</ele>
        <time>2011-08-17T09:41:47Z</time>
      </trkpt>
      <trkpt lat="47.99627" lon="6.98936">
        <ele>1059</ele>
        <time>2011-08-17T09:41:50Z</time>
      </trkpt>
      <trkpt lat="47.9962" lon="6.98937">
        <ele>1058</ele>
        <time>2011-08-17T09:41:52Z</time>
      </trkpt>
      <trkpt lat="47.99618" lon="6.98933">
        <ele>1058</ele>
        <time>2011-08-17T09:41:55Z</time>
      </trkpt>
      <trkpt lat="47.99587" lon="6.98933">
        <ele>1057</ele>
        <time>2011-08-17T09:42:07Z</time>
      </trkpt>
      <trkpt lat="47.99546" lon="6.98917">
        <ele>1046</ele>
        <time>2011-08-17T09:42:17Z</time>
      </trkpt>
      <trkpt lat="47.99495" lon="6.98921">
        <ele>1040</ele>
        <time>2011-08-17T09:42:26Z</time>
      </trkpt>
      <trkpt lat="47.9949" lon="6.98931">
        <ele>1034</ele>
        <time>2011-08-17T09:42:31Z</time>
      </trkpt>
      <trkpt lat="47.99515" lon="6.98958">
        <ele>1039</ele>
        <time>2011-08-17T09:42:40Z</time>
      </trkpt>
      <trkpt lat="47.99532" lon="6.98993">
        <ele>1036</ele>
        <time>2011-08-17T09:42:45Z</time>
      </trkpt>
      <trkpt lat="47.99545" lon="6.99012">
        <ele>1020</ele>
        <time>2011-08-17T09:42:48Z</time>
      </trkpt>
      <trkpt lat="47.99565" lon="6.9903">
        <ele>1020</ele>
        <time>2011-08-17T09:42:52Z</time>
      </trkpt>
      <trkpt lat="47.99589" lon="6.99044">
        <ele>1027</ele>
        <time>2011-08-17T09:42:56Z</time>
      </trkpt>
      <trkpt lat="47.99607" lon="6.9906">
        <ele>1024</ele>
        <time>2011-08-17T09:42:59Z</time>
      </trkpt>
      <trkpt lat="47.9965" lon="6.99087">
        <ele>1008</ele>
        <time>2011-08-17T09:43:06Z</time>
      </trkpt>
      <trkpt lat="47.99663" lon="6.99085">
        <ele>1017</ele>
        <time>2011-08-17T09:43:08Z</time>
      </trkpt>
      <trkpt lat="47.99675" lon="6.99087">
        <ele>1017</ele>
        <time>2011-08-17T09:43:10Z</time>
      </trkpt>
      <trkpt lat="47.99689" lon="6.99084">
        <ele>1014</ele>
        <time>2011-08-17T09:43:18Z</time>
      </trkpt>
      <trkpt lat="47.99689" lon="6.99085">
        <ele>1014</ele>
        <time>2011-08-17T09:43:23Z</time>
      </trkpt>
      <trkpt lat="47.99696" lon="6.99082">
        <ele>1030</ele>
        <time>2011-08-17T09:43:27Z</time>
      </trkpt>
      <trkpt lat="47.99721" lon="6.99088">
        <ele>1015</ele>
        <time>2011-08-17T09:43:33Z</time>
      </trkpt>
      <trkpt lat="47.99734" lon="6.99096">
        <ele>1016</ele>
        <time>2011-08-17T09:43:35Z</time>
      </trkpt>
      <trkpt lat="47.99774" lon="6.99134">
        <ele>1014</ele>
        <time>2011-08-17T09:43:42Z</time>
      </trkpt>
      <trkpt lat="47.99798" lon="6.9915">
        <ele>1012</ele>
        <time>2011-08-17T09:43:46Z</time>
      </trkpt>
      <trkpt lat="47.99798" lon="6.99168">
        <ele>1000</ele>
        <time>2011-08-17T09:43:53Z</time>
      </trkpt>
      <trkpt lat="47.9979" lon="6.99162">
        <ele>1012</ele>
        <time>2011-08-17T09:43:56Z</time>
      </trkpt>
      <trkpt lat="47.99748" lon="6.99136">
        <ele>1009</ele>
        <time>2011-08-17T09:44:06Z</time>
      </trkpt>
      <trkpt lat="47.99753" lon="6.99129">
        <ele>1014</ele>
        <time>2011-08-17T09:44:23Z</time>
      </trkpt>
      <trkpt lat="47.99791" lon="6.9916">
        <ele>1012</ele>
        <time>2011-08-17T09:44:34Z</time>
      </trkpt>
      <trkpt lat="47.99811" lon="6.99159">
        <ele>1011</ele>
        <time>2011-08-17T09:44:42Z</time>
      </trkpt>
      <trkpt lat="47.99831" lon="6.99176">
        <ele>1002</ele>
        <time>2011-08-17T09:44:51Z</time>
      </trkpt>
      <trkpt lat="47.99835" lon="6.99204">
        <ele>993</ele>
        <time>2011-08-17T09:44:56Z</time>
      </trkpt>
      <trkpt lat="47.99844" lon="6.99227">
        <ele>991</ele>
        <time>2011-08-17T09:45:05Z</time>
      </trkpt>
      <trkpt lat="47.9985" lon="6.99255">
        <ele>983</ele>
        <time>2011-08-17T09:45:16Z</time>
      </trkpt>
      <trkpt lat="47.99849" lon="6.99262">
        <ele>981</ele>
        <time>2011-08-17T09:45:32Z</time>
      </trkpt>
      <trkpt lat="47.99842" lon="6.99275">
        <ele>979</ele>
        <time>2011-08-17T09:45:40Z</time>
      </trkpt>
      <trkpt lat="47.9983" lon="6.99274">
        <ele>985</ele>
        <time>2011-08-17T09:45:51Z</time>
      </trkpt>
      <trkpt lat="47.99822" lon="6.99271">
        <ele>985</ele>
        <time>2011-08-17T09:46:05Z</time>
      </trkpt>
      <trkpt lat="47.99816" lon="6.9928">
        <ele>983</ele>
        <time>2011-08-17T09:46:29Z</time>
      </trkpt>
      <trkpt lat="47.99798" lon="6.99275">
        <ele>982</ele>
        <time>2011-08-17T09:46:51Z</time>
      </trkpt>
      <trkpt lat="47.99774" lon="6.99268">
        <ele>982</ele>
        <time>2011-08-17T09:46:58Z</time>
      </trkpt>
      <trkpt lat="47.99746" lon="6.99259">
        <ele>977</ele>
        <time>2011-08-17T09:47:04Z</time>
      </trkpt>
      <trkpt lat="47.99735" lon="6.99259">
        <ele>973</ele>
        <time>2011-08-17T09:47:06Z</time>
      </trkpt>
      <trkpt lat="47.99725" lon="6.9926">
        <ele>968</ele>
        <time>2011-08-17T09:47:08Z</time>
      </trkpt>
      <trkpt lat="47.997" lon="6.99242">
        <ele>978</ele>
        <time>2011-08-17T09:47:14Z</time>
      </trkpt>
      <trkpt lat="47.99671" lon="6.99223">
        <ele>976</ele>
        <time>2011-08-17T09:47:24Z</time>
      </trkpt>
      <trkpt lat="47.99668" lon="6.9922">
        <ele>977</ele>
        <time>2011-08-17T09:47:36Z</time>
      </trkpt>
      <trkpt lat="47.99666" lon="6.99226">
        <ele>961</ele>
        <time>2011-08-17T09:47:48Z</time>
      </trkpt>
      <trkpt lat="47.99675" lon="6.99232">
        <ele>973</ele>
        <time>2011-08-17T09:47:53Z</time>
      </trkpt>
      <trkpt lat="47.99695" lon="6.99252">
        <ele>961</ele>
        <time>2011-08-17T09:48:06Z</time>
      </trkpt>
      <trkpt lat="47.99697" lon="6.99248">
        <ele>976</ele>
        <time>2011-08-17T09:48:14Z</time>
      </trkpt>
      <trkpt lat="47.99679" lon="6.99253">
        <ele>959</ele>
        <time>2011-08-17T09:48:19Z</time>
      </trkpt>
      <trkpt lat="47.99648" lon="6.99251">
        <ele>943</ele>
        <time>2011-08-17T09:48:26Z</time>
      </trkpt>
      <trkpt lat="47.99644" lon="6.99242">
        <ele>958</ele>
        <time>2011-08-17T09:48:29Z</time>
      </trkpt>
      <trkpt lat="47.99638" lon="6.99234">
        <ele>958</ele>
        <time>2011-08-17T09:48:32Z</time>
      </trkpt>
      <trkpt lat="47.99627" lon="6.99238">
        <ele>956</ele>
        <time>2011-08-17T09:48:36Z</time>
      </trkpt>
      <trkpt lat="47.99599" lon="6.99218">
        <ele>954</ele>
        <time>2011-08-17T09:48:46Z</time>
      </trkpt>
      <trkpt lat="47.99593" lon="6.9922">
        <ele>953</ele>
        <time>2011-08-17T09:49:08Z</time>
      </trkpt>
      <trkpt lat="47.9959" lon="6.99223">
        <ele>951</ele>
        <time>2011-08-17T09:49:24Z</time>
      </trkpt>
      <trkpt lat="47.99586" lon="6.99228">
        <ele>948</ele>
        <time>2011-08-17T09:49:35Z</time>
      </trkpt>
      <trkpt lat="47.9959" lon="6.9923">
        <ele>947</ele>
        <time>2011-08-17T09:49:44Z</time>
      </trkpt>
      <trkpt lat="47.99604" lon="6.99235">
        <ele>949</ele>
        <time>2011-08-17T09:49:52Z</time>
      </trkpt>
      <trkpt lat="47.99618" lon="6.99235">
        <ele>954</ele>
        <time>2011-08-17T09:49:58Z</time>
      </trkpt>
      <trkpt lat="47.99631" lon="6.99247">
        <ele>956</ele>
        <time>2011-08-17T09:50:02Z</time>
      </trkpt>
      <trkpt lat="47.99636" lon="6.99248">
        <ele>957</ele>
        <time>2011-08-17T09:50:04Z</time>
      </trkpt>
      <trkpt lat="47.99657" lon="6.9927">
        <ele>941</ele>
        <time>2011-08-17T09:50:12Z</time>
      </trkpt>
      <trkpt lat="47.99682" lon="6.99296">
        <ele>954</ele>
        <time>2011-08-17T09:50:21Z</time>
      </trkpt>
      <trkpt lat="47.99686" lon="6.99307">
        <ele>951</ele>
        <time>2011-08-17T09:50:24Z</time>
      </trkpt>
      <trkpt lat="47.99705" lon="6.99335">
        <ele>938</ele>
        <time>2011-08-17T09:50:34Z</time>
      </trkpt>
      <trkpt lat="47.99713" lon="6.99366">
        <ele>936</ele>
        <time>2011-08-17T09:50:37Z</time>
      </trkpt>
      <trkpt lat="47.99728" lon="6.99416">
        <ele>934</ele>
        <time>2011-08-17T09:50:42Z</time>
      </trkpt>
      <trkpt lat="47.99747" lon="6.99449">
        <ele>919</ele>
        <time>2011-08-17T09:50:48Z</time>
      </trkpt>
      <trkpt lat="47.99755" lon="6.99462">
        <ele>930</ele>
        <time>2011-08-17T09:50:51Z</time>
      </trkpt>
      <trkpt lat="47.99777" lon="6.99522">
        <ele>914</ele>
        <time>2011-08-17T09:51:01Z</time>
      </trkpt>
      <trkpt lat="47.99784" lon="6.99529">
        <ele>914</ele>
        <time>2011-08-17T09:51:10Z</time>
      </trkpt>
      <trkpt lat="47.99785" lon="6.99529">
        <ele>914</ele>
        <time>2011-08-17T09:51:44Z</time>
      </trkpt>
      <trkpt lat="47.99785" lon="6.99534">
        <ele>914</ele>
        <time>2011-08-17T09:51:46Z</time>
      </trkpt>
      <trkpt lat="47.99802" lon="6.99599">
        <ele>900</ele>
        <time>2011-08-17T09:51:56Z</time>
      </trkpt>
      <trkpt lat="47.99813" lon="6.99654">
        <ele>896</ele>
        <time>2011-08-17T09:52:04Z</time>
      </trkpt>
      <trkpt lat="47.99827" lon="6.99705">
        <ele>883</ele>
        <time>2011-08-17T09:52:10Z</time>
      </trkpt>
      <trkpt lat="47.99809" lon="6.99714">
        <ele>881</ele>
        <time>2011-08-17T09:52:19Z</time>
      </trkpt>
      <trkpt lat="47.99808" lon="6.99715">
        <ele>881</ele>
        <time>2011-08-17T09:52:20Z</time>
      </trkpt>
      <trkpt lat="47.99785" lon="6.99715">
        <ele>878</ele>
        <time>2011-08-17T09:52:27Z</time>
      </trkpt>
      <trkpt lat="47.99752" lon="6.99703">
        <ele>877</ele>
        <time>2011-08-17T09:52:35Z</time>
      </trkpt>
      <trkpt lat="47.99749" lon="6.99702">
        <ele>866</ele>
        <time>2011-08-17T09:52:36Z</time>
      </trkpt>
      <trkpt lat="47.99702" lon="6.99681">
        <ele>863</ele>
        <time>2011-08-17T09:52:46Z</time>
      </trkpt>
      <trkpt lat="47.99683" lon="6.99661">
        <ele>868</ele>
        <time>2011-08-17T09:52:53Z</time>
      </trkpt>
      <trkpt lat="47.99678" lon="6.99653">
        <ele>868</ele>
        <time>2011-08-17T09:53:05Z</time>
      </trkpt>
      <trkpt lat="47.99678" lon="6.99651">
        <ele>868</ele>
        <time>2011-08-17T09:53:24Z</time>
      </trkpt>
      <trkpt lat="47.99656" lon="6.99637">
        <ele>861</ele>
        <time>2011-08-17T09:53:30Z</time>
      </trkpt>
      <trkpt lat="47.99622" lon="6.9962">
        <ele>861</ele>
        <time>2011-08-17T09:53:39Z</time>
      </trkpt>
      <trkpt lat="47.99617" lon="6.99616">
        <ele>860</ele>
        <time>2011-08-17T09:53:41Z</time>
      </trkpt>
      <trkpt lat="47.99604" lon="6.99617">
        <ele>860</ele>
        <time>2011-08-17T09:53:45Z</time>
      </trkpt>
      <trkpt lat="47.99609" lon="6.9961">
        <ele>860</ele>
        <time>2011-08-17T09:53:55Z</time>
      </trkpt>
      <trkpt lat="47.99617" lon="6.99619">
        <ele>860</ele>
        <time>2011-08-17T09:54:01Z</time>
      </trkpt>
      <trkpt lat="47.9963" lon="6.9965">
        <ele>860</ele>
        <time>2011-08-17T09:54:09Z</time>
      </trkpt>
      <trkpt lat="47.99632" lon="6.99651">
        <ele>860</ele>
        <time>2011-08-17T09:54:18Z</time>
      </trkpt>
      <trkpt lat="47.99638" lon="6.9965">
        <ele>860</ele>
        <time>2011-08-17T09:55:10Z</time>
      </trkpt>
      <trkpt lat="47.99645" lon="6.99663">
        <ele>860</ele>
        <time>2011-08-17T09:55:15Z</time>
      </trkpt>
      <trkpt lat="47.99656" lon="6.99701">
        <ele>857</ele>
        <time>2011-08-17T09:55:20Z</time>
      </trkpt>
      <trkpt lat="47.99672" lon="6.99746">
        <ele>850</ele>
        <time>2011-08-17T09:55:26Z</time>
      </trkpt>
      <trkpt lat="47.99698" lon="6.99768">
        <ele>850</ele>
        <time>2011-08-17T09:55:33Z</time>
      </trkpt>
      <trkpt lat="47.9971" lon="6.9979">
        <ele>850</ele>
        <time>2011-08-17T09:55:47Z</time>
      </trkpt>
      <trkpt lat="47.99705" lon="6.99792">
        <ele>850</ele>
        <time>2011-08-17T09:56:03Z</time>
      </trkpt>
      <trkpt lat="47.99702" lon="6.998">
        <ele>850</ele>
        <time>2011-08-17T09:56:30Z</time>
      </trkpt>
      <trkpt lat="47.997" lon="6.9981">
        <ele>849</ele>
        <time>2011-08-17T09:56:43Z</time>
      </trkpt>
      <trkpt lat="47.99701" lon="6.99815">
        <ele>849</ele>
        <time>2011-08-17T09:57:01Z</time>
      </trkpt>
      <trkpt lat="47.99696" lon="6.99818">
        <ele>849</ele>
        <time>2011-08-17T09:57:19Z</time>
      </trkpt>
      <trkpt lat="47.99698" lon="6.9982">
        <ele>849</ele>
        <time>2011-08-17T09:58:09Z</time>
      </trkpt>
      <trkpt lat="47.99704" lon="6.99825">
        <ele>849</ele>
        <time>2011-08-17T10:01:30Z</time>
      </trkpt>
      <trkpt lat="47.99709" lon="6.99814">
        <ele>849</ele>
        <time>2011-08-17T10:05:24Z</time>
      </trkpt>
      <trkpt lat="47.99716" lon="6.99824">
        <ele>849</ele>
        <time>2011-08-17T10:07:44Z</time>
      </trkpt>
      <trkpt lat="47.99728" lon="6.99867">
        <ele>842</ele>
        <time>2011-08-17T10:07:54Z</time>
      </trkpt>
      <trkpt lat="47.99744" lon="6.99894">
        <ele>838</ele>
        <time>2011-08-17T10:08:05Z</time>
      </trkpt>
      <trkpt lat="47.99755" lon="6.99934">
        <ele>831</ele>
        <time>2011-08-17T10:08:15Z</time>
      </trkpt>
      <trkpt lat="47.99762" lon="6.9995">
        <ele>830</ele>
        <time>2011-08-17T10:08:20Z</time>
      </trkpt>
      <trkpt lat="47.99787" lon="6.99996">
        <ele>827</ele>
        <time>2011-08-17T10:08:31Z</time>
      </trkpt>
      <trkpt lat="47.99802" lon="7.00053">
        <ele>810</ele>
        <time>2011-08-17T10:08:43Z</time>
      </trkpt>
      <trkpt lat="47.99825" lon="7.00112">
        <ele>796</ele>
        <time>2011-08-17T10:08:54Z</time>
      </trkpt>
      <trkpt lat="47.99838" lon="7.00142">
        <ele>780</ele>
        <time>2011-08-17T10:08:57Z</time>
      </trkpt>
      <trkpt lat="47.99842" lon="7.00159">
        <ele>779</ele>
        <time>2011-08-17T10:09:06Z</time>
      </trkpt>
      <trkpt lat="47.99839" lon="7.00162">
        <ele>779</ele>
        <time>2011-08-17T10:09:16Z</time>
      </trkpt>
      <trkpt lat="47.99831" lon="7.00163">
        <ele>782</ele>
        <time>2011-08-17T10:09:24Z</time>
      </trkpt>
      <trkpt lat="47.99825" lon="7.00159">
        <ele>786</ele>
        <time>2011-08-17T10:09:33Z</time>
      </trkpt>
      <trkpt lat="47.99824" lon="7.00151">
        <ele>788</ele>
        <time>2011-08-17T10:09:38Z</time>
      </trkpt>
      <trkpt lat="47.99818" lon="7.00149">
        <ele>790</ele>
        <time>2011-08-17T10:09:44Z</time>
      </trkpt>
      <trkpt lat="47.99829" lon="7.00173">
        <ele>781</ele>
        <time>2011-08-17T10:09:54Z</time>
      </trkpt>
      <trkpt lat="47.99855" lon="7.00213">
        <ele>765</ele>
        <time>2011-08-17T10:10:04Z</time>
      </trkpt>
      <trkpt lat="47.99878" lon="7.00242">
        <ele>760</ele>
        <time>2011-08-17T10:10:14Z</time>
      </trkpt>
      <trkpt lat="47.99881" lon="7.00247">
        <ele>759</ele>
        <time>2011-08-17T10:10:18Z</time>
      </trkpt>
      <trkpt lat="47.99884" lon="7.00256">
        <ele>753</ele>
        <time>2011-08-17T10:10:31Z</time>
      </trkpt>
      <trkpt lat="47.9988" lon="7.00263">
        <ele>754</ele>
        <time>2011-08-17T10:11:09Z</time>
      </trkpt>
      <trkpt lat="47.99884" lon="7.00267">
        <ele>753</ele>
        <time>2011-08-17T10:11:11Z</time>
      </trkpt>
      <trkpt lat="47.99901" lon="7.00272">
        <ele>751</ele>
        <time>2011-08-17T10:11:17Z</time>
      </trkpt>
      <trkpt lat="47.99924" lon="7.00273">
        <ele>732</ele>
        <time>2011-08-17T10:11:27Z</time>
      </trkpt>
      <trkpt lat="47.99928" lon="7.00277">
        <ele>731</ele>
        <time>2011-08-17T10:11:29Z</time>
      </trkpt>
      <trkpt lat="47.99931" lon="7.0028">
        <ele>730</ele>
        <time>2011-08-17T10:11:31Z</time>
      </trkpt>
      <trkpt lat="47.99934" lon="7.00284">
        <ele>728</ele>
        <time>2011-08-17T10:11:35Z</time>
      </trkpt>
      <trkpt lat="47.99943" lon="7.00289">
        <ele>726</ele>
        <time>2011-08-17T10:11:37Z</time>
      </trkpt>
      <trkpt lat="47.9995" lon="7.00291">
        <ele>725</ele>
        <time>2011-08-17T10:11:51Z</time>
      </trkpt>
      <trkpt lat="47.99966" lon="7.00288">
        <ele>721</ele>
        <time>2011-08-17T10:12:05Z</time>
      </trkpt>
      <trkpt lat="47.99974" lon="7.0028">
        <ele>719</ele>
        <time>2011-08-17T10:12:35Z</time>
      </trkpt>
      <trkpt lat="47.99986" lon="7.00292">
        <ele>717</ele>
        <time>2011-08-17T10:12:56Z</time>
      </trkpt>
      <trkpt lat="47.99982" lon="7.00308">
        <ele>716</ele>
        <time>2011-08-17T10:13:05Z</time>
      </trkpt>
      <trkpt lat="47.99979" lon="7.00308">
        <ele>717</ele>
        <time>2011-08-17T10:13:29Z</time>
      </trkpt>
      <trkpt lat="47.99988" lon="7.00318">
        <ele>712</ele>
        <time>2011-08-17T10:15:01Z</time>
      </trkpt>
      <trkpt lat="47.99987" lon="7.00318">
        <ele>713</ele>
        <time>2011-08-17T10:15:28Z</time>
      </trkpt>
      <trkpt lat="48.00007" lon="7.00345">
        <ele>698</ele>
        <time>2011-08-17T10:15:39Z</time>
      </trkpt>
      <trkpt lat="48.00011" lon="7.00347">
        <ele>698</ele>
        <time>2011-08-17T10:15:44Z</time>
      </trkpt>
      <trkpt lat="48.0002" lon="7.00353">
        <ele>696</ele>
        <time>2011-08-17T10:15:48Z</time>
      </trkpt>
      <trkpt lat="48.00025" lon="7.00361">
        <ele>696</ele>
        <time>2011-08-17T10:15:51Z</time>
      </trkpt>
      <trkpt lat="48.00039" lon="7.00387">
        <ele>694</ele>
        <time>2011-08-17T10:16:00Z</time>
      </trkpt>
      <trkpt lat="48.00045" lon="7.00394">
        <ele>692</ele>
        <time>2011-08-17T10:16:02Z</time>
      </trkpt>
      <trkpt lat="48.00051" lon="7.00455">
        <ele>694</ele>
        <time>2011-08-17T10:16:14Z</time>
      </trkpt>
      <trkpt lat="48.00049" lon="7.00471">
        <ele>694</ele>
        <time>2011-08-17T10:16:18Z</time>
      </trkpt>
      <trkpt lat="48.00052" lon="7.00499">
        <ele>693</ele>
        <time>2011-08-17T10:16:32Z</time>
      </trkpt>
      <trkpt lat="48.00057" lon="7.00514">
        <ele>695</ele>
        <time>2011-08-17T10:16:45Z</time>
      </trkpt>
      <trkpt lat="48.00058" lon="7.0052">
        <ele>696</ele>
        <time>2011-08-17T10:16:49Z</time>
      </trkpt>
      <trkpt lat="48.00058" lon="7.00528">
        <ele>697</ele>
        <time>2011-08-17T10:17:02Z</time>
      </trkpt>
      <trkpt lat="48.00058" lon="7.00528">
        <ele>697</ele>
        <time>2011-08-17T10:17:12Z</time>
      </trkpt>
      <trkpt lat="48.00071" lon="7.00574">
        <ele>690</ele>
        <time>2011-08-17T10:17:24Z</time>
      </trkpt>
      <trkpt lat="48.00075" lon="7.0058">
        <ele>687</ele>
        <time>2011-08-17T10:17:27Z</time>
      </trkpt>
      <trkpt lat="48.00077" lon="7.00588">
        <ele>688</ele>
        <time>2011-08-17T10:17:30Z</time>
      </trkpt>
      <trkpt lat="48.00091" lon="7.00632">
        <ele>676</ele>
        <time>2011-08-17T10:17:41Z</time>
      </trkpt>
      <trkpt lat="48.00094" lon="7.00641">
        <ele>677</ele>
        <time>2011-08-17T10:17:44Z</time>
      </trkpt>
      <trkpt lat="48.00103" lon="7.00675">
        <ele>680</ele>
        <time>2011-08-17T10:17:54Z</time>
      </trkpt>
      <trkpt lat="48.00123" lon="7.00715">
        <ele>676</ele>
        <time>2011-08-17T10:18:05Z</time>
      </trkpt>
      <trkpt lat="48.00152" lon="7.00757">
        <ele>669</ele>
        <time>2011-08-17T10:18:17Z</time>
      </trkpt>
      <trkpt lat="48.00163" lon="7.00773">
        <ele>670</ele>
        <time>2011-08-17T10:18:20Z</time>
      </trkpt>
      <trkpt lat="48.0017" lon="7.00797">
        <ele>660</ele>
        <time>2011-08-17T10:18:23Z</time>
      </trkpt>
      <trkpt lat="48.00192" lon="7.00887">
        <ele>656</ele>
        <time>2011-08-17T10:18:32Z</time>
      </trkpt>
      <trkpt lat="48.00207" lon="7.00961">
        <ele>652</ele>
        <time>2011-08-17T10:18:39Z</time>
      </trkpt>
      <trkpt lat="48.00211" lon="7.00984">
        <ele>652</ele>
        <time>2011-08-17T10:18:41Z</time>
      </trkpt>
      <trkpt lat="48.00213" lon="7.01028">
        <ele>650</ele>
        <time>2011-08-17T10:18:45Z</time>
      </trkpt>
      <trkpt lat="48.00222" lon="7.01073">
        <ele>648</ele>
        <time>2011-08-17T10:18:49Z</time>
      </trkpt>
      <trkpt lat="48.00226" lon="7.01126">
        <ele>647</ele>
        <time>2011-08-17T10:18:53Z</time>
      </trkpt>
      <trkpt lat="48.00245" lon="7.01188">
        <ele>645</ele>
        <time>2011-08-17T10:18:58Z</time>
      </trkpt>
      <trkpt lat="48.0026" lon="7.0122">
        <ele>640</ele>
        <time>2011-08-17T10:19:01Z</time>
      </trkpt>
      <trkpt lat="48.00275" lon="7.01274">
        <ele>640</ele>
        <time>2011-08-17T10:19:06Z</time>
      </trkpt>
      <trkpt lat="48.00303" lon="7.01321">
        <ele>638</ele>
        <time>2011-08-17T10:19:10Z</time>
      </trkpt>
      <trkpt lat="48.00334" lon="7.01378">
        <ele>634</ele>
        <time>2011-08-17T10:19:15Z</time>
      </trkpt>
      <trkpt lat="48.00371" lon="7.01444">
        <ele>630</ele>
        <time>2011-08-17T10:19:21Z</time>
      </trkpt>
      <trkpt lat="48.00404" lon="7.01524">
        <ele>627</ele>
        <time>2011-08-17T10:19:29Z</time>
      </trkpt>
      <trkpt lat="48.00426" lon="7.01553">
        <ele>620</ele>
        <time>2011-08-17T10:19:36Z</time>
      </trkpt>
      <trkpt lat="48.00427" lon="7.0156">
        <ele>619</ele>
        <time>2011-08-17T10:19:39Z</time>
      </trkpt>
      <trkpt lat="48.00437" lon="7.01567">
        <ele>619</ele>
        <time>2011-08-17T10:19:43Z</time>
      </trkpt>
      <trkpt lat="48.00448" lon="7.01598">
        <ele>613</ele>
        <time>2011-08-17T10:19:49Z</time>
      </trkpt>
      <trkpt lat="48.00458" lon="7.01619">
        <ele>613</ele>
        <time>2011-08-17T10:19:52Z</time>
      </trkpt>
      <trkpt lat="48.00463" lon="7.01666">
        <ele>611</ele>
        <time>2011-08-17T10:19:56Z</time>
      </trkpt>
      <trkpt lat="48.00467" lon="7.0169">
        <ele>610</ele>
        <time>2011-08-17T10:19:58Z</time>
      </trkpt>
      <trkpt lat="48.00477" lon="7.01734">
        <ele>607</ele>
        <time>2011-08-17T10:20:02Z</time>
      </trkpt>
      <trkpt lat="48.00481" lon="7.01771">
        <ele>608</ele>
        <time>2011-08-17T10:20:05Z</time>
      </trkpt>
      <trkpt lat="48.00483" lon="7.0182">
        <ele>607</ele>
        <time>2011-08-17T10:20:09Z</time>
      </trkpt>
      <trkpt lat="48.00515" lon="7.0191">
        <ele>592</ele>
        <time>2011-08-17T10:20:16Z</time>
      </trkpt>
      <trkpt lat="48.00527" lon="7.01975">
        <ele>591</ele>
        <time>2011-08-17T10:20:21Z</time>
      </trkpt>
      <trkpt lat="48.0053" lon="7.02028">
        <ele>588</ele>
        <time>2011-08-17T10:20:25Z</time>
      </trkpt>
      <trkpt lat="48.0052" lon="7.0212">
        <ele>578</ele>
        <time>2011-08-17T10:20:32Z</time>
      </trkpt>
      <trkpt lat="48.00506" lon="7.02156">
        <ele>575</ele>
        <time>2011-08-17T10:20:36Z</time>
      </trkpt>
      <trkpt lat="48.00465" lon="7.02206">
        <ele>580</ele>
        <time>2011-08-17T10:20:44Z</time>
      </trkpt>
      <trkpt lat="48.00395" lon="7.02312">
        <ele>582</ele>
        <time>2011-08-17T10:20:55Z</time>
      </trkpt>
      <trkpt lat="48.00391" lon="7.02354">
        <ele>574</ele>
        <time>2011-08-17T10:21:01Z</time>
      </trkpt>
      <trkpt lat="48.00385" lon="7.02368">
        <ele>575</ele>
        <time>2011-08-17T10:21:03Z</time>
      </trkpt>
      <trkpt lat="48.0038" lon="7.0241">
        <ele>573</ele>
        <time>2011-08-17T10:21:08Z</time>
      </trkpt>
      <trkpt lat="48.00378" lon="7.02438">
        <ele>570</ele>
        <time>2011-08-17T10:21:11Z</time>
      </trkpt>
      <trkpt lat="48.00371" lon="7.02492">
        <ele>572</ele>
        <time>2011-08-17T10:21:16Z</time>
      </trkpt>
      <trkpt lat="48.00376" lon="7.02546">
        <ele>573</ele>
        <time>2011-08-17T10:21:22Z</time>
      </trkpt>
      <trkpt lat="48.0038" lon="7.02579">
        <ele>573</ele>
        <time>2011-08-17T10:21:26Z</time>
      </trkpt>
      <trkpt lat="48.00386" lon="7.02636">
        <ele>574</ele>
        <time>2011-08-17T10:21:33Z</time>
      </trkpt>
      <trkpt lat="48.00387" lon="7.02665">
        <ele>572</ele>
        <time>2011-08-17T10:21:37Z</time>
      </trkpt>
      <trkpt lat="48.00384" lon="7.02754">
        <ele>569</ele>
        <time>2011-08-17T10:21:48Z</time>
      </trkpt>
      <trkpt lat="48.0038" lon="7.02792">
        <ele>569</ele>
        <time>2011-08-17T10:21:52Z</time>
      </trkpt>
      <trkpt lat="48.00361" lon="7.02837">
        <ele>564</ele>
        <time>2011-08-17T10:21:57Z</time>
      </trkpt>
      <trkpt lat="48.00321" lon="7.02893">
        <ele>570</ele>
        <time>2011-08-17T10:22:07Z</time>
      </trkpt>
      <trkpt lat="48.00292" lon="7.02942">
        <ele>558</ele>
        <time>2011-08-17T10:22:14Z</time>
      </trkpt>
      <trkpt lat="48.0027" lon="7.02951">
        <ele>559</ele>
        <time>2011-08-17T10:22:18Z</time>
      </trkpt>
      <trkpt lat="48.00244" lon="7.02965">
        <ele>569</ele>
        <time>2011-08-17T10:22:22Z</time>
      </trkpt>
      <trkpt lat="48.00223" lon="7.0299">
        <ele>567</ele>
        <time>2011-08-17T10:22:26Z</time>
      </trkpt>
      <trkpt lat="48.00209" lon="7.03021">
        <ele>557</ele>
        <time>2011-08-17T10:22:31Z</time>
      </trkpt>
      <trkpt lat="48.00173" lon="7.0307">
        <ele>555</ele>
        <time>2011-08-17T10:22:40Z</time>
      </trkpt>
      <trkpt lat="48.00184" lon="7.03103">
        <ele>548</ele>
        <time>2011-08-17T10:22:48Z</time>
      </trkpt>
      <trkpt lat="48.00198" lon="7.03107">
        <ele>546</ele>
        <time>2011-08-17T10:22:52Z</time>
      </trkpt>
      <trkpt lat="48.00225" lon="7.03117">
        <ele>544</ele>
        <time>2011-08-17T10:22:58Z</time>
      </trkpt>
      <trkpt lat="48.00257" lon="7.03137">
        <ele>537</ele>
        <time>2011-08-17T10:23:07Z</time>
      </trkpt>
      <trkpt lat="48.00261" lon="7.03131">
        <ele>537</ele>
        <time>2011-08-17T10:23:12Z</time>
      </trkpt>
      <trkpt lat="48.00265" lon="7.03128">
        <ele>537</ele>
        <time>2011-08-17T10:23:26Z</time>
      </trkpt>
      <trkpt lat="48.00265" lon="7.03128">
        <ele>537</ele>
        <time>2011-08-17T10:23:28Z</time>
      </trkpt>
      <trkpt lat="48.00275" lon="7.03124">
        <ele>536</ele>
        <time>2011-08-17T10:23:43Z</time>
      </trkpt>
      <trkpt lat="48.00296" lon="7.03093">
        <ele>536</ele>
        <time>2011-08-17T10:23:54Z</time>
      </trkpt>
      <trkpt lat="48.00296" lon="7.03089">
        <ele>536</ele>
        <time>2011-08-17T10:24:06Z</time>
      </trkpt>
      <trkpt lat="48.00297" lon="7.03089">
        <ele>536</ele>
        <time>2011-08-17T10:24:53Z</time>
      </trkpt>
      <trkpt lat="48.00298" lon="7.03088">
        <ele>536</ele>
        <time>2011-08-17T10:24:55Z</time>
      </trkpt>
      <trkpt lat="48.00305" lon="7.03083">
        <ele>539</ele>
        <time>2011-08-17T10:25:00Z</time>
      </trkpt>
      <trkpt lat="48.00315" lon="7.0308">
        <ele>538</ele>
        <time>2011-08-17T10:25:12Z</time>
      </trkpt>
      <trkpt lat="48.00329" lon="7.03095">
        <ele>535</ele>
        <time>2011-08-17T10:47:47Z</time>
      </trkpt>
      <trkpt lat="48.00318" lon="7.03082">
        <ele>538</ele>
        <time>2011-08-17T10:48:25Z</time>
      </trkpt>
      <trkpt lat="48.00319" lon="7.03084">
        <ele>535</ele>
        <time>2011-08-17T10:48:43Z</time>
      </trkpt>
      <trkpt lat="48.00307" lon="7.03092">
        <ele>536</ele>
        <time>2011-08-17T10:48:55Z</time>
      </trkpt>
      <trkpt lat="48.00297" lon="7.031">
        <ele>536</ele>
        <time>2011-08-17T10:49:22Z</time>
      </trkpt>
      <trkpt lat="48.00268" lon="7.03132">
        <ele>537</ele>
        <time>2011-08-17T10:49:35Z</time>
      </trkpt>
      <trkpt lat="48.00263" lon="7.03138">
        <ele>537</ele>
        <time>2011-08-17T10:49:38Z</time>
      </trkpt>
      <trkpt lat="48.00284" lon="7.03165">
        <ele>536</ele>
        <time>2011-08-17T10:49:48Z</time>
      </trkpt>
      <trkpt lat="48.00291" lon="7.03171">
        <ele>535</ele>
        <time>2011-08-17T10:49:50Z</time>
      </trkpt>
      <trkpt lat="48.00336" lon="7.03248">
        <ele>531</ele>
        <time>2011-08-17T10:50:02Z</time>
      </trkpt>
      <trkpt lat="48.00391" lon="7.03355">
        <ele>527</ele>
        <time>2011-08-17T10:50:16Z</time>
      </trkpt>
      <trkpt lat="48.00407" lon="7.03342">
        <ele>527</ele>
        <time>2011-08-17T10:50:22Z</time>
      </trkpt>
      <trkpt lat="48.00422" lon="7.03307">
        <ele>530</ele>
        <time>2011-08-17T10:50:32Z</time>
      </trkpt>
      <trkpt lat="48.00424" lon="7.03302">
        <ele>530</ele>
        <time>2011-08-17T10:50:34Z</time>
      </trkpt>
      <trkpt lat="48.00434" lon="7.03306">
        <ele>530</ele>
        <time>2011-08-17T10:50:42Z</time>
      </trkpt>
      <trkpt lat="48.0044" lon="7.03336">
        <ele>528</ele>
        <time>2011-08-17T10:50:49Z</time>
      </trkpt>
      <trkpt lat="48.00492" lon="7.03411">
        <ele>528</ele>
        <time>2011-08-17T10:51:03Z</time>
      </trkpt>
      <trkpt lat="48.00542" lon="7.03469">
        <ele>539</ele>
        <time>2011-08-17T10:51:16Z</time>
      </trkpt>
      <trkpt lat="48.00568" lon="7.03525">
        <ele>535</ele>
        <time>2011-08-17T10:51:29Z</time>
      </trkpt>
      <trkpt lat="48.00575" lon="7.03544">
        <ele>532</ele>
        <time>2011-08-17T10:51:34Z</time>
      </trkpt>
      <trkpt lat="48.00587" lon="7.03589">
        <ele>530</ele>
        <time>2011-08-17T10:51:44Z</time>
      </trkpt>
      <trkpt lat="48.00596" lon="7.03611">
        <ele>533</ele>
        <time>2011-08-17T10:51:47Z</time>
      </trkpt>
      <trkpt lat="48.00619" lon="7.03659">
        <ele>533</ele>
        <time>2011-08-17T10:51:56Z</time>
      </trkpt>
      <trkpt lat="48.00638" lon="7.03684">
        <ele>529</ele>
        <time>2011-08-17T10:52:01Z</time>
      </trkpt>
      <trkpt lat="48.0067" lon="7.03713">
        <ele>538</ele>
        <time>2011-08-17T10:52:11Z</time>
      </trkpt>
      <trkpt lat="48.00669" lon="7.0372">
        <ele>537</ele>
        <time>2011-08-17T10:52:13Z</time>
      </trkpt>
      <trkpt lat="48.00667" lon="7.03731">
        <ele>535</ele>
        <time>2011-08-17T10:52:17Z</time>
      </trkpt>
      <trkpt lat="48.00671" lon="7.03768">
        <ele>530</ele>
        <time>2011-08-17T10:52:30Z</time>
      </trkpt>
      <trkpt lat="48.00672" lon="7.03777">
        <ele>531</ele>
        <time>2011-08-17T10:52:33Z</time>
      </trkpt>
      <trkpt lat="48.00677" lon="7.03787">
        <ele>531</ele>
        <time>2011-08-17T10:52:37Z</time>
      </trkpt>
      <trkpt lat="48.00681" lon="7.03793">
        <ele>531</ele>
        <time>2011-08-17T10:52:40Z</time>
      </trkpt>
      <trkpt lat="48.0071" lon="7.03815">
        <ele>532</ele>
        <time>2011-08-17T10:52:53Z</time>
      </trkpt>
      <trkpt lat="48.00726" lon="7.0387">
        <ele>528</ele>
        <time>2011-08-17T10:53:04Z</time>
      </trkpt>
      <trkpt lat="48.00734" lon="7.0394">
        <ele>525</ele>
        <time>2011-08-17T10:53:15Z</time>
      </trkpt>
      <trkpt lat="48.00741" lon="7.03991">
        <ele>524</ele>
        <time>2011-08-17T10:53:26Z</time>
      </trkpt>
      <trkpt lat="48.0074" lon="7.03993">
        <ele>524</ele>
        <time>2011-08-17T10:53:45Z</time>
      </trkpt>
      <trkpt lat="48.00738" lon="7.04009">
        <ele>523</ele>
        <time>2011-08-17T10:53:51Z</time>
      </trkpt>
      <trkpt lat="48.00729" lon="7.04047">
        <ele>521</ele>
        <time>2011-08-17T10:54:01Z</time>
      </trkpt>
      <trkpt lat="48.0076" lon="7.04107">
        <ele>523</ele>
        <time>2011-08-17T10:54:09Z</time>
      </trkpt>
      <trkpt lat="48.00768" lon="7.04127">
        <ele>523</ele>
        <time>2011-08-17T10:54:12Z</time>
      </trkpt>
      <trkpt lat="48.00799" lon="7.04182">
        <ele>524</ele>
        <time>2011-08-17T10:54:16Z</time>
      </trkpt>
      <trkpt lat="48.00837" lon="7.04236">
        <ele>530</ele>
        <time>2011-08-17T10:54:23Z</time>
      </trkpt>
      <trkpt lat="48.00857" lon="7.04274">
        <ele>533</ele>
        <time>2011-08-17T10:54:31Z</time>
      </trkpt>
      <trkpt lat="48.00874" lon="7.04312">
        <ele>534</ele>
        <time>2011-08-17T10:54:45Z</time>
      </trkpt>
      <trkpt lat="48.00874" lon="7.04344">
        <ele>531</ele>
        <time>2011-08-17T10:54:52Z</time>
      </trkpt>
      <trkpt lat="48.00881" lon="7.04372">
        <ele>531</ele>
        <time>2011-08-17T10:54:56Z</time>
      </trkpt>
      <trkpt lat="48.00891" lon="7.04436">
        <ele>528</ele>
        <time>2011-08-17T10:55:06Z</time>
      </trkpt>
      <trkpt lat="48.00887" lon="7.04463">
        <ele>526</ele>
        <time>2011-08-17T10:55:10Z</time>
      </trkpt>
      <trkpt lat="48.00885" lon="7.04488">
        <ele>526</ele>
        <time>2011-08-17T10:55:13Z</time>
      </trkpt>
      <trkpt lat="48.00891" lon="7.04569">
        <ele>516</ele>
        <time>2011-08-17T10:55:20Z</time>
      </trkpt>
      <trkpt lat="48.00937" lon="7.04689">
        <ele>518</ele>
        <time>2011-08-17T10:55:29Z</time>
      </trkpt>
      <trkpt lat="48.00933" lon="7.0474">
        <ele>514</ele>
        <time>2011-08-17T10:55:33Z</time>
      </trkpt>
      <trkpt lat="48.00947" lon="7.04809">
        <ele>513</ele>
        <time>2011-08-17T10:55:43Z</time>
      </trkpt>
      <trkpt lat="48.00949" lon="7.04819">
        <ele>513</ele>
        <time>2011-08-17T10:55:45Z</time>
      </trkpt>
      <trkpt lat="48.00956" lon="7.0486">
        <ele>512</ele>
        <time>2011-08-17T10:55:53Z</time>
      </trkpt>
      <trkpt lat="48.00998" lon="7.04955">
        <ele>509</ele>
        <time>2011-08-17T10:56:06Z</time>
      </trkpt>
      <trkpt lat="48.01051" lon="7.05055">
        <ele>520</ele>
        <time>2011-08-17T10:56:17Z</time>
      </trkpt>
      <trkpt lat="48.01072" lon="7.05131">
        <ele>514</ele>
        <time>2011-08-17T10:56:27Z</time>
      </trkpt>
      <trkpt lat="48.01082" lon="7.05165">
        <ele>517</ele>
        <time>2011-08-17T10:56:31Z</time>
      </trkpt>
      <trkpt lat="48.01087" lon="7.05199">
        <ele>524</ele>
        <time>2011-08-17T10:56:36Z</time>
      </trkpt>
      <trkpt lat="48.011" lon="7.05236">
        <ele>518</ele>
        <time>2011-08-17T10:56:43Z</time>
      </trkpt>
      <trkpt lat="48.01103" lon="7.05211">
        <ele>525</ele>
        <time>2011-08-17T10:56:52Z</time>
      </trkpt>
      <trkpt lat="48.01098" lon="7.05181">
        <ele>525</ele>
        <time>2011-08-17T10:57:03Z</time>
      </trkpt>
      <trkpt lat="48.01093" lon="7.05142">
        <ele>535</ele>
        <time>2011-08-17T10:57:15Z</time>
      </trkpt>
      <trkpt lat="48.0108" lon="7.05092">
        <ele>522</ele>
        <time>2011-08-17T10:57:29Z</time>
      </trkpt>
      <trkpt lat="48.01077" lon="7.05058">
        <ele>523</ele>
        <time>2011-08-17T10:57:40Z</time>
      </trkpt>
      <trkpt lat="48.01074" lon="7.0505">
        <ele>523</ele>
        <time>2011-08-17T10:57:43Z</time>
      </trkpt>
      <trkpt lat="48.01073" lon="7.05044">
        <ele>524</ele>
        <time>2011-08-17T10:57:46Z</time>
      </trkpt>
      <trkpt lat="48.01067" lon="7.05011">
        <ele>529</ele>
        <time>2011-08-17T10:58:01Z</time>
      </trkpt>
      <trkpt lat="48.01064" lon="7.04994">
        <ele>534</ele>
        <time>2011-08-17T10:58:08Z</time>
      </trkpt>
      <trkpt lat="48.01063" lon="7.04983">
        <ele>533</ele>
        <time>2011-08-17T10:58:13Z</time>
      </trkpt>
      <trkpt lat="48.01057" lon="7.0495">
        <ele>532</ele>
        <time>2011-08-17T10:58:26Z</time>
      </trkpt>
      <trkpt lat="48.01054" lon="7.0494">
        <ele>533</ele>
        <time>2011-08-17T10:58:30Z</time>
      </trkpt>
      <trkpt lat="48.01048" lon="7.04901">
        <ele>540</ele>
        <time>2011-08-17T10:58:44Z</time>
      </trkpt>
      <trkpt lat="48.01047" lon="7.04893">
        <ele>541</ele>
        <time>2011-08-17T10:58:47Z</time>
      </trkpt>
      <trkpt lat="48.01046" lon="7.0488">
        <ele>541</ele>
        <time>2011-08-17T10:58:52Z</time>
      </trkpt>
      <trkpt lat="48.01043" lon="7.04851">
        <ele>543</ele>
        <time>2011-08-17T10:59:05Z</time>
      </trkpt>
      <trkpt lat="48.01043" lon="7.04833">
        <ele>551</ele>
        <time>2011-08-17T10:59:12Z</time>
      </trkpt>
      <trkpt lat="48.01045" lon="7.04822">
        <ele>552</ele>
        <time>2011-08-17T10:59:17Z</time>
      </trkpt>
      <trkpt lat="48.01043" lon="7.04804">
        <ele>552</ele>
        <time>2011-08-17T10:59:24Z</time>
      </trkpt>
      <trkpt lat="48.01042" lon="7.04799">
        <ele>552</ele>
        <time>2011-08-17T10:59:26Z</time>
      </trkpt>
      <trkpt lat="48.01041" lon="7.04792">
        <ele>552</ele>
        <time>2011-08-17T10:59:29Z</time>
      </trkpt>
      <trkpt lat="48.01037" lon="7.04779">
        <ele>551</ele>
        <time>2011-08-17T10:59:34Z</time>
      </trkpt>
      <trkpt lat="48.01032" lon="7.04764">
        <ele>549</ele>
        <time>2011-08-17T10:59:40Z</time>
      </trkpt>
      <trkpt lat="48.01033" lon="7.04735">
        <ele>556</ele>
        <time>2011-08-17T10:59:51Z</time>
      </trkpt>
      <trkpt lat="48.01029" lon="7.04697">
        <ele>558</ele>
        <time>2011-08-17T11:00:06Z</time>
      </trkpt>
      <trkpt lat="48.01027" lon="7.04694">
        <ele>557</ele>
        <time>2011-08-17T11:00:07Z</time>
      </trkpt>
      <trkpt lat="48.01023" lon="7.04679">
        <ele>555</ele>
        <time>2011-08-17T11:00:13Z</time>
      </trkpt>
      <trkpt lat="48.01023" lon="7.04671">
        <ele>554</ele>
        <time>2011-08-17T11:00:17Z</time>
      </trkpt>
      <trkpt lat="48.01023" lon="7.04667">
        <ele>562</ele>
        <time>2011-08-17T11:00:19Z</time>
      </trkpt>
      <trkpt lat="48.01019" lon="7.04658">
        <ele>561</ele>
        <time>2011-08-17T11:00:22Z</time>
      </trkpt>
      <trkpt lat="48.01009" lon="7.04635">
        <ele>565</ele>
        <time>2011-08-17T11:00:30Z</time>
      </trkpt>
      <trkpt lat="48.0101" lon="7.04631">
        <ele>566</ele>
        <time>2011-08-17T11:00:32Z</time>
      </trkpt>
      <trkpt lat="48.01007" lon="7.04628">
        <ele>567</ele>
        <time>2011-08-17T11:00:34Z</time>
      </trkpt>
      <trkpt lat="48.01009" lon="7.04603">
        <ele>567</ele>
        <time>2011-08-17T11:00:46Z</time>
      </trkpt>
      <trkpt lat="48.01009" lon="7.04601">
        <ele>566</ele>
        <time>2011-08-17T11:00:47Z</time>
      </trkpt>
      <trkpt lat="48.01003" lon="7.04586">
        <ele>558</ele>
        <time>2011-08-17T11:00:52Z</time>
      </trkpt>
      <trkpt lat="48.00998" lon="7.04567">
        <ele>551</ele>
        <time>2011-08-17T11:01:01Z</time>
      </trkpt>
      <trkpt lat="48.00995" lon="7.04559">
        <ele>551</ele>
        <time>2011-08-17T11:01:04Z</time>
      </trkpt>
      <trkpt lat="48.00986" lon="7.04524">
        <ele>557</ele>
        <time>2011-08-17T11:01:22Z</time>
      </trkpt>
      <trkpt lat="48.00985" lon="7.04522">
        <ele>557</ele>
        <time>2011-08-17T11:01:23Z</time>
      </trkpt>
      <trkpt lat="48.00986" lon="7.04496">
        <ele>570</ele>
        <time>2011-08-17T11:01:33Z</time>
      </trkpt>
      <trkpt lat="48.00987" lon="7.04474">
        <ele>568</ele>
        <time>2011-08-17T11:01:44Z</time>
      </trkpt>
      <trkpt lat="48.0099" lon="7.04439">
        <ele>572</ele>
        <time>2011-08-17T11:01:58Z</time>
      </trkpt>
      <trkpt lat="48.0099" lon="7.04426">
        <ele>578</ele>
        <time>2011-08-17T11:02:04Z</time>
      </trkpt>
      <trkpt lat="48.00992" lon="7.04409">
        <ele>582</ele>
        <time>2011-08-17T11:02:13Z</time>
      </trkpt>
      <trkpt lat="48.00992" lon="7.04406">
        <ele>581</ele>
        <time>2011-08-17T11:02:15Z</time>
      </trkpt>
      <trkpt lat="48.00996" lon="7.04371">
        <ele>577</ele>
        <time>2011-08-17T11:02:29Z</time>
      </trkpt>
      <trkpt lat="48.01" lon="7.0434">
        <ele>601</ele>
        <time>2011-08-17T11:02:41Z</time>
      </trkpt>
      <trkpt lat="48.01003" lon="7.04329">
        <ele>600</ele>
        <time>2011-08-17T11:02:45Z</time>
      </trkpt>
      <trkpt lat="48.01004" lon="7.04318">
        <ele>606</ele>
        <time>2011-08-17T11:02:50Z</time>
      </trkpt>
      <trkpt lat="48.01005" lon="7.04299">
        <ele>611</ele>
        <time>2011-08-17T11:02:58Z</time>
      </trkpt>
      <trkpt lat="48.01006" lon="7.0429">
        <ele>611</ele>
        <time>2011-08-17T11:03:03Z</time>
      </trkpt>
      <trkpt lat="48.01008" lon="7.04282">
        <ele>610</ele>
        <time>2011-08-17T11:03:06Z</time>
      </trkpt>
      <trkpt lat="48.01012" lon="7.04272">
        <ele>609</ele>
        <time>2011-08-17T11:03:11Z</time>
      </trkpt>
      <trkpt lat="48.01021" lon="7.04251">
        <ele>609</ele>
        <time>2011-08-17T11:03:21Z</time>
      </trkpt>
      <trkpt lat="48.01027" lon="7.04237">
        <ele>607</ele>
        <time>2011-08-17T11:03:28Z</time>
      </trkpt>
      <trkpt lat="48.01041" lon="7.04213">
        <ele>612</ele>
        <time>2011-08-17T11:03:44Z</time>
      </trkpt>
      <trkpt lat="48.01054" lon="7.04187">
        <ele>614</ele>
        <time>2011-08-17T11:03:57Z</time>
      </trkpt>
      <trkpt lat="48.0106" lon="7.04178">
        <ele>617</ele>
        <time>2011-08-17T11:04:02Z</time>
      </trkpt>
      <trkpt lat="48.01067" lon="7.0417">
        <ele>620</ele>
        <time>2011-08-17T11:04:06Z</time>
      </trkpt>
      <trkpt lat="48.01084" lon="7.04138">
        <ele>629</ele>
        <time>2011-08-17T11:04:20Z</time>
      </trkpt>
      <trkpt lat="48.01098" lon="7.04121">
        <ele>628</ele>
        <time>2011-08-17T11:04:33Z</time>
      </trkpt>
      <trkpt lat="48.01103" lon="7.04113">
        <ele>627</ele>
        <time>2011-08-17T11:04:38Z</time>
      </trkpt>
      <trkpt lat="48.01105" lon="7.04108">
        <ele>626</ele>
        <time>2011-08-17T11:04:41Z</time>
      </trkpt>
      <trkpt lat="48.01132" lon="7.04095">
        <ele>630</ele>
        <time>2011-08-17T11:04:57Z</time>
      </trkpt>
      <trkpt lat="48.01143" lon="7.04089">
        <ele>632</ele>
        <time>2011-08-17T11:05:07Z</time>
      </trkpt>
      <trkpt lat="48.01154" lon="7.0409">
        <ele>633</ele>
        <time>2011-08-17T11:05:20Z</time>
      </trkpt>
      <trkpt lat="48.01161" lon="7.04079">
        <ele>626</ele>
        <time>2011-08-17T11:05:40Z</time>
      </trkpt>
      <trkpt lat="48.01182" lon="7.0407">
        <ele>630</ele>
        <time>2011-08-17T11:05:48Z</time>
      </trkpt>
      <trkpt lat="48.01187" lon="7.04066">
        <ele>630</ele>
        <time>2011-08-17T11:05:51Z</time>
      </trkpt>
      <trkpt lat="48.01195" lon="7.04062">
        <ele>630</ele>
        <time>2011-08-17T11:05:56Z</time>
      </trkpt>
      <trkpt lat="48.01211" lon="7.04053">
        <ele>631</ele>
        <time>2011-08-17T11:06:05Z</time>
      </trkpt>
      <trkpt lat="48.01219" lon="7.04047">
        <ele>631</ele>
        <time>2011-08-17T11:06:11Z</time>
      </trkpt>
      <trkpt lat="48.01225" lon="7.04044">
        <ele>631</ele>
        <time>2011-08-17T11:06:16Z</time>
      </trkpt>
      <trkpt lat="48.01229" lon="7.04039">
        <ele>630</ele>
        <time>2011-08-17T11:06:19Z</time>
      </trkpt>
      <trkpt lat="48.01248" lon="7.04027">
        <ele>628</ele>
        <time>2011-08-17T11:06:33Z</time>
      </trkpt>
      <trkpt lat="48.01278" lon="7.0401">
        <ele>646</ele>
        <time>2011-08-17T11:06:48Z</time>
      </trkpt>
      <trkpt lat="48.01281" lon="7.0401">
        <ele>647</ele>
        <time>2011-08-17T11:06:50Z</time>
      </trkpt>
      <trkpt lat="48.01313" lon="7.03996">
        <ele>636</ele>
        <time>2011-08-17T11:07:02Z</time>
      </trkpt>
      <trkpt lat="48.01335" lon="7.03984">
        <ele>652</ele>
        <time>2011-08-17T11:07:14Z</time>
      </trkpt>
      <trkpt lat="48.01349" lon="7.03976">
        <ele>652</ele>
        <time>2011-08-17T11:07:25Z</time>
      </trkpt>
      <trkpt lat="48.01369" lon="7.03964">
        <ele>653</ele>
        <time>2011-08-17T11:07:39Z</time>
      </trkpt>
      <trkpt lat="48.01391" lon="7.0395">
        <ele>654</ele>
        <time>2011-08-17T11:07:52Z</time>
      </trkpt>
      <trkpt lat="48.01415" lon="7.03939">
        <ele>655</ele>
        <time>2011-08-17T11:08:08Z</time>
      </trkpt>
      <trkpt lat="48.0142" lon="7.03936">
        <ele>672</ele>
        <time>2011-08-17T11:08:12Z</time>
      </trkpt>
      <trkpt lat="48.01441" lon="7.03921">
        <ele>676</ele>
        <time>2011-08-17T11:08:26Z</time>
      </trkpt>
      <trkpt lat="48.01446" lon="7.0391">
        <ele>659</ele>
        <time>2011-08-17T11:08:32Z</time>
      </trkpt>
      <trkpt lat="48.01449" lon="7.03904">
        <ele>659</ele>
        <time>2011-08-17T11:08:35Z</time>
      </trkpt>
      <trkpt lat="48.01463" lon="7.03895">
        <ele>662</ele>
        <time>2011-08-17T11:08:43Z</time>
      </trkpt>
      <trkpt lat="48.0148" lon="7.03876">
        <ele>662</ele>
        <time>2011-08-17T11:08:57Z</time>
      </trkpt>
      <trkpt lat="48.01488" lon="7.03867">
        <ele>661</ele>
        <time>2011-08-17T11:09:03Z</time>
      </trkpt>
      <trkpt lat="48.01507" lon="7.03847">
        <ele>680</ele>
        <time>2011-08-17T11:09:17Z</time>
      </trkpt>
      <trkpt lat="48.01525" lon="7.03828">
        <ele>670</ele>
        <time>2011-08-17T11:09:29Z</time>
      </trkpt>
      <trkpt lat="48.01545" lon="7.03802">
        <ele>675</ele>
        <time>2011-08-17T11:09:45Z</time>
      </trkpt>
      <trkpt lat="48.0156" lon="7.03785">
        <ele>676</ele>
        <time>2011-08-17T11:09:58Z</time>
      </trkpt>
      <trkpt lat="48.01563" lon="7.03782">
        <ele>676</ele>
        <time>2011-08-17T11:10:00Z</time>
      </trkpt>
      <trkpt lat="48.01576" lon="7.0376">
        <ele>678</ele>
        <time>2011-08-17T11:10:11Z</time>
      </trkpt>
      <trkpt lat="48.01602" lon="7.03734">
        <ele>686</ele>
        <time>2011-08-17T11:10:27Z</time>
      </trkpt>
      <trkpt lat="48.01627" lon="7.03714">
        <ele>689</ele>
        <time>2011-08-17T11:10:41Z</time>
      </trkpt>
      <trkpt lat="48.01628" lon="7.03712">
        <ele>689</ele>
        <time>2011-08-17T11:10:42Z</time>
      </trkpt>
      <trkpt lat="48.0163" lon="7.03709">
        <ele>689</ele>
        <time>2011-08-17T11:10:44Z</time>
      </trkpt>
      <trkpt lat="48.01651" lon="7.03703">
        <ele>693</ele>
        <time>2011-08-17T11:10:59Z</time>
      </trkpt>
      <trkpt lat="48.01668" lon="7.03701">
        <ele>722</ele>
        <time>2011-08-17T11:11:09Z</time>
      </trkpt>
      <trkpt lat="48.01684" lon="7.03697">
        <ele>723</ele>
        <time>2011-08-17T11:11:20Z</time>
      </trkpt>
      <trkpt lat="48.01691" lon="7.03695">
        <ele>724</ele>
        <time>2011-08-17T11:11:24Z</time>
      </trkpt>
      <trkpt lat="48.0173" lon="7.03685">
        <ele>730</ele>
        <time>2011-08-17T11:11:36Z</time>
      </trkpt>
      <trkpt lat="48.01772" lon="7.03671">
        <ele>746</ele>
        <time>2011-08-17T11:11:49Z</time>
      </trkpt>
      <trkpt lat="48.01812" lon="7.03643">
        <ele>730</ele>
        <time>2011-08-17T11:11:59Z</time>
      </trkpt>
      <trkpt lat="48.01846" lon="7.03632">
        <ele>746</ele>
        <time>2011-08-17T11:12:10Z</time>
      </trkpt>
      <trkpt lat="48.01859" lon="7.03618">
        <ele>745</ele>
        <time>2011-08-17T11:12:22Z</time>
      </trkpt>
      <trkpt lat="48.01864" lon="7.03614">
        <ele>745</ele>
        <time>2011-08-17T11:12:29Z</time>
      </trkpt>
      <trkpt lat="48.01866" lon="7.03578">
        <ele>729</ele>
        <time>2011-08-17T11:12:42Z</time>
      </trkpt>
      <trkpt lat="48.01868" lon="7.03561">
        <ele>728</ele>
        <time>2011-08-17T11:12:45Z</time>
      </trkpt>
      <trkpt lat="48.0188" lon="7.03545">
        <ele>729</ele>
        <time>2011-08-17T11:12:57Z</time>
      </trkpt>
      <trkpt lat="48.01895" lon="7.03528">
        <ele>730</ele>
        <time>2011-08-17T11:13:09Z</time>
      </trkpt>
      <trkpt lat="48.01901" lon="7.03522">
        <ele>731</ele>
        <time>2011-08-17T11:13:14Z</time>
      </trkpt>
      <trkpt lat="48.01914" lon="7.03504">
        <ele>736</ele>
        <time>2011-08-17T11:13:29Z</time>
      </trkpt>
      <trkpt lat="48.01916" lon="7.03503">
        <ele>737</ele>
        <time>2011-08-17T11:13:30Z</time>
      </trkpt>
      <trkpt lat="48.0193" lon="7.03482">
        <ele>741</ele>
        <time>2011-08-17T11:13:44Z</time>
      </trkpt>
      <trkpt lat="48.01941" lon="7.03446">
        <ele>737</ele>
        <time>2011-08-17T11:13:59Z</time>
      </trkpt>
      <trkpt lat="48.01939" lon="7.03439">
        <ele>734</ele>
        <time>2011-08-17T11:14:22Z</time>
      </trkpt>
      <trkpt lat="48.0194" lon="7.03438">
        <ele>734</ele>
        <time>2011-08-17T11:15:17Z</time>
      </trkpt>
      <trkpt lat="48.01939" lon="7.03436">
        <ele>733</ele>
        <time>2011-08-17T11:15:36Z</time>
      </trkpt>
      <trkpt lat="48.01939" lon="7.03433">
        <ele>732</ele>
        <time>2011-08-17T11:15:39Z</time>
      </trkpt>
      <trkpt lat="48.01941" lon="7.03429">
        <ele>733</ele>
        <time>2011-08-17T11:15:50Z</time>
      </trkpt>
      <trkpt lat="48.0195" lon="7.03424">
        <ele>736</ele>
        <time>2011-08-17T11:16:11Z</time>
      </trkpt>
      <trkpt lat="48.01971" lon="7.03415">
        <ele>723</ele>
        <time>2011-08-17T11:16:25Z</time>
      </trkpt>
      <trkpt lat="48.01989" lon="7.03408">
        <ele>732</ele>
        <time>2011-08-17T11:16:37Z</time>
      </trkpt>
      <trkpt lat="48.02007" lon="7.03393">
        <ele>751</ele>
        <time>2011-08-17T11:16:50Z</time>
      </trkpt>
      <trkpt lat="48.02032" lon="7.03363">
        <ele>751</ele>
        <time>2011-08-17T11:17:08Z</time>
      </trkpt>
      <trkpt lat="48.02052" lon="7.03335">
        <ele>754</ele>
        <time>2011-08-17T11:17:23Z</time>
      </trkpt>
      <trkpt lat="48.02066" lon="7.0332">
        <ele>740</ele>
        <time>2011-08-17T11:17:33Z</time>
      </trkpt>
      <trkpt lat="48.0207" lon="7.03313">
        <ele>739</ele>
        <time>2011-08-17T11:17:37Z</time>
      </trkpt>
      <trkpt lat="48.0209" lon="7.03281">
        <ele>766</ele>
        <time>2011-08-17T11:17:54Z</time>
      </trkpt>
      <trkpt lat="48.02092" lon="7.03278">
        <ele>765</ele>
        <time>2011-08-17T11:17:56Z</time>
      </trkpt>
      <trkpt lat="48.0211" lon="7.03241">
        <ele>750</ele>
        <time>2011-08-17T11:18:14Z</time>
      </trkpt>
      <trkpt lat="48.02118" lon="7.0322">
        <ele>752</ele>
        <time>2011-08-17T11:18:24Z</time>
      </trkpt>
      <trkpt lat="48.02124" lon="7.03177">
        <ele>749</ele>
        <time>2011-08-17T11:18:40Z</time>
      </trkpt>
      <trkpt lat="48.02137" lon="7.03148">
        <ele>741</ele>
        <time>2011-08-17T11:18:53Z</time>
      </trkpt>
      <trkpt lat="48.0216" lon="7.03127">
        <ele>745</ele>
        <time>2011-08-17T11:19:08Z</time>
      </trkpt>
      <trkpt lat="48.02169" lon="7.031">
        <ele>781</ele>
        <time>2011-08-17T11:19:19Z</time>
      </trkpt>
      <trkpt lat="48.02179" lon="7.03069">
        <ele>770</ele>
        <time>2011-08-17T11:19:32Z</time>
      </trkpt>
      <trkpt lat="48.022" lon="7.03041">
        <ele>776</ele>
        <time>2011-08-17T11:19:48Z</time>
      </trkpt>
      <trkpt lat="48.02197" lon="7.03024">
        <ele>771</ele>
        <time>2011-08-17T11:19:53Z</time>
      </trkpt>
      <trkpt lat="48.02199" lon="7.02997">
        <ele>756</ele>
        <time>2011-08-17T11:19:56Z</time>
      </trkpt>
      <trkpt lat="48.02199" lon="7.02983">
        <ele>756</ele>
        <time>2011-08-17T11:20:08Z</time>
      </trkpt>
      <trkpt lat="48.02195" lon="7.02959">
        <ele>754</ele>
        <time>2011-08-17T11:20:51Z</time>
      </trkpt>
      <trkpt lat="48.02195" lon="7.02956">
        <ele>754</ele>
        <time>2011-08-17T11:20:52Z</time>
      </trkpt>
      <trkpt lat="48.02201" lon="7.02921">
        <ele>753</ele>
        <time>2011-08-17T11:21:05Z</time>
      </trkpt>
      <trkpt lat="48.02219" lon="7.0289">
        <ele>754</ele>
        <time>2011-08-17T11:21:21Z</time>
      </trkpt>
      <trkpt lat="48.02242" lon="7.02869">
        <ele>757</ele>
        <time>2011-08-17T11:21:36Z</time>
      </trkpt>
      <trkpt lat="48.02247" lon="7.02865">
        <ele>758</ele>
        <time>2011-08-17T11:21:41Z</time>
      </trkpt>
      <trkpt lat="48.02274" lon="7.02825">
        <ele>780</ele>
        <time>2011-08-17T11:22:01Z</time>
      </trkpt>
      <trkpt lat="48.02285" lon="7.02803">
        <ele>784</ele>
        <time>2011-08-17T11:22:12Z</time>
      </trkpt>
      <trkpt lat="48.02288" lon="7.02772">
        <ele>784</ele>
        <time>2011-08-17T11:22:23Z</time>
      </trkpt>
      <trkpt lat="48.02289" lon="7.02767">
        <ele>784</ele>
        <time>2011-08-17T11:22:26Z</time>
      </trkpt>
      <trkpt lat="48.0229" lon="7.02762">
        <ele>784</ele>
        <time>2011-08-17T11:22:29Z</time>
      </trkpt>
      <trkpt lat="48.02289" lon="7.02743">
        <ele>783</ele>
        <time>2011-08-17T11:22:36Z</time>
      </trkpt>
      <trkpt lat="48.02292" lon="7.02732">
        <ele>784</ele>
        <time>2011-08-17T11:22:41Z</time>
      </trkpt>
      <trkpt lat="48.02305" lon="7.02711">
        <ele>786</ele>
        <time>2011-08-17T11:22:54Z</time>
      </trkpt>
      <trkpt lat="48.02329" lon="7.02686">
        <ele>790</ele>
        <time>2011-08-17T11:23:08Z</time>
      </trkpt>
      <trkpt lat="48.02338" lon="7.02672">
        <ele>799</ele>
        <time>2011-08-17T11:23:16Z</time>
      </trkpt>
      <trkpt lat="48.02343" lon="7.02644">
        <ele>804</ele>
        <time>2011-08-17T11:23:27Z</time>
      </trkpt>
      <trkpt lat="48.02346" lon="7.02626">
        <ele>805</ele>
        <time>2011-08-17T11:23:35Z</time>
      </trkpt>
      <trkpt lat="48.02355" lon="7.02589">
        <ele>804</ele>
        <time>2011-08-17T11:23:49Z</time>
      </trkpt>
      <trkpt lat="48.02356" lon="7.02584">
        <ele>804</ele>
        <time>2011-08-17T11:23:51Z</time>
      </trkpt>
      <trkpt lat="48.02363" lon="7.02554">
        <ele>809</ele>
        <time>2011-08-17T11:24:04Z</time>
      </trkpt>
      <trkpt lat="48.02365" lon="7.02547">
        <ele>810</ele>
        <time>2011-08-17T11:24:10Z</time>
      </trkpt>
      <trkpt lat="48.02367" lon="7.02522">
        <ele>812</ele>
        <time>2011-08-17T11:24:18Z</time>
      </trkpt>
      <trkpt lat="48.02369" lon="7.02518">
        <ele>812</ele>
        <time>2011-08-17T11:24:20Z</time>
      </trkpt>
      <trkpt lat="48.02358" lon="7.02477">
        <ele>814</ele>
        <time>2011-08-17T11:24:35Z</time>
      </trkpt>
      <trkpt lat="48.02356" lon="7.02471">
        <ele>814</ele>
        <time>2011-08-17T11:25:08Z</time>
      </trkpt>
      <trkpt lat="48.02352" lon="7.02466">
        <ele>814</ele>
        <time>2011-08-17T11:25:34Z</time>
      </trkpt>
      <trkpt lat="48.02348" lon="7.02462">
        <ele>813</ele>
        <time>2011-08-17T11:25:36Z</time>
      </trkpt>
      <trkpt lat="48.02335" lon="7.02433">
        <ele>811</ele>
        <time>2011-08-17T11:25:49Z</time>
      </trkpt>
      <trkpt lat="48.02329" lon="7.02412">
        <ele>810</ele>
        <time>2011-08-17T11:25:56Z</time>
      </trkpt>
      <trkpt lat="48.02315" lon="7.0239">
        <ele>820</ele>
        <time>2011-08-17T11:26:09Z</time>
      </trkpt>
      <trkpt lat="48.02315" lon="7.0239">
        <ele>820</ele>
        <time>2011-08-17T11:26:13Z</time>
      </trkpt>
      <trkpt lat="48.02304" lon="7.02396">
        <ele>821</ele>
        <time>2011-08-17T11:26:29Z</time>
      </trkpt>
      <trkpt lat="48.02304" lon="7.02392">
        <ele>822</ele>
        <time>2011-08-17T11:26:43Z</time>
      </trkpt>
      <trkpt lat="48.02307" lon="7.02389">
        <ele>822</ele>
        <time>2011-08-17T11:26:51Z</time>
      </trkpt>
      <trkpt lat="48.02317" lon="7.02377">
        <ele>822</ele>
        <time>2011-08-17T11:27:08Z</time>
      </trkpt>
      <trkpt lat="48.02314" lon="7.02369">
        <ele>824</ele>
        <time>2011-08-17T11:27:18Z</time>
      </trkpt>
      <trkpt lat="48.0232" lon="7.02359">
        <ele>824</ele>
        <time>2011-08-17T11:27:31Z</time>
      </trkpt>
      <trkpt lat="48.02322" lon="7.02358">
        <ele>823</ele>
        <time>2011-08-17T11:27:47Z</time>
      </trkpt>
      <trkpt lat="48.02319" lon="7.0236">
        <ele>824</ele>
        <time>2011-08-17T11:28:01Z</time>
      </trkpt>
      <trkpt lat="48.02315" lon="7.02354">
        <ele>825</ele>
        <time>2011-08-17T11:33:01Z</time>
      </trkpt>
      <trkpt lat="48.02307" lon="7.02353">
        <ele>826</ele>
        <time>2011-08-17T11:34:24Z</time>
      </trkpt>
      <trkpt lat="48.02307" lon="7.02353">
        <ele>826</ele>
        <time>2011-08-17T11:34:34Z</time>
      </trkpt>
      <trkpt lat="48.02304" lon="7.0236">
        <ele>826</ele>
        <time>2011-08-17T11:34:44Z</time>
      </trkpt>
      <trkpt lat="48.02302" lon="7.02376">
        <ele>825</ele>
        <time>2011-08-17T11:35:03Z</time>
      </trkpt>
      <trkpt lat="48.02299" lon="7.0238">
        <ele>825</ele>
        <time>2011-08-17T11:35:13Z</time>
      </trkpt>
      <trkpt lat="48.02296" lon="7.02389">
        <ele>824</ele>
        <time>2011-08-17T11:35:26Z</time>
      </trkpt>
      <trkpt lat="48.02294" lon="7.02405">
        <ele>822</ele>
        <time>2011-08-17T11:35:45Z</time>
      </trkpt>
      <trkpt lat="48.02289" lon="7.024">
        <ele>823</ele>
        <time>2011-08-17T11:36:05Z</time>
      </trkpt>
      <trkpt lat="48.02275" lon="7.02409">
        <ele>823</ele>
        <time>2011-08-17T11:36:17Z</time>
      </trkpt>
      <trkpt lat="48.02269" lon="7.02425">
        <ele>810</ele>
        <time>2011-08-17T11:36:38Z</time>
      </trkpt>
      <trkpt lat="48.02248" lon="7.02444">
        <ele>819</ele>
        <time>2011-08-17T11:36:51Z</time>
      </trkpt>
      <trkpt lat="48.02234" lon="7.02453">
        <ele>819</ele>
        <time>2011-08-17T11:36:59Z</time>
      </trkpt>
      <trkpt lat="48.02217" lon="7.02455">
        <ele>821</ele>
        <time>2011-08-17T11:37:08Z</time>
      </trkpt>
      <trkpt lat="48.02207" lon="7.02466">
        <ele>821</ele>
        <time>2011-08-17T11:37:18Z</time>
      </trkpt>
      <trkpt lat="48.02199" lon="7.02483">
        <ele>820</ele>
        <time>2011-08-17T11:37:26Z</time>
      </trkpt>
      <trkpt lat="48.02192" lon="7.02521">
        <ele>802</ele>
        <time>2011-08-17T11:37:39Z</time>
      </trkpt>
      <trkpt lat="48.02194" lon="7.02531">
        <ele>800</ele>
        <time>2011-08-17T11:37:43Z</time>
      </trkpt>
      <trkpt lat="48.02155" lon="7.02571">
        <ele>806</ele>
        <time>2011-08-17T11:38:00Z</time>
      </trkpt>
      <trkpt lat="48.02111" lon="7.02579">
        <ele>817</ele>
        <time>2011-08-17T11:38:16Z</time>
      </trkpt>
      <trkpt lat="48.02106" lon="7.02574">
        <ele>818</ele>
        <time>2011-08-17T11:38:19Z</time>
      </trkpt>
      <trkpt lat="48.02083" lon="7.02555">
        <ele>822</ele>
        <time>2011-08-17T11:38:31Z</time>
      </trkpt>
      <trkpt lat="48.02077" lon="7.02552">
        <ele>837</ele>
        <time>2011-08-17T11:38:34Z</time>
      </trkpt>
      <trkpt lat="48.02049" lon="7.02569">
        <ele>838</ele>
        <time>2011-08-17T11:38:49Z</time>
      </trkpt>
      <trkpt lat="48.02027" lon="7.02577">
        <ele>840</ele>
        <time>2011-08-17T11:38:59Z</time>
      </trkpt>
      <trkpt lat="48.0201" lon="7.02585">
        <ele>827</ele>
        <time>2011-08-17T11:39:08Z</time>
      </trkpt>
      <trkpt lat="48.02001" lon="7.02599">
        <ele>824</ele>
        <time>2011-08-17T11:39:15Z</time>
      </trkpt>
      <trkpt lat="48.01982" lon="7.02616">
        <ele>826</ele>
        <time>2011-08-17T11:39:30Z</time>
      </trkpt>
      <trkpt lat="48.01944" lon="7.02628">
        <ele>826</ele>
        <time>2011-08-17T11:39:54Z</time>
      </trkpt>
      <trkpt lat="48.01917" lon="7.02631">
        <ele>826</ele>
        <time>2011-08-17T11:40:10Z</time>
      </trkpt>
      <trkpt lat="48.01892" lon="7.02626">
        <ele>834</ele>
        <time>2011-08-17T11:40:26Z</time>
      </trkpt>
      <trkpt lat="48.01874" lon="7.02621">
        <ele>835</ele>
        <time>2011-08-17T11:40:37Z</time>
      </trkpt>
      <trkpt lat="48.01854" lon="7.02618">
        <ele>836</ele>
        <time>2011-08-17T11:40:49Z</time>
      </trkpt>
      <trkpt lat="48.01853" lon="7.02618">
        <ele>836</ele>
        <time>2011-08-17T11:40:50Z</time>
      </trkpt>
      <trkpt lat="48.01822" lon="7.02615">
        <ele>834</ele>
        <time>2011-08-17T11:41:06Z</time>
      </trkpt>
      <trkpt lat="48.01795" lon="7.02596">
        <ele>835</ele>
        <time>2011-08-17T11:41:26Z</time>
      </trkpt>
      <trkpt lat="48.01779" lon="7.02576">
        <ele>859</ele>
        <time>2011-08-17T11:41:39Z</time>
      </trkpt>
      <trkpt lat="48.01766" lon="7.02564">
        <ele>858</ele>
        <time>2011-08-17T11:41:50Z</time>
      </trkpt>
      <trkpt lat="48.01751" lon="7.02549">
        <ele>862</ele>
        <time>2011-08-17T11:42:01Z</time>
      </trkpt>
      <trkpt lat="48.01732" lon="7.02523">
        <ele>867</ele>
        <time>2011-08-17T11:42:15Z</time>
      </trkpt>
      <trkpt lat="48.01724" lon="7.02515">
        <ele>868</ele>
        <time>2011-08-17T11:42:21Z</time>
      </trkpt>
      <trkpt lat="48.01705" lon="7.0251">
        <ele>869</ele>
        <time>2011-08-17T11:42:35Z</time>
      </trkpt>
      <trkpt lat="48.0168" lon="7.02517">
        <ele>872</ele>
        <time>2011-08-17T11:42:49Z</time>
      </trkpt>
      <trkpt lat="48.01676" lon="7.02518">
        <ele>872</ele>
        <time>2011-08-17T11:42:51Z</time>
      </trkpt>
      <trkpt lat="48.01657" lon="7.02526">
        <ele>880</ele>
        <time>2011-08-17T11:43:02Z</time>
      </trkpt>
      <trkpt lat="48.01654" lon="7.02529">
        <ele>879</ele>
        <time>2011-08-17T11:43:04Z</time>
      </trkpt>
      <trkpt lat="48.01648" lon="7.0253">
        <ele>879</ele>
        <time>2011-08-17T11:43:08Z</time>
      </trkpt>
      <trkpt lat="48.01646" lon="7.02526">
        <ele>880</ele>
        <time>2011-08-17T11:43:23Z</time>
      </trkpt>
      <trkpt lat="48.01645" lon="7.02528">
        <ele>880</ele>
        <time>2011-08-17T11:44:48Z</time>
      </trkpt>
      <trkpt lat="48.01622" lon="7.02549">
        <ele>879</ele>
        <time>2011-08-17T11:45:03Z</time>
      </trkpt>
      <trkpt lat="48.01602" lon="7.02564">
        <ele>879</ele>
        <time>2011-08-17T11:45:15Z</time>
      </trkpt>
      <trkpt lat="48.0158" lon="7.02586">
        <ele>877</ele>
        <time>2011-08-17T11:45:29Z</time>
      </trkpt>
      <trkpt lat="48.01554" lon="7.02605">
        <ele>875</ele>
        <time>2011-08-17T11:45:44Z</time>
      </trkpt>
      <trkpt lat="48.01546" lon="7.0261">
        <ele>876</ele>
        <time>2011-08-17T11:45:49Z</time>
      </trkpt>
      <trkpt lat="48.01522" lon="7.02625">
        <ele>876</ele>
        <time>2011-08-17T11:46:04Z</time>
      </trkpt>
      <trkpt lat="48.01502" lon="7.02636">
        <ele>874</ele>
        <time>2011-08-17T11:46:18Z</time>
      </trkpt>
      <trkpt lat="48.01481" lon="7.02639">
        <ele>882</ele>
        <time>2011-08-17T11:46:30Z</time>
      </trkpt>
      <trkpt lat="48.01479" lon="7.02639">
        <ele>882</ele>
        <time>2011-08-17T11:46:31Z</time>
      </trkpt>
      <trkpt lat="48.01452" lon="7.02645">
        <ele>882</ele>
        <time>2011-08-17T11:46:46Z</time>
      </trkpt>
      <trkpt lat="48.01427" lon="7.0265">
        <ele>879</ele>
        <time>2011-08-17T11:47:01Z</time>
      </trkpt>
      <trkpt lat="48.01401" lon="7.02652">
        <ele>878</ele>
        <time>2011-08-17T11:47:15Z</time>
      </trkpt>
      <trkpt lat="48.01399" lon="7.02652">
        <ele>879</ele>
        <time>2011-08-17T11:47:16Z</time>
      </trkpt>
      <trkpt lat="48.01382" lon="7.02653">
        <ele>879</ele>
        <time>2011-08-17T11:47:25Z</time>
      </trkpt>
      <trkpt lat="48.0135" lon="7.02639">
        <ele>879</ele>
        <time>2011-08-17T11:47:42Z</time>
      </trkpt>
      <trkpt lat="48.01338" lon="7.02637">
        <ele>879</ele>
        <time>2011-08-17T11:47:49Z</time>
      </trkpt>
      <trkpt lat="48.0133" lon="7.02632">
        <ele>869</ele>
        <time>2011-08-17T11:47:53Z</time>
      </trkpt>
      <trkpt lat="48.01318" lon="7.02588">
        <ele>875</ele>
        <time>2011-08-17T11:48:09Z</time>
      </trkpt>
      <trkpt lat="48.01318" lon="7.02563">
        <ele>871</ele>
        <time>2011-08-17T11:48:18Z</time>
      </trkpt>
      <trkpt lat="48.01321" lon="7.02543">
        <ele>869</ele>
        <time>2011-08-17T11:48:25Z</time>
      </trkpt>
      <trkpt lat="48.01323" lon="7.02531">
        <ele>869</ele>
        <time>2011-08-17T11:48:29Z</time>
      </trkpt>
      <trkpt lat="48.01324" lon="7.02526">
        <ele>870</ele>
        <time>2011-08-17T11:48:31Z</time>
      </trkpt>
      <trkpt lat="48.01336" lon="7.02488">
        <ele>885</ele>
        <time>2011-08-17T11:48:46Z</time>
      </trkpt>
      <trkpt lat="48.01341" lon="7.02478">
        <ele>888</ele>
        <time>2011-08-17T11:48:50Z</time>
      </trkpt>
      <trkpt lat="48.01355" lon="7.02438">
        <ele>888</ele>
        <time>2011-08-17T11:49:06Z</time>
      </trkpt>
      <trkpt lat="48.01364" lon="7.02418">
        <ele>889</ele>
        <time>2011-08-17T11:49:14Z</time>
      </trkpt>
      <trkpt lat="48.01369" lon="7.02406">
        <ele>886</ele>
        <time>2011-08-17T11:49:19Z</time>
      </trkpt>
      <trkpt lat="48.0138" lon="7.02369">
        <ele>887</ele>
        <time>2011-08-17T11:49:34Z</time>
      </trkpt>
      <trkpt lat="48.01386" lon="7.02365">
        <ele>888</ele>
        <time>2011-08-17T11:49:38Z</time>
      </trkpt>
      <trkpt lat="48.01393" lon="7.02369">
        <ele>890</ele>
        <time>2011-08-17T11:49:43Z</time>
      </trkpt>
      <trkpt lat="48.01394" lon="7.02373">
        <ele>891</ele>
        <time>2011-08-17T11:49:45Z</time>
      </trkpt>
      <trkpt lat="48.01388" lon="7.02402">
        <ele>892</ele>
        <time>2011-08-17T11:49:58Z</time>
      </trkpt>
      <trkpt lat="48.01386" lon="7.02406">
        <ele>892</ele>
        <time>2011-08-17T11:50:00Z</time>
      </trkpt>
      <trkpt lat="48.01376" lon="7.02452">
        <ele>895</ele>
        <time>2011-08-17T11:50:19Z</time>
      </trkpt>
      <trkpt lat="48.01376" lon="7.02451">
        <ele>895</ele>
        <time>2011-08-17T11:50:52Z</time>
      </trkpt>
      <trkpt lat="48.01373" lon="7.02465">
        <ele>895</ele>
        <time>2011-08-17T11:51:31Z</time>
      </trkpt>
      <trkpt lat="48.01363" lon="7.02501">
        <ele>894</ele>
        <time>2011-08-17T11:51:47Z</time>
      </trkpt>
      <trkpt lat="48.0136" lon="7.02512">
        <ele>893</ele>
        <time>2011-08-17T11:51:51Z</time>
      </trkpt>
      <trkpt lat="48.01356" lon="7.0257">
        <ele>893</ele>
        <time>2011-08-17T11:52:11Z</time>
      </trkpt>
      <trkpt lat="48.01362" lon="7.02577">
        <ele>894</ele>
        <time>2011-08-17T11:52:15Z</time>
      </trkpt>
      <trkpt lat="48.01364" lon="7.02579">
        <ele>894</ele>
        <time>2011-08-17T11:52:17Z</time>
      </trkpt>
      <trkpt lat="48.01393" lon="7.02573">
        <ele>900</ele>
        <time>2011-08-17T11:52:33Z</time>
      </trkpt>
      <trkpt lat="48.01403" lon="7.02573">
        <ele>902</ele>
        <time>2011-08-17T11:52:39Z</time>
      </trkpt>
      <trkpt lat="48.01432" lon="7.02569">
        <ele>910</ele>
        <time>2011-08-17T11:52:53Z</time>
      </trkpt>
      <trkpt lat="48.01455" lon="7.02557">
        <ele>913</ele>
        <time>2011-08-17T11:53:05Z</time>
      </trkpt>
      <trkpt lat="48.01482" lon="7.02543">
        <ele>915</ele>
        <time>2011-08-17T11:53:18Z</time>
      </trkpt>
      <trkpt lat="48.01508" lon="7.02519">
        <ele>918</ele>
        <time>2011-08-17T11:53:32Z</time>
      </trkpt>
      <trkpt lat="48.01537" lon="7.0249">
        <ele>929</ele>
        <time>2011-08-17T11:53:47Z</time>
      </trkpt>
      <trkpt lat="48.01544" lon="7.02478">
        <ele>928</ele>
        <time>2011-08-17T11:53:52Z</time>
      </trkpt>
      <trkpt lat="48.0156" lon="7.02435">
        <ele>931</ele>
        <time>2011-08-17T11:54:08Z</time>
      </trkpt>
      <trkpt lat="48.0158" lon="7.02406">
        <ele>937</ele>
        <time>2011-08-17T11:54:20Z</time>
      </trkpt>
      <trkpt lat="48.01602" lon="7.02385">
        <ele>938</ele>
        <time>2011-08-17T11:54:32Z</time>
      </trkpt>
      <trkpt lat="48.01618" lon="7.02371">
        <ele>939</ele>
        <time>2011-08-17T11:54:41Z</time>
      </trkpt>
      <trkpt lat="48.01628" lon="7.0236">
        <ele>940</ele>
        <time>2011-08-17T11:54:48Z</time>
      </trkpt>
      <trkpt lat="48.01649" lon="7.02352">
        <ele>941</ele>
        <time>2011-08-17T11:54:57Z</time>
      </trkpt>
      <trkpt lat="48.01678" lon="7.02348">
        <ele>939</ele>
        <time>2011-08-17T11:55:08Z</time>
      </trkpt>
      <trkpt lat="48.01704" lon="7.02341">
        <ele>936</ele>
        <time>2011-08-17T11:55:19Z</time>
      </trkpt>
      <trkpt lat="48.01712" lon="7.0233">
        <ele>955</ele>
        <time>2011-08-17T11:55:24Z</time>
      </trkpt>
      <trkpt lat="48.01715" lon="7.02326">
        <ele>955</ele>
        <time>2011-08-17T11:55:26Z</time>
      </trkpt>
      <trkpt lat="48.0174" lon="7.023">
        <ele>957</ele>
        <time>2011-08-17T11:55:41Z</time>
      </trkpt>
      <trkpt lat="48.01757" lon="7.02284">
        <ele>957</ele>
        <time>2011-08-17T11:55:52Z</time>
      </trkpt>
      <trkpt lat="48.01773" lon="7.02272">
        <ele>959</ele>
        <time>2011-08-17T11:56:02Z</time>
      </trkpt>
      <trkpt lat="48.01784" lon="7.02264">
        <ele>958</ele>
        <time>2011-08-17T11:56:08Z</time>
      </trkpt>
      <trkpt lat="48.01788" lon="7.02257">
        <ele>958</ele>
        <time>2011-08-17T11:56:20Z</time>
      </trkpt>
      <trkpt lat="48.01784" lon="7.02255">
        <ele>959</ele>
        <time>2011-08-17T11:56:59Z</time>
      </trkpt>
      <trkpt lat="48.01791" lon="7.02255">
        <ele>958</ele>
        <time>2011-08-17T11:57:34Z</time>
      </trkpt>
      <trkpt lat="48.01813" lon="7.02239">
        <ele>974</ele>
        <time>2011-08-17T11:57:48Z</time>
      </trkpt>
      <trkpt lat="48.01824" lon="7.02232">
        <ele>973</ele>
        <time>2011-08-17T11:57:55Z</time>
      </trkpt>
      <trkpt lat="48.01828" lon="7.02228">
        <ele>974</ele>
        <time>2011-08-17T11:57:59Z</time>
      </trkpt>
      <trkpt lat="48.01852" lon="7.02234">
        <ele>973</ele>
        <time>2011-08-17T11:58:11Z</time>
      </trkpt>
      <trkpt lat="48.01856" lon="7.02242">
        <ele>972</ele>
        <time>2011-08-17T11:58:15Z</time>
      </trkpt>
      <trkpt lat="48.01863" lon="7.02277">
        <ele>958</ele>
        <time>2011-08-17T11:58:31Z</time>
      </trkpt>
      <trkpt lat="48.01867" lon="7.02269">
        <ele>959</ele>
        <time>2011-08-17T11:58:42Z</time>
      </trkpt>
      <trkpt lat="48.01871" lon="7.02255">
        <ele>960</ele>
        <time>2011-08-17T11:58:59Z</time>
      </trkpt>
      <trkpt lat="48.01875" lon="7.0224">
        <ele>976</ele>
        <time>2011-08-17T11:59:15Z</time>
      </trkpt>
      <trkpt lat="48.01876" lon="7.02227">
        <ele>978</ele>
        <time>2011-08-17T11:59:31Z</time>
      </trkpt>
      <trkpt lat="48.01876" lon="7.02226">
        <ele>978</ele>
        <time>2011-08-17T11:59:43Z</time>
      </trkpt>
      <trkpt lat="48.01878" lon="7.02221">
        <ele>979</ele>
        <time>2011-08-17T11:59:54Z</time>
      </trkpt>
      <trkpt lat="48.01878" lon="7.02211">
        <ele>980</ele>
        <time>2011-08-17T12:00:07Z</time>
      </trkpt>
      <trkpt lat="48.01876" lon="7.02206">
        <ele>981</ele>
        <time>2011-08-17T12:00:20Z</time>
      </trkpt>
      <trkpt lat="48.01869" lon="7.02202">
        <ele>981</ele>
        <time>2011-08-17T12:00:35Z</time>
      </trkpt>
      <trkpt lat="48.01862" lon="7.02194">
        <ele>982</ele>
        <time>2011-08-17T12:00:48Z</time>
      </trkpt>
      <trkpt lat="48.01859" lon="7.02195">
        <ele>982</ele>
        <time>2011-08-17T12:00:51Z</time>
      </trkpt>
      <trkpt lat="48.01856" lon="7.02188">
        <ele>983</ele>
        <time>2011-08-17T12:01:03Z</time>
      </trkpt>
      <trkpt lat="48.01852" lon="7.02188">
        <ele>984</ele>
        <time>2011-08-17T12:01:10Z</time>
      </trkpt>
      <trkpt lat="48.01845" lon="7.02182">
        <ele>985</ele>
        <time>2011-08-17T12:01:23Z</time>
      </trkpt>
      <trkpt lat="48.01842" lon="7.02181">
        <ele>986</ele>
        <time>2011-08-17T12:01:34Z</time>
      </trkpt>
      <trkpt lat="48.01827" lon="7.02183">
        <ele>987</ele>
        <time>2011-08-17T12:01:50Z</time>
      </trkpt>
      <trkpt lat="48.01822" lon="7.02181">
        <ele>988</ele>
        <time>2011-08-17T12:02:09Z</time>
      </trkpt>
      <trkpt lat="48.01816" lon="7.02183">
        <ele>987</ele>
        <time>2011-08-17T12:02:26Z</time>
      </trkpt>
      <trkpt lat="48.01811" lon="7.02181">
        <ele>987</ele>
        <time>2011-08-17T12:02:58Z</time>
      </trkpt>
      <trkpt lat="48.01803" lon="7.02176">
        <ele>988</ele>
        <time>2011-08-17T12:03:12Z</time>
      </trkpt>
      <trkpt lat="48.01798" lon="7.02172">
        <ele>989</ele>
        <time>2011-08-17T12:03:24Z</time>
      </trkpt>
      <trkpt lat="48.01795" lon="7.02169">
        <ele>990</ele>
        <time>2011-08-17T12:03:41Z</time>
      </trkpt>
      <trkpt lat="48.01792" lon="7.02167">
        <ele>990</ele>
        <time>2011-08-17T12:04:01Z</time>
      </trkpt>
      <trkpt lat="48.01783" lon="7.02164">
        <ele>1013</ele>
        <time>2011-08-17T12:04:15Z</time>
      </trkpt>
      <trkpt lat="48.0178" lon="7.02165">
        <ele>1013</ele>
        <time>2011-08-17T12:04:20Z</time>
      </trkpt>
      <trkpt lat="48.01768" lon="7.02166">
        <ele>1013</ele>
        <time>2011-08-17T12:04:32Z</time>
      </trkpt>
      <trkpt lat="48.0176" lon="7.02165">
        <ele>1012</ele>
        <time>2011-08-17T12:04:49Z</time>
      </trkpt>
      <trkpt lat="48.01765" lon="7.02156">
        <ele>1014</ele>
        <time>2011-08-17T12:05:07Z</time>
      </trkpt>
      <trkpt lat="48.01771" lon="7.02151">
        <ele>1015</ele>
        <time>2011-08-17T12:05:18Z</time>
      </trkpt>
      <trkpt lat="48.01779" lon="7.02146">
        <ele>1015</ele>
        <time>2011-08-17T12:05:31Z</time>
      </trkpt>
      <trkpt lat="48.01785" lon="7.02138">
        <ele>1016</ele>
        <time>2011-08-17T12:05:46Z</time>
      </trkpt>
      <trkpt lat="48.01793" lon="7.02133">
        <ele>1017</ele>
        <time>2011-08-17T12:05:59Z</time>
      </trkpt>
      <trkpt lat="48.01799" lon="7.02128">
        <ele>1017</ele>
        <time>2011-08-17T12:06:11Z</time>
      </trkpt>
      <trkpt lat="48.01804" lon="7.02115">
        <ele>1020</ele>
        <time>2011-08-17T12:06:26Z</time>
      </trkpt>
      <trkpt lat="48.01812" lon="7.02105">
        <ele>1022</ele>
        <time>2011-08-17T12:06:40Z</time>
      </trkpt>
      <trkpt lat="48.01818" lon="7.02097">
        <ele>1024</ele>
        <time>2011-08-17T12:06:57Z</time>
      </trkpt>
      <trkpt lat="48.01829" lon="7.0209">
        <ele>1028</ele>
        <time>2011-08-17T12:07:15Z</time>
      </trkpt>
      <trkpt lat="48.01839" lon="7.02084">
        <ele>1028</ele>
        <time>2011-08-17T12:07:29Z</time>
      </trkpt>
      <trkpt lat="48.01846" lon="7.02074">
        <ele>1037</ele>
        <time>2011-08-17T12:07:47Z</time>
      </trkpt>
      <trkpt lat="48.01858" lon="7.02069">
        <ele>1039</ele>
        <time>2011-08-17T12:08:02Z</time>
      </trkpt>
      <trkpt lat="48.01866" lon="7.02065">
        <ele>1040</ele>
        <time>2011-08-17T12:08:22Z</time>
      </trkpt>
      <trkpt lat="48.01875" lon="7.0206">
        <ele>1040</ele>
        <time>2011-08-17T12:08:39Z</time>
      </trkpt>
      <trkpt lat="48.01876" lon="7.02059">
        <ele>1040</ele>
        <time>2011-08-17T12:08:56Z</time>
      </trkpt>
      <trkpt lat="48.01875" lon="7.02059">
        <ele>1040</ele>
        <time>2011-08-17T12:09:17Z</time>
      </trkpt>
      <trkpt lat="48.01875" lon="7.02059">
        <ele>1040</ele>
        <time>2011-08-17T12:10:55Z</time>
      </trkpt>
      <trkpt lat="48.01883" lon="7.02054">
        <ele>1041</ele>
        <time>2011-08-17T12:11:21Z</time>
      </trkpt>
      <trkpt lat="48.01892" lon="7.02053">
        <ele>1040</ele>
        <time>2011-08-17T12:11:31Z</time>
      </trkpt>
      <trkpt lat="48.01903" lon="7.02058">
        <ele>1039</ele>
        <time>2011-08-17T12:11:46Z</time>
      </trkpt>
      <trkpt lat="48.01911" lon="7.02053">
        <ele>1040</ele>
        <time>2011-08-17T12:12:00Z</time>
      </trkpt>
      <trkpt lat="48.01918" lon="7.0205">
        <ele>1035</ele>
        <time>2011-08-17T12:12:09Z</time>
      </trkpt>
      <trkpt lat="48.01927" lon="7.02047">
        <ele>1036</ele>
        <time>2011-08-17T12:12:21Z</time>
      </trkpt>
      <trkpt lat="48.01942" lon="7.02044">
        <ele>1035</ele>
        <time>2011-08-17T12:12:35Z</time>
      </trkpt>
      <trkpt lat="48.01948" lon="7.02039">
        <ele>1035</ele>
        <time>2011-08-17T12:12:49Z</time>
      </trkpt>
      <trkpt lat="48.01952" lon="7.02034">
        <ele>1036</ele>
        <time>2011-08-17T12:13:02Z</time>
      </trkpt>
      <trkpt lat="48.01959" lon="7.02028">
        <ele>1035</ele>
        <time>2011-08-17T12:13:11Z</time>
      </trkpt>
      <trkpt lat="48.01959" lon="7.02025">
        <ele>1035</ele>
        <time>2011-08-17T12:13:19Z</time>
      </trkpt>
      <trkpt lat="48.0197" lon="7.0202">
        <ele>1034</ele>
        <time>2011-08-17T12:13:32Z</time>
      </trkpt>
      <trkpt lat="48.0197" lon="7.02009">
        <ele>1035</ele>
        <time>2011-08-17T12:13:44Z</time>
      </trkpt>
      <trkpt lat="48.01966" lon="7.02004">
        <ele>1035</ele>
        <time>2011-08-17T12:13:51Z</time>
      </trkpt>
      <trkpt lat="48.01961" lon="7.01996">
        <ele>1037</ele>
        <time>2011-08-17T12:14:08Z</time>
      </trkpt>
      <trkpt lat="48.01955" lon="7.01996">
        <ele>1038</ele>
        <time>2011-08-17T12:14:20Z</time>
      </trkpt>
      <trkpt lat="48.01955" lon="7.01993">
        <ele>1038</ele>
        <time>2011-08-17T12:19:06Z</time>
      </trkpt>
      <trkpt lat="48.01939" lon="7.01985">
        <ele>1041</ele>
        <time>2011-08-17T12:19:14Z</time>
      </trkpt>
      <trkpt lat="48.01907" lon="7.01976">
        <ele>1053</ele>
        <time>2011-08-17T12:19:30Z</time>
      </trkpt>
      <trkpt lat="48.01895" lon="7.01967">
        <ele>1053</ele>
        <time>2011-08-17T12:19:43Z</time>
      </trkpt>
      <trkpt lat="48.01884" lon="7.01967">
        <ele>1054</ele>
        <time>2011-08-17T12:19:50Z</time>
      </trkpt>
      <trkpt lat="48.01869" lon="7.01964">
        <ele>1055</ele>
        <time>2011-08-17T12:20:00Z</time>
      </trkpt>
      <trkpt lat="48.01866" lon="7.01965">
        <ele>1055</ele>
        <time>2011-08-17T12:20:02Z</time>
      </trkpt>
      <trkpt lat="48.01857" lon="7.01963">
        <ele>1055</ele>
        <time>2011-08-17T12:20:18Z</time>
      </trkpt>
      <trkpt lat="48.01854" lon="7.01964">
        <ele>1055</ele>
        <time>2011-08-17T12:21:49Z</time>
      </trkpt>
      <trkpt lat="48.01844" lon="7.01962">
        <ele>1056</ele>
        <time>2011-08-17T12:22:02Z</time>
      </trkpt>
      <trkpt lat="48.01828" lon="7.01962">
        <ele>1060</ele>
        <time>2011-08-17T12:22:15Z</time>
      </trkpt>
      <trkpt lat="48.01811" lon="7.01958">
        <ele>1060</ele>
        <time>2011-08-17T12:22:26Z</time>
      </trkpt>
      <trkpt lat="48.0179" lon="7.01951">
        <ele>1060</ele>
        <time>2011-08-17T12:22:41Z</time>
      </trkpt>
      <trkpt lat="48.01769" lon="7.01938">
        <ele>1061</ele>
        <time>2011-08-17T12:22:59Z</time>
      </trkpt>
      <trkpt lat="48.01766" lon="7.01934">
        <ele>1061</ele>
        <time>2011-08-17T12:23:14Z</time>
      </trkpt>
      <trkpt lat="48.01762" lon="7.01923">
        <ele>1061</ele>
        <time>2011-08-17T12:23:22Z</time>
      </trkpt>
      <trkpt lat="48.01761" lon="7.019">
        <ele>1066</ele>
        <time>2011-08-17T12:23:44Z</time>
      </trkpt>
      <trkpt lat="48.01761" lon="7.01899">
        <ele>1066</ele>
        <time>2011-08-17T12:23:46Z</time>
      </trkpt>
      <trkpt lat="48.01776" lon="7.01862">
        <ele>1069</ele>
        <time>2011-08-17T12:24:11Z</time>
      </trkpt>
      <trkpt lat="48.0178" lon="7.01862">
        <ele>1069</ele>
        <time>2011-08-17T12:24:18Z</time>
      </trkpt>
      <trkpt lat="48.01789" lon="7.01873">
        <ele>1068</ele>
        <time>2011-08-17T12:24:30Z</time>
      </trkpt>
      <trkpt lat="48.01793" lon="7.01874">
        <ele>1068</ele>
        <time>2011-08-17T12:24:47Z</time>
      </trkpt>
      <trkpt lat="48.01794" lon="7.01873">
        <ele>1068</ele>
        <time>2011-08-17T12:27:29Z</time>
      </trkpt>
      <trkpt lat="48.01793" lon="7.01871">
        <ele>1068</ele>
        <time>2011-08-17T12:27:39Z</time>
      </trkpt>
      <trkpt lat="48.01792" lon="7.01864">
        <ele>1069</ele>
        <time>2011-08-17T12:27:50Z</time>
      </trkpt>
      <trkpt lat="48.01796" lon="7.01853">
        <ele>1069</ele>
        <time>2011-08-17T12:28:05Z</time>
      </trkpt>
      <trkpt lat="48.01796" lon="7.01839">
        <ele>1070</ele>
        <time>2011-08-17T12:28:11Z</time>
      </trkpt>
      <trkpt lat="48.01796" lon="7.0183">
        <ele>1082</ele>
        <time>2011-08-17T12:28:25Z</time>
      </trkpt>
      <trkpt lat="48.01793" lon="7.01827">
        <ele>1083</ele>
        <time>2011-08-17T12:28:34Z</time>
      </trkpt>
      <trkpt lat="48.01787" lon="7.01822">
        <ele>1083</ele>
        <time>2011-08-17T12:28:48Z</time>
      </trkpt>
      <trkpt lat="48.01783" lon="7.01818">
        <ele>1084</ele>
        <time>2011-08-17T12:29:00Z</time>
      </trkpt>
      <trkpt lat="48.01776" lon="7.01813">
        <ele>1085</ele>
        <time>2011-08-17T12:29:13Z</time>
      </trkpt>
      <trkpt lat="48.01769" lon="7.01804">
        <ele>1086</ele>
        <time>2011-08-17T12:29:30Z</time>
      </trkpt>
      <trkpt lat="48.01767" lon="7.01802">
        <ele>1087</ele>
        <time>2011-08-17T12:29:43Z</time>
      </trkpt>
      <trkpt lat="48.01763" lon="7.018">
        <ele>1087</ele>
        <time>2011-08-17T12:30:01Z</time>
      </trkpt>
      <trkpt lat="48.01763" lon="7.01788">
        <ele>1090</ele>
        <time>2011-08-17T12:30:26Z</time>
      </trkpt>
      <trkpt lat="48.0176" lon="7.01778">
        <ele>1093</ele>
        <time>2011-08-17T12:30:43Z</time>
      </trkpt>
      <trkpt lat="48.01756" lon="7.01767">
        <ele>1096</ele>
        <time>2011-08-17T12:30:55Z</time>
      </trkpt>
      <trkpt lat="48.01762" lon="7.01766">
        <ele>1096</ele>
        <time>2011-08-17T12:31:12Z</time>
      </trkpt>
      <trkpt lat="48.01767" lon="7.01762">
        <ele>1096</ele>
        <time>2011-08-17T12:31:27Z</time>
      </trkpt>
      <trkpt lat="48.01774" lon="7.01756">
        <ele>1095</ele>
        <time>2011-08-17T12:31:44Z</time>
      </trkpt>
      <trkpt lat="48.01777" lon="7.01751">
        <ele>1095</ele>
        <time>2011-08-17T12:31:55Z</time>
      </trkpt>
      <trkpt lat="48.01784" lon="7.01748">
        <ele>1111</ele>
        <time>2011-08-17T12:32:10Z</time>
      </trkpt>
      <trkpt lat="48.01786" lon="7.01745">
        <ele>1111</ele>
        <time>2011-08-17T12:32:22Z</time>
      </trkpt>
      <trkpt lat="48.0178" lon="7.01742">
        <ele>1112</ele>
        <time>2011-08-17T12:32:38Z</time>
      </trkpt>
      <trkpt lat="48.01777" lon="7.01735">
        <ele>1112</ele>
        <time>2011-08-17T12:32:51Z</time>
      </trkpt>
      <trkpt lat="48.01776" lon="7.01733">
        <ele>1112</ele>
        <time>2011-08-17T12:32:54Z</time>
      </trkpt>
      <trkpt lat="48.01771" lon="7.01723">
        <ele>1114</ele>
        <time>2011-08-17T12:33:07Z</time>
      </trkpt>
      <trkpt lat="48.01767" lon="7.01718">
        <ele>1115</ele>
        <time>2011-08-17T12:33:10Z</time>
      </trkpt>
      <trkpt lat="48.01761" lon="7.01711">
        <ele>1116</ele>
        <time>2011-08-17T12:33:13Z</time>
      </trkpt>
      <trkpt lat="48.0176" lon="7.01706">
        <ele>1118</ele>
        <time>2011-08-17T12:33:15Z</time>
      </trkpt>
      <trkpt lat="48.01752" lon="7.01706">
        <ele>1118</ele>
        <time>2011-08-17T12:33:27Z</time>
      </trkpt>
      <trkpt lat="48.01746" lon="7.01698">
        <ele>1111</ele>
        <time>2011-08-17T12:33:40Z</time>
      </trkpt>
      <trkpt lat="48.01745" lon="7.01694">
        <ele>1112</ele>
        <time>2011-08-17T12:33:44Z</time>
      </trkpt>
      <trkpt lat="48.01743" lon="7.01681">
        <ele>1118</ele>
        <time>2011-08-17T12:33:58Z</time>
      </trkpt>
      <trkpt lat="48.01738" lon="7.01674">
        <ele>1119</ele>
        <time>2011-08-17T12:34:03Z</time>
      </trkpt>
      <trkpt lat="48.01733" lon="7.01661">
        <ele>1128</ele>
        <time>2011-08-17T12:34:09Z</time>
      </trkpt>
      <trkpt lat="48.01729" lon="7.01644">
        <ele>1127</ele>
        <time>2011-08-17T12:34:18Z</time>
      </trkpt>
      <trkpt lat="48.01724" lon="7.01627">
        <ele>1127</ele>
        <time>2011-08-17T12:34:25Z</time>
      </trkpt>
      <trkpt lat="48.01723" lon="7.01623">
        <ele>1128</ele>
        <time>2011-08-17T12:34:27Z</time>
      </trkpt>
      <trkpt lat="48.01713" lon="7.01605">
        <ele>1128</ele>
        <time>2011-08-17T12:34:36Z</time>
      </trkpt>
      <trkpt lat="48.01711" lon="7.0159">
        <ele>1129</ele>
        <time>2011-08-17T12:34:48Z</time>
      </trkpt>
      <trkpt lat="48.0171" lon="7.0158">
        <ele>1142</ele>
        <time>2011-08-17T12:35:00Z</time>
      </trkpt>
      <trkpt lat="48.01705" lon="7.01572">
        <ele>1141</ele>
        <time>2011-08-17T12:35:13Z</time>
      </trkpt>
      <trkpt lat="48.01704" lon="7.01571">
        <ele>1141</ele>
        <time>2011-08-17T12:35:16Z</time>
      </trkpt>
      <trkpt lat="48.01695" lon="7.01558">
        <ele>1141</ele>
        <time>2011-08-17T12:35:31Z</time>
      </trkpt>
      <trkpt lat="48.0169" lon="7.0155">
        <ele>1141</ele>
        <time>2011-08-17T12:35:44Z</time>
      </trkpt>
      <trkpt lat="48.01689" lon="7.01549">
        <ele>1141</ele>
        <time>2011-08-17T12:35:45Z</time>
      </trkpt>
      <trkpt lat="48.01684" lon="7.01546">
        <ele>1141</ele>
        <time>2011-08-17T12:35:50Z</time>
      </trkpt>
      <trkpt lat="48.01676" lon="7.01537">
        <ele>1141</ele>
        <time>2011-08-17T12:36:04Z</time>
      </trkpt>
      <trkpt lat="48.01671" lon="7.01533">
        <ele>1142</ele>
        <time>2011-08-17T12:36:14Z</time>
      </trkpt>
      <trkpt lat="48.01667" lon="7.01526">
        <ele>1142</ele>
        <time>2011-08-17T12:36:22Z</time>
      </trkpt>
      <trkpt lat="48.01662" lon="7.0152">
        <ele>1126</ele>
        <time>2011-08-17T12:36:29Z</time>
      </trkpt>
      <trkpt lat="48.01646" lon="7.01503">
        <ele>1126</ele>
        <time>2011-08-17T12:36:51Z</time>
      </trkpt>
      <trkpt lat="48.01643" lon="7.01494">
        <ele>1140</ele>
        <time>2011-08-17T12:37:08Z</time>
      </trkpt>
      <trkpt lat="48.01633" lon="7.01479">
        <ele>1140</ele>
        <time>2011-08-17T12:37:25Z</time>
      </trkpt>
      <trkpt lat="48.0163" lon="7.01476">
        <ele>1140</ele>
        <time>2011-08-17T12:37:45Z</time>
      </trkpt>
      <trkpt lat="48.01623" lon="7.01464">
        <ele>1141</ele>
        <time>2011-08-17T12:38:27Z</time>
      </trkpt>
      <trkpt lat="48.01621" lon="7.01462">
        <ele>1141</ele>
        <time>2011-08-17T12:38:33Z</time>
      </trkpt>
      <trkpt lat="48.01613" lon="7.01449">
        <ele>1143</ele>
        <time>2011-08-17T12:38:45Z</time>
      </trkpt>
      <trkpt lat="48.0161" lon="7.01446">
        <ele>1143</ele>
        <time>2011-08-17T12:38:48Z</time>
      </trkpt>
      <trkpt lat="48.01607" lon="7.0144">
        <ele>1144</ele>
        <time>2011-08-17T12:38:52Z</time>
      </trkpt>
      <trkpt lat="48.01597" lon="7.01427">
        <ele>1145</ele>
        <time>2011-08-17T12:39:05Z</time>
      </trkpt>
      <trkpt lat="48.01594" lon="7.0142">
        <ele>1146</ele>
        <time>2011-08-17T12:39:08Z</time>
      </trkpt>
      <trkpt lat="48.01592" lon="7.01416">
        <ele>1155</ele>
        <time>2011-08-17T12:39:10Z</time>
      </trkpt>
      <trkpt lat="48.01577" lon="7.01396">
        <ele>1150</ele>
        <time>2011-08-17T12:39:24Z</time>
      </trkpt>
      <trkpt lat="48.01547" lon="7.01368">
        <ele>1152</ele>
        <time>2011-08-17T12:39:41Z</time>
      </trkpt>
      <trkpt lat="48.01544" lon="7.01365">
        <ele>1152</ele>
        <time>2011-08-17T12:39:54Z</time>
      </trkpt>
      <trkpt lat="48.01526" lon="7.01356">
        <ele>1151</ele>
        <time>2011-08-17T12:40:05Z</time>
      </trkpt>
      <trkpt lat="48.01511" lon="7.01332">
        <ele>1159</ele>
        <time>2011-08-17T12:40:14Z</time>
      </trkpt>
      <trkpt lat="48.01507" lon="7.01326">
        <ele>1158</ele>
        <time>2011-08-17T12:40:17Z</time>
      </trkpt>
      <trkpt lat="48.01495" lon="7.01287">
        <ele>1152</ele>
        <time>2011-08-17T12:40:33Z</time>
      </trkpt>
      <trkpt lat="48.01495" lon="7.01279">
        <ele>1153</ele>
        <time>2011-08-17T12:40:39Z</time>
      </trkpt>
      <trkpt lat="48.01493" lon="7.01263">
        <ele>1156</ele>
        <time>2011-08-17T12:40:51Z</time>
      </trkpt>
      <trkpt lat="48.01492" lon="7.01233">
        <ele>1157</ele>
        <time>2011-08-17T12:41:07Z</time>
      </trkpt>
      <trkpt lat="48.01484" lon="7.01195">
        <ele>1154</ele>
        <time>2011-08-17T12:41:20Z</time>
      </trkpt>
      <trkpt lat="48.01486" lon="7.0119">
        <ele>1154</ele>
        <time>2011-08-17T12:41:34Z</time>
      </trkpt>
      <trkpt lat="48.01485" lon="7.01187">
        <ele>1154</ele>
        <time>2011-08-17T12:41:51Z</time>
      </trkpt>
      <trkpt lat="48.01485" lon="7.01193">
        <ele>1154</ele>
        <time>2011-08-17T13:10:08Z</time>
      </trkpt>
      <trkpt lat="48.01486" lon="7.01193">
        <ele>1154</ele>
        <time>2011-08-17T13:11:09Z</time>
      </trkpt>
      <trkpt lat="48.01485" lon="7.01196">
        <ele>1154</ele>
        <time>2011-08-17T13:11:11Z</time>
      </trkpt>
      <trkpt lat="48.01494" lon="7.01237">
        <ele>1157</ele>
        <time>2011-08-17T13:11:30Z</time>
      </trkpt>
      <trkpt lat="48.01511" lon="7.01266">
        <ele>1165</ele>
        <time>2011-08-17T13:11:44Z</time>
      </trkpt>
      <trkpt lat="48.01517" lon="7.0126">
        <ele>1165</ele>
        <time>2011-08-17T13:11:51Z</time>
      </trkpt>
      <trkpt lat="48.01512" lon="7.012">
        <ele>1168</ele>
        <time>2011-08-17T13:12:14Z</time>
      </trkpt>
      <trkpt lat="48.01513" lon="7.01197">
        <ele>1168</ele>
        <time>2011-08-17T13:12:15Z</time>
      </trkpt>
      <trkpt lat="48.01536" lon="7.01146">
        <ele>1167</ele>
        <time>2011-08-17T13:12:38Z</time>
      </trkpt>
      <trkpt lat="48.01565" lon="7.0111">
        <ele>1169</ele>
        <time>2011-08-17T13:13:00Z</time>
      </trkpt>
      <trkpt lat="48.01593" lon="7.01069">
        <ele>1180</ele>
        <time>2011-08-17T13:13:21Z</time>
      </trkpt>
      <trkpt lat="48.01616" lon="7.01027">
        <ele>1185</ele>
        <time>2011-08-17T13:13:42Z</time>
      </trkpt>
      <trkpt lat="48.01623" lon="7.01013">
        <ele>1186</ele>
        <time>2011-08-17T13:13:49Z</time>
      </trkpt>
      <trkpt lat="48.01636" lon="7.00946">
        <ele>1188</ele>
        <time>2011-08-17T13:14:17Z</time>
      </trkpt>
      <trkpt lat="48.01636" lon="7.00885">
        <ele>1189</ele>
        <time>2011-08-17T13:14:36Z</time>
      </trkpt>
      <trkpt lat="48.01639" lon="7.00825">
        <ele>1193</ele>
        <time>2011-08-17T13:14:54Z</time>
      </trkpt>
      <trkpt lat="48.01638" lon="7.00757">
        <ele>1195</ele>
        <time>2011-08-17T13:15:13Z</time>
      </trkpt>
      <trkpt lat="48.01643" lon="7.00687">
        <ele>1195</ele>
        <time>2011-08-17T13:15:32Z</time>
      </trkpt>
      <trkpt lat="48.01646" lon="7.00669">
        <ele>1197</ele>
        <time>2011-08-17T13:15:38Z</time>
      </trkpt>
      <trkpt lat="48.0166" lon="7.00613">
        <ele>1192</ele>
        <time>2011-08-17T13:15:58Z</time>
      </trkpt>
      <trkpt lat="48.01683" lon="7.00565">
        <ele>1208</ele>
        <time>2011-08-17T13:16:17Z</time>
      </trkpt>
      <trkpt lat="48.01717" lon="7.00515">
        <ele>1212</ele>
        <time>2011-08-17T13:16:37Z</time>
      </trkpt>
      <trkpt lat="48.01743" lon="7.00451">
        <ele>1209</ele>
        <time>2011-08-17T13:16:59Z</time>
      </trkpt>
      <trkpt lat="48.01756" lon="7.00398">
        <ele>1227</ele>
        <time>2011-08-17T13:17:19Z</time>
      </trkpt>
      <trkpt lat="48.0177" lon="7.00342">
        <ele>1227</ele>
        <time>2011-08-17T13:17:41Z</time>
      </trkpt>
      <trkpt lat="48.01772" lon="7.00292">
        <ele>1233</ele>
        <time>2011-08-17T13:17:59Z</time>
      </trkpt>
      <trkpt lat="48.01771" lon="7.00254">
        <ele>1231</ele>
        <time>2011-08-17T13:18:13Z</time>
      </trkpt>
      <trkpt lat="48.01771" lon="7.00241">
        <ele>1236</ele>
        <time>2011-08-17T13:18:18Z</time>
      </trkpt>
      <trkpt lat="48.01773" lon="7.00229">
        <ele>1238</ele>
        <time>2011-08-17T13:18:23Z</time>
      </trkpt>
      <trkpt lat="48.01769" lon="7.0018">
        <ele>1240</ele>
        <time>2011-08-17T13:18:44Z</time>
      </trkpt>
      <trkpt lat="48.01766" lon="7.0014">
        <ele>1247</ele>
        <time>2011-08-17T13:18:59Z</time>
      </trkpt>
      <trkpt lat="48.01767" lon="7.00108">
        <ele>1249</ele>
        <time>2011-08-17T13:19:12Z</time>
      </trkpt>
      <trkpt lat="48.01768" lon="7.00107">
        <ele>1249</ele>
        <time>2011-08-17T13:19:34Z</time>
      </trkpt>
      <trkpt lat="48.01767" lon="7.00109">
        <ele>1249</ele>
        <time>2011-08-17T13:19:59Z</time>
      </trkpt>
      <trkpt lat="48.0176" lon="7.00091">
        <ele>1247</ele>
        <time>2011-08-17T13:20:34Z</time>
      </trkpt>
      <trkpt lat="48.0176" lon="7.00079">
        <ele>1248</ele>
        <time>2011-08-17T13:20:38Z</time>
      </trkpt>
      <trkpt lat="48.0176" lon="7.00024">
        <ele>1253</ele>
        <time>2011-08-17T13:20:59Z</time>
      </trkpt>
      <trkpt lat="48.01766" lon="6.99965">
        <ele>1257</ele>
        <time>2011-08-17T13:21:22Z</time>
      </trkpt>
      <trkpt lat="48.01776" lon="6.99906">
        <ele>1258</ele>
        <time>2011-08-17T13:21:47Z</time>
      </trkpt>
      <trkpt lat="48.01781" lon="6.99851">
        <ele>1259</ele>
        <time>2011-08-17T13:22:08Z</time>
      </trkpt>
      <trkpt lat="48.01796" lon="6.99805">
        <ele>1258</ele>
        <time>2011-08-17T13:22:27Z</time>
      </trkpt>
      <trkpt lat="48.01822" lon="6.99767">
        <ele>1261</ele>
        <time>2011-08-17T13:22:47Z</time>
      </trkpt>
      <trkpt lat="48.01856" lon="6.99715">
        <ele>1271</ele>
        <time>2011-08-17T13:23:12Z</time>
      </trkpt>
      <trkpt lat="48.01882" lon="6.99667">
        <ele>1274</ele>
        <time>2011-08-17T13:23:30Z</time>
      </trkpt>
      <trkpt lat="48.01923" lon="6.99595">
        <ele>1276</ele>
        <time>2011-08-17T13:23:54Z</time>
      </trkpt>
      <trkpt lat="48.0196" lon="6.99529">
        <ele>1273</ele>
        <time>2011-08-17T13:24:13Z</time>
      </trkpt>
      <trkpt lat="48.01997" lon="6.99462">
        <ele>1269</ele>
        <time>2011-08-17T13:24:29Z</time>
      </trkpt>
      <trkpt lat="48.0203" lon="6.994">
        <ele>1276</ele>
        <time>2011-08-17T13:24:43Z</time>
      </trkpt>
      <trkpt lat="48.02065" lon="6.99342">
        <ele>1277</ele>
        <time>2011-08-17T13:25:00Z</time>
      </trkpt>
      <trkpt lat="48.02066" lon="6.99341">
        <ele>1277</ele>
        <time>2011-08-17T13:25:01Z</time>
      </trkpt>
      <trkpt lat="48.02068" lon="6.99332">
        <ele>1276</ele>
        <time>2011-08-17T13:25:05Z</time>
      </trkpt>
      <trkpt lat="48.02067" lon="6.99331">
        <ele>1276</ele>
        <time>2011-08-17T13:25:22Z</time>
      </trkpt>
      <trkpt lat="48.0207" lon="6.99328">
        <ele>1276</ele>
        <time>2011-08-17T13:26:41Z</time>
      </trkpt>
      <trkpt lat="48.02072" lon="6.99329">
        <ele>1277</ele>
        <time>2011-08-17T13:26:52Z</time>
      </trkpt>
      <trkpt lat="48.02071" lon="6.99319">
        <ele>1276</ele>
        <time>2011-08-17T13:26:56Z</time>
      </trkpt>
      <trkpt lat="48.0205" lon="6.99271">
        <ele>1274</ele>
        <time>2011-08-17T13:27:08Z</time>
      </trkpt>
      <trkpt lat="48.02049" lon="6.99267">
        <ele>1273</ele>
        <time>2011-08-17T13:27:10Z</time>
      </trkpt>
      <trkpt lat="48.02049" lon="6.99256">
        <ele>1274</ele>
        <time>2011-08-17T13:27:13Z</time>
      </trkpt>
      <trkpt lat="48.02041" lon="6.99235">
        <ele>1274</ele>
        <time>2011-08-17T13:27:17Z</time>
      </trkpt>
      <trkpt lat="48.02032" lon="6.99219">
        <ele>1274</ele>
        <time>2011-08-17T13:27:20Z</time>
      </trkpt>
      <trkpt lat="48.01994" lon="6.99161">
        <ele>1272</ele>
        <time>2011-08-17T13:27:34Z</time>
      </trkpt>
      <trkpt lat="48.01982" lon="6.99114">
        <ele>1269</ele>
        <time>2011-08-17T13:27:44Z</time>
      </trkpt>
      <trkpt lat="48.01976" lon="6.99096">
        <ele>1269</ele>
        <time>2011-08-17T13:27:50Z</time>
      </trkpt>
      <trkpt lat="48.01968" lon="6.99062">
        <ele>1266</ele>
        <time>2011-08-17T13:28:02Z</time>
      </trkpt>
      <trkpt lat="48.01968" lon="6.99053">
        <ele>1265</ele>
        <time>2011-08-17T13:28:17Z</time>
      </trkpt>
      <trkpt lat="48.01966" lon="6.99048">
        <ele>1265</ele>
        <time>2011-08-17T13:28:29Z</time>
      </trkpt>
      <trkpt lat="48.01962" lon="6.99041">
        <ele>1264</ele>
        <time>2011-08-17T13:28:37Z</time>
      </trkpt>
      <trkpt lat="48.01942" lon="6.99023">
        <ele>1262</ele>
        <time>2011-08-17T13:28:48Z</time>
      </trkpt>
      <trkpt lat="48.01939" lon="6.9902">
        <ele>1261</ele>
        <time>2011-08-17T13:28:51Z</time>
      </trkpt>
      <trkpt lat="48.01931" lon="6.99012">
        <ele>1260</ele>
        <time>2011-08-17T13:28:57Z</time>
      </trkpt>
      <trkpt lat="48.01919" lon="6.9899">
        <ele>1255</ele>
        <time>2011-08-17T13:29:04Z</time>
      </trkpt>
      <trkpt lat="48.01888" lon="6.98975">
        <ele>1246</ele>
        <time>2011-08-17T13:29:12Z</time>
      </trkpt>
      <trkpt lat="48.0188" lon="6.98969">
        <ele>1245</ele>
        <time>2011-08-17T13:29:15Z</time>
      </trkpt>
      <trkpt lat="48.01863" lon="6.9897">
        <ele>1243</ele>
        <time>2011-08-17T13:29:22Z</time>
      </trkpt>
      <trkpt lat="48.01841" lon="6.98941">
        <ele>1240</ele>
        <time>2011-08-17T13:29:29Z</time>
      </trkpt>
      <trkpt lat="48.01813" lon="6.98909">
        <ele>1228</ele>
        <time>2011-08-17T13:29:39Z</time>
      </trkpt>
      <trkpt lat="48.01793" lon="6.98892">
        <ele>1224</ele>
        <time>2011-08-17T13:29:49Z</time>
      </trkpt>
      <trkpt lat="48.01771" lon="6.98871">
        <ele>1221</ele>
        <time>2011-08-17T13:30:01Z</time>
      </trkpt>
      <trkpt lat="48.01766" lon="6.98867">
        <ele>1221</ele>
        <time>2011-08-17T13:30:15Z</time>
      </trkpt>
      <trkpt lat="48.01762" lon="6.98863">
        <ele>1220</ele>
        <time>2011-08-17T13:30:18Z</time>
      </trkpt>
      <trkpt lat="48.01754" lon="6.98854">
        <ele>1218</ele>
        <time>2011-08-17T13:30:22Z</time>
      </trkpt>
      <trkpt lat="48.01735" lon="6.98842">
        <ele>1211</ele>
        <time>2011-08-17T13:30:30Z</time>
      </trkpt>
      <trkpt lat="48.01702" lon="6.98794">
        <ele>1208</ele>
        <time>2011-08-17T13:30:39Z</time>
      </trkpt>
      <trkpt lat="48.01689" lon="6.98779">
        <ele>1208</ele>
        <time>2011-08-17T13:30:48Z</time>
      </trkpt>
      <trkpt lat="48.01681" lon="6.98769">
        <ele>1209</ele>
        <time>2011-08-17T13:31:14Z</time>
      </trkpt>
      <trkpt lat="48.01663" lon="6.98741">
        <ele>1207</ele>
        <time>2011-08-17T13:31:19Z</time>
      </trkpt>
      <trkpt lat="48.01653" lon="6.9872">
        <ele>1202</ele>
        <time>2011-08-17T13:31:22Z</time>
      </trkpt>
      <trkpt lat="48.01634" lon="6.98687">
        <ele>1200</ele>
        <time>2011-08-17T13:31:27Z</time>
      </trkpt>
      <trkpt lat="48.01624" lon="6.98675">
        <ele>1199</ele>
        <time>2011-08-17T13:31:30Z</time>
      </trkpt>
      <trkpt lat="48.01613" lon="6.98654">
        <ele>1195</ele>
        <time>2011-08-17T13:31:38Z</time>
      </trkpt>
      <trkpt lat="48.01611" lon="6.98639">
        <ele>1194</ele>
        <time>2011-08-17T13:31:42Z</time>
      </trkpt>
      <trkpt lat="48.01605" lon="6.98629">
        <ele>1194</ele>
        <time>2011-08-17T13:31:54Z</time>
      </trkpt>
      <trkpt lat="48.01601" lon="6.98618">
        <ele>1193</ele>
        <time>2011-08-17T13:32:04Z</time>
      </trkpt>
      <trkpt lat="48.01575" lon="6.98588">
        <ele>1190</ele>
        <time>2011-08-17T13:32:14Z</time>
      </trkpt>
      <trkpt lat="48.01522" lon="6.98559">
        <ele>1184</ele>
        <time>2011-08-17T13:32:25Z</time>
      </trkpt>
      <trkpt lat="48.01517" lon="6.98558">
        <ele>1184</ele>
        <time>2011-08-17T13:32:26Z</time>
      </trkpt>
      <trkpt lat="48.01504" lon="6.98556">
        <ele>1185</ele>
        <time>2011-08-17T13:32:29Z</time>
      </trkpt>
      <trkpt lat="48.01479" lon="6.98513">
        <ele>1186</ele>
        <time>2011-08-17T13:32:39Z</time>
      </trkpt>
      <trkpt lat="48.01478" lon="6.98509">
        <ele>1186</ele>
        <time>2011-08-17T13:32:54Z</time>
      </trkpt>
      <trkpt lat="48.01474" lon="6.98504">
        <ele>1186</ele>
        <time>2011-08-17T13:33:21Z</time>
      </trkpt>
      <trkpt lat="48.01474" lon="6.98502">
        <ele>1186</ele>
        <time>2011-08-17T13:33:28Z</time>
      </trkpt>
      <trkpt lat="48.01469" lon="6.98485">
        <ele>1182</ele>
        <time>2011-08-17T13:33:34Z</time>
      </trkpt>
      <trkpt lat="48.01456" lon="6.98466">
        <ele>1183</ele>
        <time>2011-08-17T13:33:46Z</time>
      </trkpt>
      <trkpt lat="48.01455" lon="6.98465">
        <ele>1183</ele>
        <time>2011-08-17T13:33:51Z</time>
      </trkpt>
      <trkpt lat="48.01458" lon="6.98458">
        <ele>1182</ele>
        <time>2011-08-17T13:34:05Z</time>
      </trkpt>
      <trkpt lat="48.01458" lon="6.98457">
        <ele>1182</ele>
        <time>2011-08-17T13:34:06Z</time>
      </trkpt>
      <trkpt lat="48.01466" lon="6.98456">
        <ele>1181</ele>
        <time>2011-08-17T13:34:14Z</time>
      </trkpt>
      <trkpt lat="48.01467" lon="6.98452">
        <ele>1181</ele>
        <time>2011-08-17T13:34:32Z</time>
      </trkpt>
      <trkpt lat="48.01467" lon="6.98441">
        <ele>1180</ele>
        <time>2011-08-17T13:34:43Z</time>
      </trkpt>
      <trkpt lat="48.01471" lon="6.98441">
        <ele>1179</ele>
        <time>2011-08-17T13:34:49Z</time>
      </trkpt>
      <trkpt lat="48.01474" lon="6.9844">
        <ele>1179</ele>
        <time>2011-08-17T13:34:53Z</time>
      </trkpt>
      <trkpt lat="48.01476" lon="6.98439">
        <ele>1178</ele>
        <time>2011-08-17T13:34:56Z</time>
      </trkpt>
      <trkpt lat="48.0148" lon="6.98434">
        <ele>1177</ele>
        <time>2011-08-17T13:35:00Z</time>
      </trkpt>
      <trkpt lat="48.01495" lon="6.98437">
        <ele>1176</ele>
        <time>2011-08-17T13:35:07Z</time>
      </trkpt>
      <trkpt lat="48.01499" lon="6.98437">
        <ele>1175</ele>
        <time>2011-08-17T13:35:09Z</time>
      </trkpt>
      <trkpt lat="48.01513" lon="6.98445">
        <ele>1168</ele>
        <time>2011-08-17T13:35:13Z</time>
      </trkpt>
      <trkpt lat="48.01523" lon="6.98449">
        <ele>1168</ele>
        <time>2011-08-17T13:35:21Z</time>
      </trkpt>
      <trkpt lat="48.01526" lon="6.98441">
        <ele>1167</ele>
        <time>2011-08-17T13:35:32Z</time>
      </trkpt>
      <trkpt lat="48.01528" lon="6.98436">
        <ele>1167</ele>
        <time>2011-08-17T13:35:42Z</time>
      </trkpt>
      <trkpt lat="48.01525" lon="6.98411">
        <ele>1155</ele>
        <time>2011-08-17T13:35:52Z</time>
      </trkpt>
      <trkpt lat="48.01509" lon="6.98372">
        <ele>1150</ele>
        <time>2011-08-17T13:36:06Z</time>
      </trkpt>
      <trkpt lat="48.0149" lon="6.98339">
        <ele>1153</ele>
        <time>2011-08-17T13:36:19Z</time>
      </trkpt>
      <trkpt lat="48.01481" lon="6.98328">
        <ele>1145</ele>
        <time>2011-08-17T13:36:21Z</time>
      </trkpt>
      <trkpt lat="48.01478" lon="6.98315">
        <ele>1144</ele>
        <time>2011-08-17T13:36:26Z</time>
      </trkpt>
      <trkpt lat="48.01468" lon="6.98279">
        <ele>1139</ele>
        <time>2011-08-17T13:36:38Z</time>
      </trkpt>
      <trkpt lat="48.01465" lon="6.98272">
        <ele>1138</ele>
        <time>2011-08-17T13:36:42Z</time>
      </trkpt>
      <trkpt lat="48.01463" lon="6.98269">
        <ele>1138</ele>
        <time>2011-08-17T13:36:46Z</time>
      </trkpt>
      <trkpt lat="48.01465" lon="6.98272">
        <ele>1138</ele>
        <time>2011-08-17T13:36:52Z</time>
      </trkpt>
      <trkpt lat="48.01472" lon="6.98278">
        <ele>1138</ele>
        <time>2011-08-17T13:37:00Z</time>
      </trkpt>
      <trkpt lat="48.01472" lon="6.98273">
        <ele>1137</ele>
        <time>2011-08-17T13:37:10Z</time>
      </trkpt>
      <trkpt lat="48.0147" lon="6.9827">
        <ele>1137</ele>
        <time>2011-08-17T13:37:18Z</time>
      </trkpt>
      <trkpt lat="48.01473" lon="6.98265">
        <ele>1135</ele>
        <time>2011-08-17T13:37:22Z</time>
      </trkpt>
      <trkpt lat="48.01473" lon="6.9826">
        <ele>1134</ele>
        <time>2011-08-17T13:37:25Z</time>
      </trkpt>
      <trkpt lat="48.01474" lon="6.98245">
        <ele>1115</ele>
        <time>2011-08-17T13:37:34Z</time>
      </trkpt>
      <trkpt lat="48.01487" lon="6.98239">
        <ele>1113</ele>
        <time>2011-08-17T13:37:44Z</time>
      </trkpt>
      <trkpt lat="48.01496" lon="6.98236">
        <ele>1113</ele>
        <time>2011-08-17T13:38:00Z</time>
      </trkpt>
      <trkpt lat="48.01499" lon="6.98244">
        <ele>1113</ele>
        <time>2011-08-17T13:38:16Z</time>
      </trkpt>
      <trkpt lat="48.01503" lon="6.98247">
        <ele>1110</ele>
        <time>2011-08-17T13:38:20Z</time>
      </trkpt>
      <trkpt lat="48.01515" lon="6.98246">
        <ele>1101</ele>
        <time>2011-08-17T13:38:28Z</time>
      </trkpt>
      <trkpt lat="48.01515" lon="6.98245">
        <ele>1101</ele>
        <time>2011-08-17T13:38:36Z</time>
      </trkpt>
      <trkpt lat="48.01505" lon="6.98231">
        <ele>1098</ele>
        <time>2011-08-17T13:38:41Z</time>
      </trkpt>
      <trkpt lat="48.01495" lon="6.98213">
        <ele>1108</ele>
        <time>2011-08-17T13:38:47Z</time>
      </trkpt>
      <trkpt lat="48.01447" lon="6.98169">
        <ele>1108</ele>
        <time>2011-08-17T13:38:58Z</time>
      </trkpt>
      <trkpt lat="48.01435" lon="6.98151">
        <ele>1092</ele>
        <time>2011-08-17T13:39:02Z</time>
      </trkpt>
      <trkpt lat="48.01416" lon="6.98128">
        <ele>1108</ele>
        <time>2011-08-17T13:39:06Z</time>
      </trkpt>
      <trkpt lat="48.01371" lon="6.98054">
        <ele>1092</ele>
        <time>2011-08-17T13:39:15Z</time>
      </trkpt>
      <trkpt lat="48.01342" lon="6.98007">
        <ele>1093</ele>
        <time>2011-08-17T13:39:21Z</time>
      </trkpt>
      <trkpt lat="48.01333" lon="6.97979">
        <ele>1099</ele>
        <time>2011-08-17T13:39:24Z</time>
      </trkpt>
      <trkpt lat="48.01323" lon="6.97935">
        <ele>1092</ele>
        <time>2011-08-17T13:39:29Z</time>
      </trkpt>
      <trkpt lat="48.01318" lon="6.9789">
        <ele>1084</ele>
        <time>2011-08-17T13:39:34Z</time>
      </trkpt>
      <trkpt lat="48.01312" lon="6.97855">
        <ele>1082</ele>
        <time>2011-08-17T13:39:37Z</time>
      </trkpt>
      <trkpt lat="48.01289" lon="6.97765">
        <ele>1078</ele>
        <time>2011-08-17T13:39:44Z</time>
      </trkpt>
      <trkpt lat="48.01287" lon="6.97721">
        <ele>1076</ele>
        <time>2011-08-17T13:39:48Z</time>
      </trkpt>
      <trkpt lat="48.01282" lon="6.97699">
        <ele>1077</ele>
        <time>2011-08-17T13:39:51Z</time>
      </trkpt>
      <trkpt lat="48.01277" lon="6.97684">
        <ele>1078</ele>
        <time>2011-08-17T13:39:58Z</time>
      </trkpt>
      <trkpt lat="48.01274" lon="6.97684">
        <ele>1078</ele>
        <time>2011-08-17T13:40:27Z</time>
      </trkpt>
      <trkpt lat="48.01275" lon="6.97685">
        <ele>1078</ele>
        <time>2011-08-17T13:41:12Z</time>
      </trkpt>
      <trkpt lat="48.01301" lon="6.97704">
        <ele>1074</ele>
        <time>2011-08-17T13:41:17Z</time>
      </trkpt>
      <trkpt lat="48.01344" lon="6.97734">
        <ele>1060</ele>
        <time>2011-08-17T13:41:24Z</time>
      </trkpt>
      <trkpt lat="48.01347" lon="6.97753">
        <ele>1061</ele>
        <time>2011-08-17T13:41:28Z</time>
      </trkpt>
      <trkpt lat="48.0135" lon="6.97772">
        <ele>1059</ele>
        <time>2011-08-17T13:41:31Z</time>
      </trkpt>
      <trkpt lat="48.01349" lon="6.97807">
        <ele>1059</ele>
        <time>2011-08-17T13:41:37Z</time>
      </trkpt>
      <trkpt lat="48.0137" lon="6.97849">
        <ele>1059</ele>
        <time>2011-08-17T13:41:45Z</time>
      </trkpt>
      <trkpt lat="48.01377" lon="6.97856">
        <ele>1058</ele>
        <time>2011-08-17T13:41:47Z</time>
      </trkpt>
      <trkpt lat="48.01385" lon="6.97868">
        <ele>1058</ele>
        <time>2011-08-17T13:41:51Z</time>
      </trkpt>
      <trkpt lat="48.01406" lon="6.97904">
        <ele>1055</ele>
        <time>2011-08-17T13:42:01Z</time>
      </trkpt>
      <trkpt lat="48.01409" lon="6.97904">
        <ele>1055</ele>
        <time>2011-08-17T13:42:05Z</time>
      </trkpt>
      <trkpt lat="48.0143" lon="6.97903">
        <ele>1044</ele>
        <time>2011-08-17T13:42:09Z</time>
      </trkpt>
      <trkpt lat="48.01436" lon="6.97905">
        <ele>1043</ele>
        <time>2011-08-17T13:42:14Z</time>
      </trkpt>
      <trkpt lat="48.01446" lon="6.97932">
        <ele>1045</ele>
        <time>2011-08-17T13:42:21Z</time>
      </trkpt>
      <trkpt lat="48.01473" lon="6.97957">
        <ele>1041</ele>
        <time>2011-08-17T13:42:29Z</time>
      </trkpt>
      <trkpt lat="48.01476" lon="6.97965">
        <ele>1041</ele>
        <time>2011-08-17T13:42:31Z</time>
      </trkpt>
      <trkpt lat="48.0151" lon="6.97983">
        <ele>1027</ele>
        <time>2011-08-17T13:42:38Z</time>
      </trkpt>
      <trkpt lat="48.01521" lon="6.9798">
        <ele>1026</ele>
        <time>2011-08-17T13:42:41Z</time>
      </trkpt>
      <trkpt lat="48.01527" lon="6.97984">
        <ele>1025</ele>
        <time>2011-08-17T13:42:44Z</time>
      </trkpt>
      <trkpt lat="48.01559" lon="6.97977">
        <ele>1021</ele>
        <time>2011-08-17T13:42:51Z</time>
      </trkpt>
      <trkpt lat="48.01567" lon="6.97985">
        <ele>1020</ele>
        <time>2011-08-17T13:42:55Z</time>
      </trkpt>
      <trkpt lat="48.01571" lon="6.97996">
        <ele>1019</ele>
        <time>2011-08-17T13:42:58Z</time>
      </trkpt>
      <trkpt lat="48.01574" lon="6.98005">
        <ele>1022</ele>
        <time>2011-08-17T13:43:01Z</time>
      </trkpt>
      <trkpt lat="48.01593" lon="6.98001">
        <ele>1017</ele>
        <time>2011-08-17T13:43:11Z</time>
      </trkpt>
      <trkpt lat="48.01592" lon="6.98005">
        <ele>1017</ele>
        <time>2011-08-17T13:43:18Z</time>
      </trkpt>
      <trkpt lat="48.01601" lon="6.9801">
        <ele>1017</ele>
        <time>2011-08-17T13:43:21Z</time>
      </trkpt>
      <trkpt lat="48.01617" lon="6.98011">
        <ele>1017</ele>
        <time>2011-08-17T13:43:24Z</time>
      </trkpt>
      <trkpt lat="48.01627" lon="6.98019">
        <ele>1016</ele>
        <time>2011-08-17T13:43:27Z</time>
      </trkpt>
      <trkpt lat="48.01646" lon="6.9801">
        <ele>1013</ele>
        <time>2011-08-17T13:43:33Z</time>
      </trkpt>
      <trkpt lat="48.01652" lon="6.98">
        <ele>1007</ele>
        <time>2011-08-17T13:43:35Z</time>
      </trkpt>
      <trkpt lat="48.01664" lon="6.97992">
        <ele>1007</ele>
        <time>2011-08-17T13:43:45Z</time>
      </trkpt>
      <trkpt lat="48.01657" lon="6.97986">
        <ele>1007</ele>
        <time>2011-08-17T13:43:49Z</time>
      </trkpt>
      <trkpt lat="48.0166" lon="6.97982">
        <ele>1007</ele>
        <time>2011-08-17T13:43:55Z</time>
      </trkpt>
      <trkpt lat="48.01687" lon="6.97944">
        <ele>997</ele>
        <time>2011-08-17T13:44:03Z</time>
      </trkpt>
      <trkpt lat="48.01707" lon="6.97946">
        <ele>997</ele>
        <time>2011-08-17T13:44:10Z</time>
      </trkpt>
      <trkpt lat="48.01707" lon="6.97947">
        <ele>997</ele>
        <time>2011-08-17T13:44:11Z</time>
      </trkpt>
      <trkpt lat="48.01717" lon="6.97959">
        <ele>998</ele>
        <time>2011-08-17T13:44:16Z</time>
      </trkpt>
      <trkpt lat="48.01735" lon="6.97961">
        <ele>997</ele>
        <time>2011-08-17T13:44:20Z</time>
      </trkpt>
      <trkpt lat="48.01765" lon="6.97957">
        <ele>999</ele>
        <time>2011-08-17T13:44:25Z</time>
      </trkpt>
      <trkpt lat="48.0178" lon="6.97936">
        <ele>998</ele>
        <time>2011-08-17T13:44:30Z</time>
      </trkpt>
      <trkpt lat="48.01794" lon="6.97912">
        <ele>996</ele>
        <time>2011-08-17T13:44:34Z</time>
      </trkpt>
      <trkpt lat="48.01808" lon="6.97887">
        <ele>997</ele>
        <time>2011-08-17T13:44:38Z</time>
      </trkpt>
      <trkpt lat="48.01822" lon="6.97838">
        <ele>998</ele>
        <time>2011-08-17T13:44:46Z</time>
      </trkpt>
      <trkpt lat="48.01846" lon="6.97798">
        <ele>1001</ele>
        <time>2011-08-17T13:45:00Z</time>
      </trkpt>
      <trkpt lat="48.01842" lon="6.978">
        <ele>1001</ele>
        <time>2011-08-17T13:45:04Z</time>
      </trkpt>
      <trkpt lat="48.01817" lon="6.97804">
        <ele>995</ele>
        <time>2011-08-17T13:45:23Z</time>
      </trkpt>
      <trkpt lat="48.01818" lon="6.97801">
        <ele>995</ele>
        <time>2011-08-17T13:51:55Z</time>
      </trkpt>
      <trkpt lat="48.01821" lon="6.978">
        <ele>995</ele>
        <time>2011-08-17T13:52:15Z</time>
      </trkpt>
      <trkpt lat="48.01821" lon="6.97796">
        <ele>995</ele>
        <time>2011-08-17T13:52:47Z</time>
      </trkpt>
      <trkpt lat="48.01821" lon="6.97796">
        <ele>995</ele>
        <time>2011-08-17T13:54:08Z</time>
      </trkpt>
      <trkpt lat="48.01824" lon="6.97788">
        <ele>995</ele>
        <time>2011-08-17T13:54:12Z</time>
      </trkpt>
      <trkpt lat="48.01833" lon="6.97773">
        <ele>995</ele>
        <time>2011-08-17T13:54:18Z</time>
      </trkpt>
      <trkpt lat="48.01858" lon="6.97723">
        <ele>997</ele>
        <time>2011-08-17T13:54:32Z</time>
      </trkpt>
      <trkpt lat="48.01872" lon="6.97663">
        <ele>994</ele>
        <time>2011-08-17T13:54:43Z</time>
      </trkpt>
      <trkpt lat="48.01866" lon="6.97602">
        <ele>993</ele>
        <time>2011-08-17T13:54:53Z</time>
      </trkpt>
      <trkpt lat="48.01866" lon="6.97596">
        <ele>993</ele>
        <time>2011-08-17T13:54:54Z</time>
      </trkpt>
      <trkpt lat="48.01873" lon="6.97557">
        <ele>993</ele>
        <time>2011-08-17T13:55:00Z</time>
      </trkpt>
      <trkpt lat="48.01873" lon="6.97542">
        <ele>992</ele>
        <time>2011-08-17T13:55:05Z</time>
      </trkpt>
      <trkpt lat="48.01859" lon="6.97517">
        <ele>992</ele>
        <time>2011-08-17T13:55:16Z</time>
      </trkpt>
      <trkpt lat="48.01859" lon="6.97518">
        <ele>992</ele>
        <time>2011-08-17T13:55:21Z</time>
      </trkpt>
      <trkpt lat="48.01869" lon="6.97533">
        <ele>992</ele>
        <time>2011-08-17T13:55:30Z</time>
      </trkpt>
      <trkpt lat="48.01879" lon="6.97534">
        <ele>993</ele>
        <time>2011-08-17T13:55:34Z</time>
      </trkpt>
      <trkpt lat="48.019" lon="6.97515">
        <ele>993</ele>
        <time>2011-08-17T13:55:44Z</time>
      </trkpt>
      <trkpt lat="48.01919" lon="6.97461">
        <ele>998</ele>
        <time>2011-08-17T13:55:58Z</time>
      </trkpt>
      <trkpt lat="48.01934" lon="6.97437">
        <ele>997</ele>
        <time>2011-08-17T13:56:03Z</time>
      </trkpt>
      <trkpt lat="48.01941" lon="6.97423">
        <ele>998</ele>
        <time>2011-08-17T13:56:05Z</time>
      </trkpt>
      <trkpt lat="48.01964" lon="6.97331">
        <ele>994</ele>
        <time>2011-08-17T13:56:13Z</time>
      </trkpt>
      <trkpt lat="48.01969" lon="6.97279">
        <ele>993</ele>
        <time>2011-08-17T13:56:19Z</time>
      </trkpt>
      <trkpt lat="48.01976" lon="6.97229">
        <ele>990</ele>
        <time>2011-08-17T13:56:27Z</time>
      </trkpt>
      <trkpt lat="48.01975" lon="6.97231">
        <ele>990</ele>
        <time>2011-08-17T13:56:49Z</time>
      </trkpt>
      <trkpt lat="48.01971" lon="6.9722">
        <ele>989</ele>
        <time>2011-08-17T13:56:58Z</time>
      </trkpt>
      <trkpt lat="48.01971" lon="6.97216">
        <ele>989</ele>
        <time>2011-08-17T13:57:13Z</time>
      </trkpt>
      <trkpt lat="48.01971" lon="6.97217">
        <ele>989</ele>
        <time>2011-08-17T13:57:36Z</time>
      </trkpt>
      <trkpt lat="48.0197" lon="6.97215">
        <ele>989</ele>
        <time>2011-08-17T13:57:50Z</time>
      </trkpt>
      <trkpt lat="48.01968" lon="6.9721">
        <ele>988</ele>
        <time>2011-08-17T13:57:55Z</time>
      </trkpt>
      <trkpt lat="48.0196" lon="6.97208">
        <ele>988</ele>
        <time>2011-08-17T13:58:02Z</time>
      </trkpt>
      <trkpt lat="48.01959" lon="6.97208">
        <ele>988</ele>
        <time>2011-08-17T13:58:03Z</time>
      </trkpt>
      <trkpt lat="48.0195" lon="6.97208">
        <ele>988</ele>
        <time>2011-08-17T13:58:12Z</time>
      </trkpt>
      <trkpt lat="48.01949" lon="6.97204">
        <ele>987</ele>
        <time>2011-08-17T13:58:15Z</time>
      </trkpt>
      <trkpt lat="48.01947" lon="6.97196">
        <ele>987</ele>
        <time>2011-08-17T13:58:25Z</time>
      </trkpt>
      <trkpt lat="48.01949" lon="6.97192">
        <ele>987</ele>
        <time>2011-08-17T13:58:27Z</time>
      </trkpt>
      <trkpt lat="48.01961" lon="6.97194">
        <ele>988</ele>
        <time>2011-08-17T13:58:32Z</time>
      </trkpt>
      <trkpt lat="48.01955" lon="6.97184">
        <ele>987</ele>
        <time>2011-08-17T13:58:36Z</time>
      </trkpt>
      <trkpt lat="48.01957" lon="6.97182">
        <ele>987</ele>
        <time>2011-08-17T13:58:38Z</time>
      </trkpt>
      <trkpt lat="48.01958" lon="6.97178">
        <ele>987</ele>
        <time>2011-08-17T13:58:40Z</time>
      </trkpt>
      <trkpt lat="48.01961" lon="6.97169">
        <ele>987</ele>
        <time>2011-08-17T13:58:49Z</time>
      </trkpt>
      <trkpt lat="48.01962" lon="6.97169">
        <ele>987</ele>
        <time>2011-08-17T13:58:54Z</time>
      </trkpt>
      <trkpt lat="48.0197" lon="6.97155">
        <ele>981</ele>
        <time>2011-08-17T13:59:00Z</time>
      </trkpt>
      <trkpt lat="48.01971" lon="6.97109">
        <ele>977</ele>
        <time>2011-08-17T13:59:09Z</time>
      </trkpt>
      <trkpt lat="48.01972" lon="6.97103">
        <ele>977</ele>
        <time>2011-08-17T13:59:11Z</time>
      </trkpt>
      <trkpt lat="48.01985" lon="6.97075">
        <ele>971</ele>
        <time>2011-08-17T13:59:22Z</time>
      </trkpt>
      <trkpt lat="48.01991" lon="6.97063">
        <ele>970</ele>
        <time>2011-08-17T13:59:27Z</time>
      </trkpt>
      <trkpt lat="48.01991" lon="6.97054">
        <ele>969</ele>
        <time>2011-08-17T13:59:40Z</time>
      </trkpt>
      <trkpt lat="48.01989" lon="6.97049">
        <ele>969</ele>
        <time>2011-08-17T13:59:47Z</time>
      </trkpt>
      <trkpt lat="48.01988" lon="6.97045">
        <ele>969</ele>
        <time>2011-08-17T13:59:49Z</time>
      </trkpt>
      <trkpt lat="48.0199" lon="6.97035">
        <ele>968</ele>
        <time>2011-08-17T14:00:00Z</time>
      </trkpt>
      <trkpt lat="48.01992" lon="6.97031">
        <ele>968</ele>
        <time>2011-08-17T14:00:05Z</time>
      </trkpt>
      <trkpt lat="48.01994" lon="6.97018">
        <ele>967</ele>
        <time>2011-08-17T14:00:20Z</time>
      </trkpt>
      <trkpt lat="48.01992" lon="6.96999">
        <ele>965</ele>
        <time>2011-08-17T14:00:27Z</time>
      </trkpt>
      <trkpt lat="48.01999" lon="6.96981">
        <ele>963</ele>
        <time>2011-08-17T14:00:35Z</time>
      </trkpt>
      <trkpt lat="48.02002" lon="6.96943">
        <ele>972</ele>
        <time>2011-08-17T14:00:43Z</time>
      </trkpt>
      <trkpt lat="48.02002" lon="6.96909">
        <ele>962</ele>
        <time>2011-08-17T14:01:02Z</time>
      </trkpt>
      <trkpt lat="48.02003" lon="6.96905">
        <ele>963</ele>
        <time>2011-08-17T14:01:06Z</time>
      </trkpt>
      <trkpt lat="48.02006" lon="6.96863">
        <ele>961</ele>
        <time>2011-08-17T14:01:19Z</time>
      </trkpt>
      <trkpt lat="48.02015" lon="6.96811">
        <ele>950</ele>
        <time>2011-08-17T14:01:29Z</time>
      </trkpt>
      <trkpt lat="48.02022" lon="6.96787">
        <ele>949</ele>
        <time>2011-08-17T14:01:34Z</time>
      </trkpt>
      <trkpt lat="48.02024" lon="6.96781">
        <ele>948</ele>
        <time>2011-08-17T14:01:37Z</time>
      </trkpt>
      <trkpt lat="48.02024" lon="6.96776">
        <ele>948</ele>
        <time>2011-08-17T14:01:39Z</time>
      </trkpt>
      <trkpt lat="48.02024" lon="6.96766">
        <ele>946</ele>
        <time>2011-08-17T14:01:45Z</time>
      </trkpt>
      <trkpt lat="48.02028" lon="6.96747">
        <ele>937</ele>
        <time>2011-08-17T14:01:55Z</time>
      </trkpt>
      <trkpt lat="48.02032" lon="6.96739">
        <ele>937</ele>
        <time>2011-08-17T14:01:59Z</time>
      </trkpt>
      <trkpt lat="48.02032" lon="6.96733">
        <ele>937</ele>
        <time>2011-08-17T14:02:05Z</time>
      </trkpt>
      <trkpt lat="48.02031" lon="6.96722">
        <ele>936</ele>
        <time>2011-08-17T14:02:11Z</time>
      </trkpt>
      <trkpt lat="48.02045" lon="6.96688">
        <ele>933</ele>
        <time>2011-08-17T14:02:22Z</time>
      </trkpt>
      <trkpt lat="48.02051" lon="6.9668">
        <ele>933</ele>
        <time>2011-08-17T14:02:25Z</time>
      </trkpt>
      <trkpt lat="48.0206" lon="6.96672">
        <ele>931</ele>
        <time>2011-08-17T14:02:29Z</time>
      </trkpt>
      <trkpt lat="48.02072" lon="6.96657">
        <ele>924</ele>
        <time>2011-08-17T14:02:35Z</time>
      </trkpt>
      <trkpt lat="48.02082" lon="6.96648">
        <ele>923</ele>
        <time>2011-08-17T14:02:40Z</time>
      </trkpt>
      <trkpt lat="48.02094" lon="6.9663">
        <ele>918</ele>
        <time>2011-08-17T14:02:47Z</time>
      </trkpt>
      <trkpt lat="48.02099" lon="6.96624">
        <ele>917</ele>
        <time>2011-08-17T14:02:49Z</time>
      </trkpt>
      <trkpt lat="48.02126" lon="6.96602">
        <ele>915</ele>
        <time>2011-08-17T14:02:59Z</time>
      </trkpt>
      <trkpt lat="48.02162" lon="6.96575">
        <ele>906</ele>
        <time>2011-08-17T14:03:10Z</time>
      </trkpt>
      <trkpt lat="48.02179" lon="6.96565">
        <ele>902</ele>
        <time>2011-08-17T14:03:14Z</time>
      </trkpt>
      <trkpt lat="48.02208" lon="6.96528">
        <ele>897</ele>
        <time>2011-08-17T14:03:24Z</time>
      </trkpt>
      <trkpt lat="48.02219" lon="6.96515">
        <ele>895</ele>
        <time>2011-08-17T14:03:27Z</time>
      </trkpt>
      <trkpt lat="48.02223" lon="6.96507">
        <ele>894</ele>
        <time>2011-08-17T14:03:38Z</time>
      </trkpt>
      <trkpt lat="48.02224" lon="6.96505">
        <ele>894</ele>
        <time>2011-08-17T14:05:14Z</time>
      </trkpt>
      <trkpt lat="48.02223" lon="6.96499">
        <ele>888</ele>
        <time>2011-08-17T14:05:17Z</time>
      </trkpt>
      <trkpt lat="48.02218" lon="6.96474">
        <ele>888</ele>
        <time>2011-08-17T14:05:27Z</time>
      </trkpt>
      <trkpt lat="48.02218" lon="6.96472">
        <ele>888</ele>
        <time>2011-08-17T14:05:30Z</time>
      </trkpt>
      <trkpt lat="48.02217" lon="6.9647">
        <ele>888</ele>
        <time>2011-08-17T14:05:32Z</time>
      </trkpt>
      <trkpt lat="48.02225" lon="6.96451">
        <ele>888</ele>
        <time>2011-08-17T14:05:49Z</time>
      </trkpt>
      <trkpt lat="48.02228" lon="6.96441">
        <ele>887</ele>
        <time>2011-08-17T14:06:04Z</time>
      </trkpt>
      <trkpt lat="48.0223" lon="6.96435">
        <ele>886</ele>
        <time>2011-08-17T14:06:12Z</time>
      </trkpt>
      <trkpt lat="48.02236" lon="6.96432">
        <ele>886</ele>
        <time>2011-08-17T14:06:15Z</time>
      </trkpt>
      <trkpt lat="48.0224" lon="6.9642">
        <ele>884</ele>
        <time>2011-08-17T14:06:19Z</time>
      </trkpt>
      <trkpt lat="48.02244" lon="6.96411">
        <ele>886</ele>
        <time>2011-08-17T14:06:24Z</time>
      </trkpt>
      <trkpt lat="48.02252" lon="6.96399">
        <ele>881</ele>
        <time>2011-08-17T14:06:29Z</time>
      </trkpt>
      <trkpt lat="48.02269" lon="6.96374">
        <ele>881</ele>
        <time>2011-08-17T14:06:38Z</time>
      </trkpt>
      <trkpt lat="48.02273" lon="6.96361">
        <ele>882</ele>
        <time>2011-08-17T14:06:50Z</time>
      </trkpt>
      <trkpt lat="48.02279" lon="6.96356">
        <ele>881</ele>
        <time>2011-08-17T14:06:56Z</time>
      </trkpt>
      <trkpt lat="48.02291" lon="6.96349">
        <ele>880</ele>
        <time>2011-08-17T14:07:05Z</time>
      </trkpt>
      <trkpt lat="48.02301" lon="6.96336">
        <ele>878</ele>
        <time>2011-08-17T14:07:11Z</time>
      </trkpt>
      <trkpt lat="48.02305" lon="6.96326">
        <ele>885</ele>
        <time>2011-08-17T14:07:16Z</time>
      </trkpt>
      <trkpt lat="48.02315" lon="6.96319">
        <ele>883</ele>
        <time>2011-08-17T14:07:23Z</time>
      </trkpt>
      <trkpt lat="48.02322" lon="6.96312">
        <ele>883</ele>
        <time>2011-08-17T14:07:27Z</time>
      </trkpt>
      <trkpt lat="48.02326" lon="6.96312">
        <ele>882</ele>
        <time>2011-08-17T14:07:29Z</time>
      </trkpt>
      <trkpt lat="48.02334" lon="6.96303">
        <ele>872</ele>
        <time>2011-08-17T14:07:34Z</time>
      </trkpt>
      <trkpt lat="48.02353" lon="6.96272">
        <ele>874</ele>
        <time>2011-08-17T14:07:44Z</time>
      </trkpt>
      <trkpt lat="48.02359" lon="6.96257">
        <ele>874</ele>
        <time>2011-08-17T14:07:55Z</time>
      </trkpt>
      <trkpt lat="48.02358" lon="6.96248">
        <ele>877</ele>
        <time>2011-08-17T14:08:31Z</time>
      </trkpt>
      <trkpt lat="48.02372" lon="6.96225">
        <ele>874</ele>
        <time>2011-08-17T14:08:43Z</time>
      </trkpt>
      <trkpt lat="48.02386" lon="6.96179">
        <ele>872</ele>
        <time>2011-08-17T14:08:54Z</time>
      </trkpt>
      <trkpt lat="48.02399" lon="6.96161">
        <ele>869</ele>
        <time>2011-08-17T14:08:57Z</time>
      </trkpt>
      <trkpt lat="48.02406" lon="6.96137">
        <ele>870</ele>
        <time>2011-08-17T14:09:04Z</time>
      </trkpt>
      <trkpt lat="48.02412" lon="6.9607">
        <ele>866</ele>
        <time>2011-08-17T14:09:14Z</time>
      </trkpt>
      <trkpt lat="48.02426" lon="6.95996">
        <ele>853</ele>
        <time>2011-08-17T14:09:18Z</time>
      </trkpt>
      <trkpt lat="48.02452" lon="6.95936">
        <ele>847</ele>
        <time>2011-08-17T14:09:28Z</time>
      </trkpt>
      <trkpt lat="48.02395" lon="6.95786">
        <ele>846</ele>
        <time>2011-08-17T14:09:33Z</time>
      </trkpt>
      <trkpt lat="48.02295" lon="6.95607">
        <ele>833</ele>
        <time>2011-08-17T14:09:44Z</time>
      </trkpt>
      <trkpt lat="48.021" lon="6.95297">
        <ele>806</ele>
        <time>2011-08-17T14:09:46Z</time>
      </trkpt>
      <trkpt lat="48.02106" lon="6.95203">
        <ele>800</ele>
        <time>2011-08-17T14:09:58Z</time>
      </trkpt>
      <trkpt lat="48.0214" lon="6.95183">
        <ele>800</ele>
        <time>2011-08-17T14:10:10Z</time>
      </trkpt>
    </trkseg>
  </trk>
</gpx>